     2.11           OBSERVATION DATA    G (GPS)             RINEX VERSION / TYPE
teqc 2010Oct21 OPUS Account 20111026 14:51:30UTC            PGM / RUN BY / DATE
3287                                                        MARKER NAME
1137                                                        MARKER NUMBER
CSMIDDLETON NGS                                             OBSERVER / AGENCY
0220284361 TRIMBLE 5700 NP 1.22 / SP 1.22                   REC # / TYPE / VERS
12234991 TRM41249.00 NONE                                   ANT # / TYPE
  -739013.8500 -5480266.1429  3167895.4900                  APPROX POSITION XYZ
        2.0000        0.0000        0.0000                  ANTENNA: DELTA H/E/N
     1     1                                                WAVELENGTH FACT L1/2
     5    L1    L2    C1    P1    P2                        # / TYPES OF OBSERV
    15                                                      LEAP SECONDS
  2011     7    30     0     0    0.0000000     GPS         TIME OF FIRST OBS
                                                            END OF HEADER
 11  7 30  0  0  0.0000000  0  7G02G17G09G28G04G27G10
  27062921.52748  21099040.14546  22069370.2034                   22069366.8594
   9986277.31348   7790613.95746  21427402.5784                   21427399.9384
  29508659.55147  23004998.36445  22071267.8834                   22071266.6374
   5255701.64147   4102267.33945  21920874.0394                   21920871.8754
  10450760.81648   8153099.59647  19839398.8914                   19839396.7034
  22917059.23847  17865645.11645  22354083.4534                   22354081.7034
  36678473.67646  28589015.11744  23230543.5864                   23230543.6524
 11  7 30  0  0 30.0000000  0  7G02G17G09G28G04G27G10
  26952827.73848  21013252.82446  22048420.2274                   22048416.3834
   9983596.27348   7788524.81046  21426892.2424                   21426889.8554
  29455681.02347  22963716.38245  22061186.7194                   22061185.2114
   5276814.91847   4118719.20445  21924891.6804                   21924889.6414
  10410138.83648   8121446.10647  19831668.3914                   19831666.5234
  22879047.40647  17836025.48445  22346849.7894                   22346848.5704
  36550859.14546  28489575.30944  23206259.9844                   23206259.1604
 11  7 30  0  1  0.0000000  0  7G02G17G09G28G04G27G10
  26843041.77348  20927705.37546  22027528.8054                   22027525.0944
   9981002.23448   7786503.45246  21426398.9224                   21426396.2584
  29403341.06347  22922931.99945  22051226.5554                   22051225.1914
   5298297.69547   4135458.99345  21928980.1564                   21928978.0354
  10370080.18848   8090231.60146  19824045.8284                   19824043.5634
  22841522.25847  17806785.10045  22339709.1024                   22339707.5004
  36423336.76247  28390207.31544  23181992.8054                   23181992.5904
 11  7 30  0  1 30.0000000  0  7G02G17G09G28G04G27G10
  26733563.69948  20842397.81446  22006695.3524                   22006691.6604
   9978494.00848   7784548.94846  21425921.5394                   21425918.9494
  29351638.73047  22882644.46045  22041387.9614                   22041386.5234
   5320148.43847   4152485.50345  21933137.8914                   21933135.8364
  10330583.25048   8059454.76346  19816529.5314                   19816527.4844
  22804482.35547  17777922.80345  22332660.4534                   22332659.0274
  36295908.47746  28290912.60044  23157743.9064                   23157743.4104
 11  7 30  0  2  0.0000000  0  7G02G17G09G28G04G27G10
  26624394.87548  20757331.23946  21985921.3984                   21985917.6914
   9976071.58647   7782661.31646  21425460.6334                   21425457.8594
  29300574.34847  22842853.99945  22031670.9534                   22031669.2384
   5342367.45747   4169798.97745  21937366.4614                   21937364.0824
  10291647.36748   8029115.12747  19809120.3834                   19809118.1804
  22767927.50047  17749438.49245  22325704.6414                   22325702.9344
  36168577.81646  28191694.02044  23133513.5234                   23133513.0984
 11  7 30  0  2 30.0000000  0  7G02G17G09G28G04G27G10
  26515540.15648  20672509.42346  21965207.1564                   21965203.1684
   9973738.65248   7780843.41846  21425016.5164                   21425013.7304
  29250151.86747  22803563.74845  22022075.5784                   22022074.1604
   5364958.14547   4187402.06345  21941664.9614                   21941662.5474
  10253275.53148   7999214.99947  19801818.7034                   19801816.1024
  22731860.94547  17721334.65645  22318841.3834                   22318839.8954
  36041351.84046  28092556.96144  23109303.1644                   23109302.9774
 11  7 30  0  3  0.0000000  0  7G02G17G09G28G04G27G10
  26406999.32848  20587932.19046  21944552.4454                   21944548.8134
   9971493.14148   7779093.66546  21424589.0394                   21424586.8204
  29200369.51647  22764772.27645  22012602.6334                   22012600.5314
   5387918.59047   4205293.29645  21946034.7734                   21946031.5474
  10215465.67648   7969752.78346  19794623.5084                   19794621.4494
  22696280.70347  17693609.77745  22312070.6484                   22312068.8874
  35914232.37146  27993502.92144  23085113.3204                   23085112.4964
 11  7 30  0  3 30.0000000  0  7G02G17G09G28G04G27G10
  26298773.64548  20503600.51446  21923957.3594                   21923954.3094
   9969335.22348   7777412.15046  21424178.6564                   21424176.2704
  29151227.80547  22726480.02145  22003251.3674                   22003249.4304
   5411248.86747   4223472.71345  21950474.0394                   21950471.6054
  10178217.18448   7940727.99247  19787535.2814                   19787533.2934
  22661186.49247  17666263.60745  22305392.5164                   22305390.8834
  35787222.63746  27894534.33044  23060943.8134                   23060943.3554
 11  7 30  0  4  0.0000000  0  7G02G17G09G28G04G27G10
  26190864.48448  20419515.50046  21903423.3204                   21903419.5594
   9967264.83248   7775798.83646  21423784.4774                   21423782.1174
  29102726.76247  22688686.98145  21994021.8444                   21994019.7664
   5434949.03947   4241940.32645  21954984.2034                   21954981.4104
  10141529.42648   7912140.12547  19780553.6724                   19780551.6334
  22626578.25047  17639296.12945  22298806.6094                   22298805.0594
  35660326.00046  27795653.89444  23036796.1024                   23036795.3794
 11  7 30  0  4 30.0000000  0  7G02G17G09G28G04G27G10
  26083272.33248  20335677.49046  21882948.8364                   21882945.5394
   9965281.35247   7774253.25046  21423407.0234                   21423404.7734
  29054866.09847  22651392.94945  21984913.8914                   21984912.5354
   5459017.98847   4260695.29845  21959564.0944                   21959562.1994
  10105401.02048   7883988.11647  19773678.9384                   19773676.7774
  22592454.76247  17612706.36645  22292313.2344                   22292311.4264
  35533545.48446  27696863.93244  23012670.8134                   23012670.1644
 11  7 30  0  5  0.0000000  0  7G02G17G09G28G04G27G10
  25976002.74248  20252090.83846  21862536.3524                   21862532.7504
   9963388.74647   7772778.47146  21423046.9144                   21423044.7814
  29007650.21547  22614601.33445  21975929.5394                   21975928.0164
   5483460.16447   4279741.12345  21964215.3364                   21964213.0394
  10069835.82048   7856274.97747  19766911.0164                   19766908.9064
  22558819.81647  17586497.30245  22285913.4454                   22285911.3834
  35406888.74646  27598170.44944  22988569.1334                   22988568.1914
 11  7 30  0  5 30.0000000  0  7G02G17G09G28G04G27G10
  25869051.03148  20168751.87046  21842183.9454                   21842180.5944
   9961581.14548   7771369.91746  21422703.0394                   21422700.8984
  28961073.10547  22578307.47945  21967065.8984                   21967064.3714
   5508269.25847   4299072.82645  21968936.3444                   21968934.0704
  10034826.76648   7828995.19847  19760249.2504                   19760246.9224
  22525666.80147  17560663.75545  22279603.8444                   22279602.3634
  35280352.98046  27499571.22244  22964489.5234                   22964488.9774
 11  7 30  0  6  0.0000000  0  7G02G17G09G28G04G27G10
  25762422.39148  20085664.65846  21821893.3204                   21821889.8794
   9959862.57847   7770030.75446  21422375.7734                   21422373.6564
  28915138.72347  22542514.42545  21958324.5474                   21958323.1024
   5533449.19547   4318693.52345  21973727.8914                   21973725.3324
  10000377.17648   7802151.37247  19753693.2114                   19753691.3674
  22492999.68847  17535208.82445  22273387.5704                   22273385.9224
  35153945.85247  27401072.22744  22940435.1724                   22940433.9144
 11  7 30  0  6 30.0000000  0  7G02G17G09G28G04G27G10
  25656117.56348  20002829.77346  21801663.9694                   21801660.6884
   9958232.44947   7768760.49646  21422066.0554                   21422063.5354
  28869846.89147  22507222.07745  21949706.3054                   21949704.5944
   5558999.24647   4338602.61345  21978590.3364                   21978587.6644
   9966486.02348   7775742.67247  19747244.0634                   19747242.0234
  22460817.47347  17510131.75045  22267263.6094                   22267262.0904
  35027670.22347  27302675.69444  22916405.3984                   22916404.6524
 11  7 30  0  7  0.0000000  0  7G02G17G09G28G04G27G10
  25550131.23048  19920243.06346  21781495.7734                   21781492.2664
   9956684.42647   7767554.23446  21421771.1804                   21421769.0354
  28825190.96147  22472425.23445  21941208.4694                   21941207.0704
   5584912.87947   4358795.01545  21983521.2344                   21983518.8954
   9933146.14148   7749763.54847  19740899.8204                   19740897.7854
  22429113.41447  17485427.26645  22261230.2034                   22261228.5594
  34901523.06347  27204379.26444  22892400.7274                   22892399.8284
 11  7 30  0  7 30.0000000  0  7G02G17G09G28G04G27G10
  25444468.10948  19837908.18346  21761388.4614                   21761385.0434
   9955221.89847   7766414.58146  21421493.3054                   21421490.7304
  28781173.90647  22438126.22145  21932832.2034                   21932830.8714
   5611193.05147   4379273.01845  21988522.3204                   21988520.0204
   9900359.80547   7724215.75447  19734660.8594                   19734658.8954
  22397890.26647  17461097.53445  22255289.0864                   22255287.5824
  34775510.93046  27106188.07444  22868421.0004                   22868420.4964
 11  7 30  0  8  0.0000000  0  7G02G17G09G28G04G27G10
  25339133.66848  19755829.43746  21741343.9304                   21741340.2114
   9953849.67247   7765345.29046  21421232.2424                   21421229.7664
  28737800.57447  22404328.79645  21924578.6724                   21924577.2664
   5637843.84847   4400039.85245  21993594.0704                   21993591.0554
   9868131.00847   7699102.40347  19728527.8984                   19728525.7814
  22367151.88747  17437145.51945  22249439.8134                   22249437.9184
  34649641.96547  27008108.45544  22844469.1724                   22844468.3554
 11  7 30  0  8 30.0000000  0  7G02G17G09G28G04G27G10
  26809545.53148  20901604.95446  22021154.0864                   22021150.3634
  11527979.83247   8991940.20446  21720778.7894                   21720776.6764
  30270485.09847  23598628.41645  22216238.7584                   22216237.1724
   7240276.99247   5648688.99145  22298526.7814                   22298524.8524
  11411872.46547   8902017.82647  20022292.2194                   20022289.7384
  23912311.63347  18641166.06845  22543473.8914                   22543472.3164
  36099336.55547  28137740.67544  23120336.4924                   23120336.2854
 11  7 30  0  9  0.0000000  0  7G02G17G09G28G04G27G10
  26704861.45348  20820032.96846  22001233.3674                   22001229.5474
  11526776.11747   8991002.22346  21720550.0004                   21720547.4384
  30228387.96947  23565825.43645  22208228.0634                   22208226.6094
   7267658.16847   5670024.93145  22303737.5394                   22303735.0434
  11380745.11348   8877762.74147  20016368.6484                   20016366.5664
  23882530.56647  18617960.02845  22537806.7504                   22537805.1454
  35973753.42647  28039883.75044  23096438.9064                   23096438.4024
 11  7 30  0  9 30.0000000  0  7G02G17G09G28G04G27G10
  26600503.52348  20738715.12046  21981374.5164                   21981370.9534
  11525656.43447   8990129.72146  21720336.6174                   21720334.4494
  30186927.72747  23533518.73345  22200338.5394                   22200336.6764
   7295403.01247   5691644.25145  22309017.0784                   22309014.7304
  11350166.44148   8853935.20247  20010549.8444                   20010547.3834
  23853226.35947  18595125.55245  22532230.2274                   22532228.9694
  35848317.45747  27942141.50644  23072569.8204                   23072568.8134
 11  7 30  0 10  0.0000000  0  7G02G17G09G28G04G27G10
  26496475.10248  20657654.04846  21961578.7974                   21961575.0274
  11524622.68447   8989324.18346  21720140.0394                   21720137.5704
  30146106.44947  23501709.93145  22192570.7114                   22192569.3164
   7323513.68047   5713548.62745  22314366.2734                   22314363.8754
  11320137.63347   8830536.13347  20004835.4454                   20004833.3754
  23824400.73447  18572664.00245  22526745.1024                   22526743.3634
  35723034.44947  27844518.45645  23048728.7974                   23048728.0864
 11  7 30  0 10 30.0000000  0  7G02G17G09G28G04G27G10
  26392777.35248  20576850.62646  21941845.8284                   21941842.1764
  11523675.09447   8988585.78546  21719960.0864                   21719957.5394
  30105924.03547  23470398.94545  22184924.5084                   22184922.3484
   7351989.85947   5735737.80645  22319785.3284                   22319783.1374
  11290658.30147   8807565.21347  19999226.0864                   19999223.5164
  23796053.55547  18550575.24145  22521351.0784                   22521349.2034
  35597908.10547  27747017.46444  23024917.8754                   23024917.1884
 11  7 30  0 11  0.0000000  0  7G02G17G09G28G04G27G10
  26289412.64148  20496306.73946  21922175.8444                   21922172.2734
  11522815.07448   8987915.62346  21719796.2034                   21719793.6294
  30066381.57047  23439586.61545  22177399.6564                   22177397.5744
   7380832.58647   5758212.61645  22325273.6094                   22325271.5824
  11261728.19148   8785022.28146  19993720.5474                   19993718.5124
  23768185.07447  18528859.54145  22516047.3284                   22516046.0824
  35472942.60547  27649641.84345  23001137.7344                   23001136.9384
 11  7 30  0 11 30.0000000  0  7G02G17G09G28G04G27G10
  26186380.28148  20416021.80546  21902570.2194                   21902565.8914
  11522040.87547   8987312.32646  21719648.8594                   21719646.3954
  30027476.97747  23409271.34745  22169995.9534                   22169994.2464
   7410039.89147   5780971.51445  22330831.9694                   22330829.5354
  11233344.86748   8762905.39947  19988319.9384                   19988317.0704
  23740792.93847  18507514.98845  22510834.6024                   22510833.1994
  35348140.23047  27552393.30445  22977388.6564                   22977387.7664
 11  7 30  0 12  0.0000000  0  7G02G17G09G28G04G27G10
  26083680.97348  20335996.39646  21883026.5704                   21883022.6094
  11521351.92248   8986775.46446  21719517.8444                   21719515.5394
  29989209.18847  23379452.27045  22162713.9694                   22162712.2274
   7439610.17247   5804013.25345  22336459.1954                   22336456.6374
  11205506.94548   8741213.51447  19983022.1024                   19983019.7934
  23713875.84047  18486540.59845  22505712.6484                   22505711.2704
  35223503.60547  27455273.93845  22953671.0864                   22953670.1374
 11  7 30  0 12 30.0000000  0  7G02G17G09G28G04G27G10
  25981314.80948  20256230.59746  21863546.9304                   21863543.3054
  11520747.42648   8986304.40846  21719402.8524                   21719400.7544
  29951576.85547  23350128.36945  22155552.5704                   22155551.2544
   7469542.70347   5827337.24445  22342154.7974                   22342152.7074
  11178212.25448   8719944.92047  19977827.8524                   19977825.9454
  23687432.12547  18465935.09445  22500680.6954                   22500679.3164
  35099035.19147  27358285.62645  22929985.5634                   22929984.1764
 11  7 30  0 13  0.0000000  0  7G02G17G09G28G04G27G10
  25879286.40648  20176727.97646  21844131.4694                   21844127.6994
  11520230.93448   8985901.92146  21719304.3674                   21719302.3094
  29914583.17247  23321302.11045  22148513.2504                   22148511.5594
   7499840.33247   5850945.75345  22347920.3364                   22347918.5744
  11151463.22748   8699101.52747  19972738.1254                   19972735.7234
  23661464.52047  18445700.57145  22495739.2664                   22495737.8524
  34974741.80547  27261433.69245  22906333.2734                   22906332.5164
 11  7 30  0 13 30.0000000  0  8G02G17G09G28G04G27G12G10
  25777586.17648  20097481.08446  21824778.3594                   21824774.7504
  11519792.20747   8985560.04346  21719220.9384                   21719218.6644
  29878217.24247  23292965.00045  22141592.9304                   22141591.3054
   7530492.30947   5874830.35645  22353753.1254                   22353751.4654
  11125248.34048   8678674.34647  19967749.4924                   19967747.2854
  23635961.89547  18425828.37745  22490886.5944                   22490884.6174
  45446977.12546  35422841.77844  24412906.8364                   24412905.6804
  34850616.42647  27164712.68345  22882713.0944                   22882712.2074
 11  7 30  0 14  0.0000000  0  8G02G17G09G28G04G27G12G10
  25676213.35548  20018489.32446  21805487.7194                   21805484.2034
  11519429.52047   8985277.41146  21719151.7504                   21719149.6374
  29842477.18447  23265115.60345  22134791.7194                   22134790.2504
   7561496.69947   5898989.56345  22359653.7664                   22359651.3674
  11099564.92648   8658661.30447  19962861.8674                   19962859.7464
  23610921.88347  18406316.65445  22486121.4534                   22486120.2384
  45314979.63346  35319986.66544  24387788.7584                   24387787.4964
  34726661.06347  27068124.14645  22859124.9064                   22859123.6764
 11  7 30  0 14 30.0000000  0  8G02G17G09G28G04G27G12G10
  25575168.35948  19939752.99346  21786259.8364                   21786255.9614
  11519141.98447   8985053.34846  21719097.3204                   21719094.7424
  29807361.62947  23237752.82645  22128109.1334                   22128108.0164
   7592852.05147   5923422.26445  22365619.9454                   22365617.7894
  11074411.13748   8639060.94147  19958075.2894                   19958072.6914
  23586343.00847  18387164.26145  22481444.7194                   22481443.2424
  45182979.33646  35217129.32044  24362669.6334                   24362668.3914
  34602878.51646  26971670.26045  22835569.8054                   22835568.8054
 11  7 30  0 15  0.0000000  0  8G02G17G09G28G04G27G12G10
  25474455.56348  19861275.52646  21767094.7114                   21767090.9144
  11518933.43048   8984890.80146  21719057.5634                   21719055.1564
  29772873.37547  23210878.86645  22121546.8914                   22121545.0784
   7624561.45747   5948130.83845  22371653.8444                   22371652.0984
  11049789.44148   8619875.20647  19953389.9304                   19953387.7384
  23562227.67247  18368373.06145  22476855.2344                   22476853.6884
  45050981.03546  35114273.54843  24337551.6024                   24337550.0084
  34479275.79747  26875356.51445  22812048.4534                   22812047.8874
 11  7 30  0 15 30.0000000  0  8G02G17G09G28G04G27G12G10
  25374074.64848  19783056.65646  21747992.6884                   21747989.0164
  11518802.48448   8984788.74546  21719032.9454                   21719029.9804
  29739010.69147  23184492.35245  22115102.9924                   22115101.5744
   7656623.02347   5973113.81945  22377754.8054                   22377753.2704
  11025697.14148   8601101.99047  19948805.3524                   19948803.1294
  23538573.71147  18349941.38045  22472353.9694                   22472352.5164
  44918985.59046  35011420.05643  24312433.5864                   24312431.0594
  34355854.73047  26779184.31844  22788562.7504                   22788561.4414
 11  7 30  0 16  0.0000000  0  8G02G17G09G28G04G27G12G10
  25274033.05948  19705102.21046  21728955.5234                   21728951.6914
  11518755.46948   8984752.07346  21719023.5394                   21719021.0314
  29705779.28147  23158597.72945  22108779.2114                   22108777.1604
   7689042.48047   5998375.68245  22383924.5704                   22383922.3794
  11002139.59048   8582745.43947  19944322.6334                   19944320.2934
  23515386.71147  18331873.55945  22467941.7274                   22467940.5554
  44787001.37946  34908575.33043  24287317.3284                   24287315.7194
  34232625.27747  26683161.41344  22765112.8914                   22765111.2424
 11  7 30  0 16 30.0000000  0  8G02G17G09G28G04G27G12G10
  25174331.10248  19627412.39446  21709982.6954                   21709978.4494
  11518792.03148   8984780.54446  21719030.9304                   21719028.4574
  29673177.88347  23133194.02745  22102575.3914                   22102573.6804
   7721818.71547   6023915.55145  22390162.1414                   22390159.6484
  10979114.74248   8564803.99947  19939940.9144                   19939938.8134
  23492665.21947  18314168.46745  22463617.7974                   22463616.6254
  44655029.73047  34805740.27644  24262204.8834                   24262201.4304
  34109590.01247  26587289.85544  22741699.6174                   22741699.0634
 11  7 30  0 17  0.0000000  0  8G02G17G09G28G04G27G12G10
  25074972.08648  19549989.81946  21691075.1644                   21691071.1684
  11518914.79748   8984876.18246  21719054.0164                   21719052.5084
  29641208.14847  23108282.54345  22096491.9144                   22096490.2974
   7754953.60247   6049734.87345  22396467.4304                   22396465.2544
  10956623.98048   8547278.72847  19935661.2194                   19935658.8244
  23470410.79746  18296827.32145  22459383.1414                   22459381.8834
  44523074.83647  34702918.27244  24237094.4454                   24237091.5124
  33986754.60247  26491573.98344  22718324.8524                   22718323.6254
 11  7 30  0 17 30.0000000  0  8G02G17G09G28G04G27G12G10
  24975952.30548  19472831.57146  21672232.3834                   21672228.6294
  11519119.40247   8985035.61346  21719093.3364                   21719090.6804
  29609864.74647  23083859.09945  22090527.4924                   22090525.1684
   7788442.09847   6075829.75545  22402839.7664                   22402837.5044
  10934661.37548   8530165.00247  19931481.9844                   19931479.6484
  23448617.77346  18279845.74045  22455236.1954                   22455234.9654
  44391134.10247  34600107.35544  24211986.7194                   24211983.8634
  33864118.03947  26396013.08244  22694987.4774                   22694986.1844
 11  7 30  0 18  0.0000000  0  8G02G17G09G28G04G27G12G10
  24877278.53948  19395942.94846  21653455.4534                   21653451.5904
  11519411.47748   8985263.17646  21719148.9304                   21719146.5984
  29579153.02047  23059927.86145  22084683.3674                   22084681.4344
   7822289.56647   6102204.35745  22409280.5474                   22409278.7774
  10913231.66448   8513466.51447  19927404.0084                   19927401.8014
  23427291.18447  18263227.58845  22451177.9304                   22451176.7814
  44259215.33247  34497313.56644  24186883.4224                   24186880.2664
  33741689.82047  26300614.52744  22671690.5314                   22671689.0044
 11  7 30  0 18 30.0000000  0  8G02G17G09G28G04G27G12G10
  24778951.37948  19319324.40446  21634744.1174                   21634740.6484
  11519791.39148   8985559.19946  21719221.3134                   21719218.7034
  29549071.89547  23036488.00545  22078958.5394                   22078956.9264
   7856495.08647   6128857.95045  22415790.2664                   22415787.8794
  10892333.27348   8497182.05747  19923427.2114                   19923424.8054
  23406429.79347  18246971.91745  22447207.3054                   22447206.3634
  44127320.22347  34394538.23944  24161784.2034                   24161782.8444
  33619473.00847  26205380.69144  22648433.4454                   22648432.6484
 11  7 30  0 19  0.0000000  0  8G02G17G09G28G04G27G12G10
  24680971.82448  19242976.72346  21616099.2504                   21616095.7154
  11520258.57848   8985923.21946  21719310.1094                   21719307.5274
  29519620.39547  23013538.77245  22073354.2424                   22073352.7074
   7891058.00447   6155790.05045  22422367.6334                   22422365.4304
  10871964.94948   8481310.61946  19919551.0234                   19919548.7424
  23386032.37946  18231077.81845  22443326.6094                   22443325.5594
  43995450.92647  34291782.98344  24136691.0864                   24136688.6884
  33497471.04747  26110314.30244  22625217.0164                   22625216.1054
 11  7 30  0 19 30.0000000  0  8G02G17G09G28G04G27G12G10
  24583343.02348  19166902.36146  21597521.2974                   21597517.7814
  11520815.52047   8986357.17746  21719416.0474                   21719413.6644
  29490799.73047  22991081.09145  22067869.6484                   22067868.3754
   7925979.54347   6183001.58545  22429012.1884                   22429010.4184
  10852127.35948   8465852.75647  19915776.0474                   19915774.2974
  23366100.00447  18215546.03245  22439534.0944                   22439532.8754
  43863611.52047  34189051.05244  24111602.0394                   24111600.4614
  33375689.35947  26015419.52445  22602042.7974                   22602042.0274
 11  7 30  0 20  0.0000000  0  8G02G17G09G28G04G27G12G10
  24486061.38748  19091098.51946  21579009.3444                   21579005.3444
  11521458.30547   8986858.02846  21719538.1804                   21719536.0634
  29462605.10947  22969111.24045  22062504.8444                   22062502.9804
   7961255.41447   6210489.21345  22435725.3284                   22435723.1884
  10832814.97748   8450804.13846  19912101.1094                   19912099.0004
  23346627.60247  18200372.71945  22435828.4224                   22435826.8244
  43731800.07047  34086340.85844  24086519.3284                   24086517.1254
  33254127.17247  25920695.79345  22578910.3054                   22578909.1764
 11  7 30  0 20 30.0000000  0  8G02G17G09G28G04G27G12G10
  24389129.15648  19015566.93246  21560563.7894                   21560559.6884
  11522188.82447   8987427.24746  21719677.7194                   21719675.0234
  29435037.53547  22947630.00045  22057258.6884                   22057257.0204
   7996886.24248   6238253.45445  22442505.9064                   22442503.4614
  10814028.17248   8436165.06347  19908526.1094                   19908523.8164
  23327615.65247  18185558.17545  22432210.6254                   22432208.9224
  43600019.53547  33983654.78644  24061442.1024                   24061440.5204
  33132789.80547  25826147.24145  22555820.7194                   22555819.3714
 11  7 30  0 21  0.0000000  0  8G02G17G09G28G04G27G12G10
  24292543.88748  18940305.70046  21542183.8834                   21542180.0664
  11523003.34048   8988061.91246  21719832.1954                   21719830.1484
  29408091.99247  22926633.43945  22052130.9454                   22052129.1684
   8032867.70347   6266290.88445  22449352.9064                   22449351.1804
  10795761.98848   8421931.67347  19905050.2274                   19905047.8134
  23309059.49247  18171098.78745  22428679.2584                   22428677.6884
  43468268.80547  33880991.92544  24036371.1334                   24036369.5664
  33011677.11747  25731773.74845  22532773.2814                   22532772.6094
 11  7 30  0 21 30.0000000  0  8G02G17G09G28G04G27G12G10
  24196309.35248  18865317.77046  21523871.3674                   21523867.6454
  11523905.15248   8988764.62046  21720003.9144                   21720002.2114
  29381770.64547  22906123.28845  22047122.0784                   22047120.7584
   8069202.24647   6294603.44645  22456266.9144                   22456265.2344
  10778017.82448   8408105.03947  19901673.4304                   19901671.4024
  23290960.95347  18156996.01745  22425235.4614                   22425233.6334
  43336552.69147  33778356.05844  24011306.2664                   24011304.3014
  32890795.34447  25637580.23945  22509770.7664                   22509769.7344
 11  7 30  0 22  0.0000000  0  8G02G17G09G28G04G27G12G10
  24100426.96948  18790604.25446  21505625.2974                   21505621.4224
  11524895.08648   8989535.98346  21720192.3674                   21720189.5234
  29356073.49247  22886099.51245  22042232.7344                   22042231.0514
   8105889.97347   6323191.23145  22463248.1884                   22463246.8094
  10760795.36748   8394684.93647  19898396.3284                   19898394.2074
  23273319.63747  18143249.50445  22421878.2894                   22421876.4064
  43204873.95347  33675749.31544  23986247.6254                   23986246.8714
  32770148.62147  25543569.84845  22486812.3594                   22486811.0594
 11  7 30  0 22 30.0000000  0  8G02G17G09G28G04G27G12G10
  24004892.37948  18716161.74046  21487445.7274                   21487441.9414
  11525967.94548   8990371.94846  21720396.6724                   21720394.3244
  29330994.05947  22866557.05445  22037459.9064                   22037458.4024
   8142924.82047   6352049.49345  22470296.3594                   22470293.7624
  10744087.74648   8381666.00947  19895216.8674                   19895215.0634
  23256129.39147  18129854.47545  22418607.2584                   22418605.3404
  43073229.52347  33573169.28244  23961197.4304                   23961195.4264
  32649735.36747  25449741.38945  22463898.4534                   22463897.4534
 11  7 30  0 23  0.0000000  0  8G02G17G09G28G04G27G12G10
  23909709.34048  18641993.17146  21469333.0314                   21469328.9654
  11527127.10548   8991275.17046  21720617.1724                   21720614.9454
  29306534.31647  22847497.49845  22032805.4774                   22032804.1804
   8180308.80147   6381179.82245  22477410.0004                   22477408.2424
  10727896.32848   8369049.31347  19892135.9924                   19892133.6294
  23239391.75847  18116812.13345  22415422.0314                   22415420.4264
  42941624.30547  33470619.80944  23936153.8594                   23936151.8914
  32529561.81647  25356099.70345  22441030.1804                   22441028.9844
 11  7 30  0 23 30.0000000  0  8G02G17G09G28G04G27G12G10
  23814878.84048  18568099.29246  21451287.3054                   21451283.5274
  11528372.87948   8992245.87146  21720854.3204                   21720851.5784
  29282693.46947  22828920.16845  22028268.8834                   22028267.4804
   8218041.69147   6410582.00045  22484590.2194                   22484588.5274
  10712220.10548   8356834.06347  19889152.7974                   19889150.9734
  23223105.78947  18104121.73745  22412322.6414                   22412320.9884
  42810060.98447  33368102.99144  23911117.8054                   23911116.0514
  32409631.44547  25262647.50945  22418208.0474                   22418206.8634
 11  7 30  0 24  0.0000000  0  8G02G17G09G28G04G27G12G10
  23720398.71148  18494478.43446  21433308.3754                   21433304.2194
  11529702.89848   8993282.23546  21721107.1724                   21721104.9734
  29259467.65647  22810822.11945  22023848.7424                   22023847.7424
   8256119.99647   6440253.34245  22491836.4384                   22491834.7774
  10697054.72348   8345016.88047  19886266.8754                   19886265.1094
  23207267.69547  18091780.33945  22409308.9534                   22409307.5904
  42678538.48847  33265617.97744  23886089.7194                   23886088.8204
  32289945.17247  25169385.53045  22395432.4454                   22395431.1524
 11  7 30  0 24 30.0000000  0  8G02G17G09G28G04G27G12G10
  23626276.81648  18421136.71746  21415397.5944                   21415393.1564
  11531124.36747   8994389.86046  21721377.8054                   21721375.7074
  29236862.77747  22793207.90445  22019547.4384                   22019545.9184
   8294549.77047   6470198.54745  22499149.3674                   22499147.7154
  10682405.77048   8333602.10347  19883479.1884                   19883476.9694
  23191883.24646  18079792.40445  22406381.6484                   22406380.0234
  42547065.87547  33163171.84644  23861071.1954                   23861069.9024
  32170513.37147  25076321.82845  22372705.8134                   22372704.4414
 11  7 30  0 25  0.0000000  0  8G02G17G09G28G04G27G12G10
  23532508.47348  18348070.50246  21397554.1024                   21397550.0594
  11532631.49248   8995564.22446  21721664.1254                   21721662.2504
  29214872.05147  22776072.24745  22015362.9694                   22015361.2424
   8333324.72347   6500412.72645  22506528.1724                   22506526.2234
  10668266.02048   8322584.10647  19880788.6564                   19880786.3014
  23176945.60947  18068152.66845  22403538.6414                   22403537.3554
  42415639.86346  33060762.01244  23836062.1254                   23836060.1054
  32051333.85247  24983454.71345  22350025.8984                   22350025.0944
 11  7 30  0 25 30.0000000  0  8G02G17G09G28G04G27G12G10
  23439093.89148  18275279.93346  21379777.4534                   21379774.0044
  11534224.62148   8996805.60746  21721967.8914                   21721965.5394
  29193494.16047  22759414.12545  22011294.9144                   22011292.8954
   8372443.73047   6530895.00945  22513972.2974                   22513970.2934
  10654633.89548   8311961.66747  19878194.4774                   19878192.4614
  23162453.25847  18056859.88345  22400781.0474                   22400780.1334
  42284262.40247  32958390.02344  23811062.2504                   23811060.0124
  31932409.79747  24890786.67145  22327395.8674                   22327394.2814
 11  7 30  0 26  0.0000000  0  8G02G17G09G28G04G27G12G10
  23346035.25448  18202766.74046  21362069.1024                   21362065.5784
  11535904.87548   8998114.88146  21722287.8284                   21722285.3364
  29172728.79748  22743233.31145  22007343.2664                   22007341.8484
   8411907.05147   6561645.57645  22521481.9694                   22521480.1294
  10641509.01248   8301734.47847  19875697.0634                   19875694.7704
  23148406.14147  18045914.04945  22398108.1334                   22398106.8204
  42152936.44547  32856058.11944  23786071.2894                   23786069.7384
  31813745.73047  24798321.21345  22304814.4924                   22304813.2504
 11  7 30  0 26 30.0000000  0  8G02G17G09G28G04G27G12G10
  23253330.22748  18130529.07246  21344427.8754                   21344424.2624
  11537669.92648   8999490.22546  21722623.8204                   21722621.3364
  29152571.98448  22727526.66245  22003507.7034                   22003506.2274
   8451711.59447   6592662.04944  22529056.7034                   22529055.1484
  10628886.85948   8291899.02647  19873294.7664                   19873292.5514
  23134800.09447  18035311.88545  22395518.9384                   22395517.8444
  42021661.53947  32753766.02444  23761090.7584                   23761088.5354
  31695342.32447  24706058.84245  22282283.2664                   22282281.9144
 11  7 30  0 27  0.0000000  0  8G02G17G09G28G04G27G12G10
  23160982.88748  18058570.12646  21326854.8134                   21326851.1414
  11539523.15648   9000934.28146  21722976.2664                   21722973.9614
  29133026.01648  22712296.01345  21999788.3284                   21999786.7934
   8491859.34847   6623945.95944  22536696.2584                   22536694.0594
  10616769.38748   8282456.82847  19870988.9614                   19870986.9384
  23121637.32446  18025055.15545  22393014.2504                   22393013.0984
  41890442.89147  32651517.75144  23736119.9774                   23736118.2504
  31577206.62547  24614005.11145  22259802.4144                   22259801.4064
 11  7 30  0 27 30.0000000  0  8G02G17G09G28G04G27G12G10
  23068994.39148  17986890.80546  21309350.1414                   21309346.0744
  11541465.60948   9002447.86946  21723346.0474                   21723343.4774
  29114090.29747  22697540.87745  21996184.8134                   21996183.4064
   8532350.16047   6655497.16544  22544401.2734                   22544399.8984
  10605155.44148   8273407.00347  19868779.2344                   19868777.0354
  23108917.05947  18015143.23245  22390593.3444                   22390592.7274
  41759283.67247  32549315.76644  23711161.5234                   23711159.3754
  31459342.26647  24522162.81145  22237373.4224                   22237372.5394
 11  7 30  0 28  0.0000000  0  8G02G17G09G28G04G27G12G10
  22977357.91048  17915485.77546  21291912.2894                   21291908.0204
  11543489.92248   9004025.24246  21723730.9384                   21723728.5204
  29095756.14847  22683254.49145  21992696.3524                   21992694.7424
   8573175.62547   6687309.14444  22552170.4384                   22552168.1024
  10594036.03948   8264742.53347  19866663.0554                   19866661.1374
  23096630.30147  18005569.09545  22388255.3834                   22388254.8714
  41628178.44947  32447155.89044  23686213.1174                   23686210.6214
  31341745.19547  24430528.77545  22214995.8674                   22214994.1684
 11  7 30  0 28 30.0000000  0  8G02G17G09G28G04G27G12G10
  22886080.88748  17844360.84546  21274542.8444                   21274538.5474
  11545603.14848   9005671.89146  21724132.9774                   21724130.6484
  29078028.86747  22669441.00445  21989322.9454                   21989321.4104
   8614342.02347   6719386.81444  22560004.5474                   22560002.2194
  10583416.42648   8256467.50947  19864642.2974                   19864639.9414
  23084782.49647  17996337.01645  22386001.2274                   22386000.1334
  41497136.05946  32345044.95444  23661276.1954                   23661274.4384
  31224425.78947  24339111.10245  22192670.6804                   22192669.3834
 11  7 30  0 29  0.0000000  0  8G02G17G09G28G04G27G12G10
  22795163.82848  17773516.40246  21257241.8364                   21257237.8134
  11547805.44548   9007387.95146  21724552.6174                   21724549.7154
  29060906.64547  22656099.00445  21986064.3284                   21986062.8954
   8655847.98047   6751729.04945  22567902.8204                   22567900.6994
  10573294.50848   8248580.29447  19862715.7974                   19862713.8674
  23073372.04746  17987445.72545  22383830.0394                   22383828.9454
  41366158.58246  32242984.61844  23636352.1724                   23636349.8284
  31107386.98847  24247912.07045  22170398.8364                   22170397.0044
 11  7 30  0 29 30.0000000  0  8G02G17G09G28G04G27G12G10
  22704606.93048  17702952.59946  21240009.1414                   21240005.5554
  11550096.43447   9009173.11746  21724988.0634                   21724985.7974
  29044387.63347  22643227.01245  21982920.8444                   21982919.8524
   8697691.62547   6784334.42945  22575865.6334                   22575863.7544
  10563668.23848   8241079.29546  19860884.3054                   19860882.0124
  23062397.07047  17978893.76145  22381741.6094                   22381740.3524
  41235247.60246  32140976.12844  23611440.9454                   23611438.6294
  30990631.95747  24156934.15445  22148181.2034                   22148179.5704
 11  7 30  0 30  0.0000000  0  8G02G17G09G28G04G27G12G10
  22614406.63748  17632666.67946  21222844.9924                   21222840.6374
  11552472.34047   9011024.44846  21725440.5554                   21725437.9574
  29028466.37547  22630820.81345  21979891.2894                   21979889.6764
   8739868.49647   6817199.45544  22583891.3524                   22583889.4304
  10554531.81348   8233959.99347  19859145.9224                   19859143.8484
  23051851.97347  17970676.76745  22379734.8364                   22379733.2774
  41104400.97346  32039017.74244  23586541.1804                   23586539.2384
  30874160.03547  24066176.85245  22126016.7814                   22126015.5554
 11  7 30  0 30 30.0000000  0  8G02G17G09G28G04G27G12G10
  22524567.69148  17562662.32846  21205749.2894                   21205745.2704
  11554937.98447   9012945.71746  21725909.4064                   21725907.3714
  29013145.71547  22618882.62245  21976975.5084                   21976974.5864
   8782381.76247   6850326.62244  22591981.7114                   22591979.6134
  10545887.88748   8227224.46347  19857500.8284                   19857498.5864
  23041739.72747  17962797.05945  22377810.7114                   22377809.2274
  40973625.41047  31937114.73444  23561655.6334                   23561653.5704
  30757978.77347  23975646.03045  22103908.1884                   22103907.2584
 11  7 30  0 31  0.0000000  0  8G02G17G09G28G04G27G12G10
                                  24010512.96548
  18720541.77746                  21488514.9064                   21488510.8674
  13132912.63347  10242536.32946  22026188.2584                   22026185.9534
  30573844.28948  23835011.35745  22273966.7504                   22273965.4224
  10400648.22347   8111313.40744  22899927.0164   22899925.3714   12113154.62148
   9448471.25947  20155741.7664   20155739.6724   24607478.50447  19182853.21345
  22675760.6954   22675759.5664   42418346.96947  33062871.87744  23836576.7114
  23836574.6094   32217514.93847  25112946.98445  22381648.6254   22381647.4494
 11  7 30  0 31 30.0000000  0  8G02G17G09G28G04G27G12G10
                                  23921395.69548
  18651099.76646                  21471556.6884                   21471552.9064
  13135555.06347  10244595.34746  22026691.0944                   22026688.8524
  30559717.56347  23824003.49845  22271279.0004                   22271277.1994
  10443828.55147   8144960.34344  22908144.2974   22908142.7584   12105487.90248
   9442497.18647  20154282.7114   20154280.2814   24598224.73447  19175642.44345
  22674000.0394   22673998.5044   42287717.55947  32961082.78844  23811718.6484
  23811716.7504   32101922.55547  25022875.03245  22359652.5474   22359651.0274
 11  7 30  0 32  0.0000000  0  8G02G17G09G28G04G27G12G10
                                  23832639.23848
  18581938.89946                  21454666.9614                   21454662.7734
  13138285.51247  10246722.94846  22027210.4534                   22027208.5004
  30546184.66047  23813458.34745  22268703.5864                   22268702.1334
  10487340.21947   8178865.45644  22916424.0314   22916422.6254   12098306.43448
   9436901.23047  20152916.3524   20152914.4884   24589397.08647  19168763.72245
  22672320.0634   22672318.6564   42157163.43847  32859352.32244  23786875.4224
  23786872.7854   31986628.60947  24933035.63145  22337712.9224   22337710.8244
 11  7 30  0 32 30.0000000  0  8G02G17G09G28G04G27G12G10
                                  23744247.43848
  18513062.20046                  21437846.3364                   21437842.5314
  13141107.65647  10248921.99646  22027747.5474                   22027745.8094
  30533247.24247  23803377.21445  22266241.8054                   22266240.1484
  10531185.36747   8213030.46144  22924768.0394   22924765.9344   12091611.57848
   9431684.45347  20151642.1414   20151640.3484   24580997.42246  19162218.50145
  22670721.3754   22670720.6214   42026690.48447  32757685.13744  23762047.3364
  23762044.9494   31871640.04747  24843434.17745  22315830.9774   22315829.5234
 11  7 30  0 33  0.0000000  0  8G02G17G09G28G04G27G12G10
                                  23656220.70348
  18444469.96446                  21421095.5634                   21421091.6094
  13144021.60947  10251192.57246  22028302.0474                   22028299.9694
  30520903.39547  23793758.61745  22263892.5704                   22263891.2624
  10575362.71147   8247454.27544  22933174.1954   22933172.8014   12085401.55548
   9426845.46747  20150460.6484   20150458.5164   24573023.90647  19156005.34445
  22669204.4614   22669203.0904   41896300.33247  32656082.50245  23737234.5784
  23737232.6884   31756959.60947  24754072.84045  22294008.4064   22294007.0354
 11  7 30  0 33 30.0000000  0  8G02G17G09G28G04G27G12G10
                                  23568554.57048
  18376158.71346                  21404412.9844                   21404409.1374
  13147022.76247  10253531.10446  22028873.1884                   22028871.2504
  30509146.59847  23784597.43945  22261655.3364                   22261653.9264
  10619866.35547   8282132.35744  22941643.8134   22941641.8984   12079669.35248
   9422378.81347  20149369.7504   20149367.3524   24565470.01647  19150119.15845
  22667767.2664   22667765.6024   41765990.40647  32554542.35945  23712437.7584
  23712435.5274   31642585.99247  24664950.57245  22272243.8364   22272241.8594
 11  7 30  0 34  0.0000000  0  8G02G17G09G28G04G27G12G10
                                  23481253.29748
  18308131.76546                  21387799.9224                   21387796.0904
  13150115.25448  10255940.82046  22029461.8134                   22029459.3014
  30497979.30147  23775895.64145  22259530.1804                   22259528.9694
  10664699.23047   8317067.01444  22950175.1804   22950174.0004   12074417.24648
   9418286.26047  20148370.1644   20148368.5784   24558338.11747  19144561.80945
  22666409.7584   22666408.8404   41635767.02747  32453069.65345  23687656.5164
  23687654.3054   31528526.61347  24576073.15345  22250538.6724   22250537.0124
 11  7 30  0 34 30.0000000  0  8G02G17G09G28G04G27G12G10
                                  23394320.29348
  18240391.77646                  21371257.7894                   21371253.3714
  13153302.40648  10258424.30846  22030068.1884                   22030065.8554
  30487402.43447  23767653.89945  22257517.7034                   22257516.1454
  10709863.00447   8352259.50244  22958768.9384   22958767.6094   12069646.54348
   9414568.81646  20147462.6174   20147460.2894   24551629.62547  19139334.36045
  22665132.8594   22665132.2584   41505634.97747  32351668.08545  23662893.2584
  23662890.8284   31414787.73448  24487445.48845  22228895.0474   22228893.4104
 11  7 30  0 35  0.0000000  0  8G02G17G09G28G04G27G12G10
                                  23307748.37148
  18172933.15946                  21354783.1174                   21354779.0514
  13156577.08248  10260975.96146  22030691.2894                   22030689.2664
  30477406.75047  23759865.02245  22255615.5944                   22255613.9224
  10755349.22347   8387703.23444  22967424.7584   22967423.4844   12065347.48848
   9411218.89447  20146644.5554   20146642.5084   24545335.18847  19134429.57845
  22663935.1414   22663934.3554   41375589.12547  32250333.73744  23638146.2584
  23638144.2194   31301365.04347  24399064.20345  22207311.2974   22207310.1214
 11  7 30  0 35 30.0000000  0  8G02G17G09G28G04G27G12G10
                                  23221543.07448
  18105760.22446                  21338378.8284                   21338374.7504
  13159944.02747  10263599.52246  22031332.5164                   22031329.9344
  30467995.96947  23752531.93045  22253824.8594                   22253823.0474
  10801161.72347   8423401.20144  22976142.9844   22976140.8714   12061523.59448
   9408239.23647  20145916.4844   20145914.7584   24539458.39547  19129850.22645
  22662816.9924   22662815.8014   41245636.93047  32149072.30544  23613417.3054
  23613415.1844   31188266.84047  24310935.76745  22185789.3834   22185788.1954
 11  7 30  0 36  0.0000000  0  8G02G17G09G28G04G27G12G10
                                  23135701.74248
  18038870.89746                  21322043.7424                   21322040.0274
  13163400.97347  10266293.22046  22031990.3054                   22031987.7814
  30459165.02747  23745650.63645  22252144.4694                   22252142.8484
  10847296.00047   8459349.90944  22984922.2274   22984920.3714   12058169.61348
   9405625.73946  20145278.5864   20145276.5474   24533994.46547  19125592.58945
  22661777.7734   22661776.0784   41115777.60547  32047883.23744  23588706.0084
  23588703.9844   31075493.15648  24223060.20645  22164329.1254   22164327.8054
 11  7 30  0 36 30.0000000  0  8G02G17G09G28G04G27G12G10
                                  23050224.15248
  17972264.99746                  21305778.0474                   21305774.0984
  13166947.44147  10269056.68246  22032665.5474                   22032662.7544
  30450911.39547  23739219.21545  22250573.8834                   22250572.2464
  10893750.54747   8495548.19044  22993762.0474   22993759.9414   12055283.18848
   9403376.57246  20144729.5084   20144727.5944   24528940.96547  19121654.74245
  22660816.0474   22660814.8204   40986012.57447  31946767.69244  23564011.9224
  23564009.6214   30963046.55547  24135439.51545  22142931.5634   22142930.1604
 11  7 30  0 37  0.0000000  0  8G02G17G09G28G04G27G12G10
                                  22965109.47748
  17905941.89546                  21289581.1804                   21289577.5004
  13170582.75847  10271889.38746  22033357.0704                   22033354.3714
  30443232.08247  23733235.31645  22249112.1414                   22249110.9884
  10940523.36747   8531994.47744  23002662.5704   23002660.9304   12052861.47748
   9401489.52347  20144268.3284   20144266.3244   24524295.05947  19118034.52845
  22659931.5084   22659930.6524   40856343.47347  31845726.86244  23539336.9844
  23539334.4144   30850929.67247  24048075.73245  22121596.2034   22121594.8634
 11  7 30  0 37 30.0000000  0  8G02G17G09G28G04G27G12G10
                                  22880362.18848
  17839905.06846                  21273454.1024                   21273450.5944
  13174311.07847  10274794.54946  22034066.2734                   22034064.0984
  30436129.24247  23727700.61145  22247760.4924                   22247759.1564
  10987617.03147   8568690.78344  23011624.3054   23011622.0824   12050906.51248
   9399966.16547  20143896.3754   20143894.6804   24520058.98847  19114733.65745
  22659125.3754   22659124.6804   40726775.97347  31744765.23644  23514681.4844
  23514678.6644   30739149.79347  23960974.57245  22100325.1564   22100323.9614
 11  7 30  0 38  0.0000000  0  8G02G17G09G28G04G27G12G10
                                  22795980.32448
  17774152.96946                  21257397.1884                   21257392.9774
  13178130.72347  10277770.88346  22034793.2424                   22034791.0394
  30429598.48847  23722611.67845  22246517.8524                   22246516.5084
  11035027.91847   8605634.25144  23020646.4534   23020645.0634   12049413.72348
   9398802.93947  20143612.2424   20143610.5354   24516228.80147  19111749.04545
  22658396.7034   22658395.5744   40597309.98847  31643882.69044  23490044.4304
  23490041.9734   30627707.90247  23874136.77045  22079118.6564   22079117.2704
 11  7 30  0 38 30.0000000  0  8G02G17G09G28G04G27G12G10
                                  22711962.55948
  17708684.60846                  21241408.9454                   21241404.6644
  13182039.93448  10280817.00046  22035537.1254                   22035534.7814
  30423636.53947  23717965.98645  22245383.6564                   22245382.1844
  11082753.16847   8642822.69544  23029727.7194   23029726.7814   12048379.76648
   9397997.25447  20143415.6884   20143414.1604   24512801.04747  19109078.02845
  22657744.1484   22657743.3444   40467946.12147  31543079.69544  23465427.4614
  23465425.4964   30516605.23847  23787563.30745  22057976.0784   22057975.0004
 11  7 30  0 39  0.0000000  0  8G02G17G09G28G04G27G12G10
                                  22628311.32048
  17643501.83246                  21225490.3984                   21225486.3834
  13186041.57048  10283935.15746  22036298.7894                   22036296.3134
  30418243.42247  23713763.52145  22244357.1254                   22244355.6604
  11130794.07847   8680257.08944  23038870.7274   23038868.7544   12047804.83648
   9397549.24147  20143306.5634   20143303.9964   24509776.22347  19106720.98945
  22657168.9224   22657168.1804   40338689.20747  31442360.05244  23440830.4774
  23440828.5864   30405847.50447  23701258.62745  22036899.5004   22036898.4224
 11  7 30  0 39 30.0000000  0  8G02G17G09G28G04G27G12G10
                                  22545029.10948
  17578606.61746                  21209642.5944                   21209638.2624
  13190137.98448  10287127.14346  22037078.0314                   22037076.1294
  30413419.36747  23710004.48545  22243438.9774                   22243437.9454
  11179151.20347   8717937.88644  23048072.4454   23048070.7704   12047689.28948
   9397459.20247  20143284.1174   20143282.2464   24507154.64147  19104678.15545
  22656670.2734   22656669.0784   40209543.78147  31341727.29244  23416254.8914
  23416252.7384   30295440.14547  23615226.94645  22015889.8364   22015888.4774
 11  7 30  0 40  0.0000000  0  8G02G17G09G28G04G27G12G10
                                  22462112.21148
  17513996.06446                  21193864.2034                   21193860.3244
  13194325.28947  10290389.98246  22037875.0944                   22037872.5204
  30409158.27747  23706684.10545  22242628.5634                   22242627.0164
  11227819.23047   8755860.97644  23057333.3594   23057332.2704   12048026.92248
   9397722.28447  20143348.3524   20143346.5864   24504930.48447  19102944.99745
  22656247.2114   22656245.9734   40080508.12947  31241180.07245  23391700.2194
  23391697.7664   30185382.29747  23529467.63545  21994946.3674   21994945.0824
 11  7 30  0 40 30.0000000  0  8G02G17G09G28G04G27G12G10
                                  22379563.15248
  17449672.12946                  21178155.1644                   21178151.3134
  13198606.30147  10293725.80946  22038689.7664                   22038687.3594
  30405460.52047  23703802.70045  22241924.9774                   22241923.0044
  11276799.50047   8794027.36644  23066654.2274   23066653.7154   12048817.97748
   9398338.68847  20143498.8674   20143496.6914   24503103.90647  19101521.66445
  22655899.0084   22655898.4694   39951586.74647  31140721.88045  23367167.2034
  23367165.1524   30075679.50847  23443984.97545  21974070.4304   21974069.5004
 11  7 30  0 41  0.0000000  0  8G02G17G09G28G04G27G12G10
                                  22297384.10548
  17385636.52146                  21162517.0944                   21162513.1914
  13202983.37548  10297136.50446  22039522.6484                   22039520.4884
  30402326.18447  23701360.33945  22241328.5004                   22241327.0474
  11326092.60947   8832437.52044  23076034.2974   23076033.3014   12050062.48848
   9399308.42846  20143736.0084   20143733.8524   24501675.21947  19100408.35545
  22655627.5944   22655626.5004   39822783.35947  31040355.66745  23342656.6954
  23342654.2304   29966337.08648  23358783.12745  21953263.3914   21953261.9884
 11  7 30  0 41 30.0000000  0  8G02G17G09G28G04G27G12G10
                                  22215574.42248
  17321888.73446                  21146948.9614                   21146944.8014
  13207455.92648  10300621.58446  22040373.6644                   22040371.3914
  30399752.12547  23699354.54145  22240838.5314                   22240837.1024
  11375696.12147   8871089.49144  23085473.6024   23085471.8594   12051757.48448
   9400629.19646  20144058.4304   20144056.6294   24500641.62946  19099602.92045
  22655431.1954   22655430.0744   39694099.77347  30940082.78345  23318168.9144
  23318166.7114   29857356.87148  23273863.51845  21932525.2894   21932523.7154
 11  7 30  0 42  0.0000000  0  8G02G17G09G28G04G27G12G10
                                  22134132.27048
  17258427.33746                  21131451.1484                   21131447.0234
  13212021.97348  10304179.52746  22041242.2814                   22041240.1484
  30397734.03147  23697781.96245  22240454.4924                   22240453.3754
  11425606.50047   8909980.65344  23094971.3594   23094969.9384   12053898.76648
   9402297.71947  20144465.7974   20144464.0394   24499999.17246  19099102.26945
  22655309.2034   22655307.9574   39565535.93847  30839903.19745  23293704.4224
  23293702.3674   29748740.20348  23189227.19245  21911856.1484   21911854.8754
 11  7 30  0 42 30.0000000  0  8G02G17G09G28G04G27G12G10
                                  22053058.36348
  17195252.88046                  21116023.4384                   21116019.3834
  13216682.45748  10307811.05446  22042129.7274                   22042127.0944
  30396270.57847  23696641.57545  22240176.3204                   22240175.0164
  11475823.32846   8949110.55244  23104527.7814   23104526.1954   12056485.02748
   9404312.97147  20144957.8984   20144956.1214   24499746.66447  19098905.45945
  22655260.9534   22655259.7664   39437095.03547  30739819.41545  23269262.7194
  23269260.3754   29640490.72747  23104876.97245  21891256.6564   21891255.7194
 11  7 30  0 43  0.0000000  0  8G02G17G09G28G04G27G12G10
                                  21972351.53948
  17132364.46746                  21100665.8594                   21100661.6294
  13221436.70348  10311515.63146  22043034.1564                   22043031.9534
  30395358.36747  23695930.73845  22240002.5394                   22240001.3244
  11526343.96147   8988477.20744  23114141.8284   23114140.0314   12059512.80948
   9406672.27747  20145534.0394   20145532.0474   24499880.87947  19099010.00745
  22655285.8594   22655285.0704   39308778.51647  30639832.55045  23244845.0474
  23244842.4534   29532610.54348  23020814.51545  21870728.0634   21870726.2194
 11  7 30  0 43 30.0000000  0  8G02G17G09G28G04G27G12G10
                                  21892012.08248
  17069762.31246                  21085377.4144                   21085373.5124
  13226284.45348  10315293.06846  22043956.9924                   22043954.3674
  30394994.46147  23695647.13545  22239933.1414                   22239931.9694
  11577166.80947   9028079.32244  23123812.5474   23123811.5554   12062979.85248
   9409373.85646  20146193.9614   20146191.9844   24500399.53547  19099414.11345
  22655384.9304   22655383.7624   39180587.94547  30539943.84545  23220451.1724
  23220448.5864   29425102.53148  22937042.06645  21850270.0394   21850268.0084
 11  7 30  0 44  0.0000000  0  8G02G17G09G28G04G27G12G10
                                  21812041.22348
  17007447.36746                  21070159.6484                   21070155.3444
  13231228.24647  10319145.36346  22044897.3364                   22044895.4184
  30395178.46147  23695790.46745  22239968.8984                   22239966.9384
  11628291.54746   9067916.71044  23133541.0004   23133540.3634   12066885.56648
   9412417.25847  20146937.2664   20146935.3524   24501302.13747  19100117.41745
  22655556.4844   22655555.9184   39052527.13347  30440156.23445  23196081.8444
  23196079.6134   29317971.14148  22853563.08945  21829883.3054   21829881.6994
 11  7 30  0 44 30.0000000  0  8G02G17G09G28G04G27G12G10
                                  21732439.90248
  16945420.39346                  21055011.7504                   21055007.9224
  13236268.44147  10323072.76045  22045856.8754                   22045854.3404
  30395908.74647  23696359.48745  22240107.5634                   22240106.3554
  11679717.95747   9107989.15444  23143327.5474   23143326.4104   12071228.78148
   9415801.57747  20147763.6414   20147761.8594   24502587.51247  19101118.95745
  22655801.1804   22655800.4384   38924599.21147  30340472.18045  23171737.8134
  23171735.3404   29211220.66448  22770380.92645  21809569.6094   21809567.7624
 11  7 30  0 45  0.0000000  0  8G02G17G09G28G04G27G12G10
                                  21653210.12148
  16883682.93046                  21039934.7814                   21039930.7934
  13241407.10548  10327076.88245  22046834.6804                   22046832.1054
  30397184.75447  23697353.74745  22240350.2974                   22240349.2704
  11731446.46147   9148296.96444  23153171.7504   23153170.4064   12076008.73048
   9419526.20247  20148673.2974   20148671.2114   24504255.25847  19102418.45545
  22656118.7734   22656118.1294   38796808.38347  30240894.93445  23147420.0394
  23147417.3984   29104855.77048  22687499.21945  21789328.8674   21789327.1054
 11  7 30  0 45 30.0000000  0  8G02G17G09G28G04G27G12G10
                                  21574348.09448
  16822232.00546                  21024927.7034                   21024923.8404
  13246641.16848  10331155.33445  22047830.6024                   22047828.3054
  30399000.68047  23698768.70745  22240695.5704                   22240694.7704
  11783471.59047   9188835.96044  23163071.6954   23163070.8094   12081219.69148
   9423586.67647  20149664.8444   20149662.9774   24506299.71147  19104011.49645
  22656507.9224   22656507.1054   38669153.21547  30141423.40145  23123127.9614
  23123126.0514   28998875.81648  22604917.44745  21769161.6024   21769159.9304
 11  7 30  0 46  0.0000000  0  8G02G17G09G28G04G27G12G10
                                  21495853.11348
  16761067.10146                  21009990.8984                   21009986.8714
  13251969.98848  10335307.62946  22048844.8594                   22048842.2234
  30401353.06347  23700601.69645  22241143.8204                   22241142.7934
  11835790.73047   9229604.03744  23173027.7664   23173026.4454   12086858.66448
   9427980.67947  20150737.9384   20150735.9884   24508717.84447  19105895.68845
  22656967.9384   22656967.1214   38541635.15647  30042058.70945  23098861.6094
  23098859.8834   28893282.68048  22522637.12845  21749067.6804   21749066.0744
 11  7 30  0 46 30.0000000  0  8G02G17G09G28G04G27G12G10
                                  21417728.98448
  16700191.17546                  20995124.1564                   20995120.3524
  13257397.71948  10339536.98946  22049877.9304                   22049875.5204
  30404243.42247  23702853.90845  22241693.4614                   22241692.8484
  11888406.74647   9270603.43844  23183040.0084   23183039.0904   12092927.29748
   9432709.48346  20151892.7274   20151890.9804   24511511.49647  19108072.52045
  22657499.9534   22657498.4964   38414260.28147  29942805.59445  23074623.6954
  23074621.3244   28788083.22748  22440663.55345  21729048.8524   21729047.5354
 11  7 30  0 47  0.0000000  0  8G02G17G09G28G04G27G12G10
                                  21339973.26648
  16639602.31446                  20980327.8594                   20980323.8324
  13262922.30147  10343841.80946  22050929.0394                   22050926.7234
  30407666.78147  23705521.41545  22242345.1254                   22242343.9414
  11941315.45747   9311830.94044  23193108.3444   23193106.9224   12099420.79348
   9437769.33447  20153128.7734   20153126.7974   24514675.93447  19110538.27445
  22658101.7664   22658100.9924   38287028.21947  29843663.75045  23050412.3364
  23050409.6954   28683278.29348  22358997.40245  21709105.3594   21709103.5434
 11  7 30  0 47 30.0000000  0  8G02G17G09G28G04G27G12G10
                                  21262585.80148
  16579300.41746                  20965601.3364                   20965597.1254
  13268543.82848  10348222.19246  22051998.6334                   22051996.7504
  30411620.75447  23708602.38845  22243097.3754                   22243096.3984
  11994515.21547   9353285.22844  23203232.3754   23203230.7734   12106336.68448
   9443158.33647  20154444.5234   20154442.6644   24518208.90647  19113291.20645
  22658774.1024   22658773.2074   38159941.35247  29744635.04345  23026227.7974
  23026225.8164   28578870.96947  22277641.08145  21689237.0314   21689235.8484
 11  7 30  0 48  0.0000000  0  9G02G17G09G28G04G27G12G10G05
                                  21185562.68448
  16519282.41346                  20950944.3984                   20950940.2584
  13274259.03547  10352675.57645  22053085.9694                   22053084.0474
  30416098.96947  23712091.87545  22243949.3754                   22243948.2424
  12048000.44947   9394961.94144  23213410.3204   23213409.3484   12113669.18848
   9448871.97547  20155839.9384   20155837.8094   24522104.43047  19116326.62445
  22659515.5004   22659514.4384   38032997.94547  29645718.15645  23002071.5164
  23002069.3094   28474860.10948  22196593.69446  21669444.5164   21669442.8754
  47006914.56647  36640180.66144  24270420.3284                   24270420.7074
 11  7 30  0 48 30.0000000  0  9G02G17G09G28G04G27G12G10G05
                                  21108898.79748
  16459544.34346                  20936355.8834                   20936351.8874
  13280062.43447  10357197.68346  22054190.4144                   22054188.6644
  30421093.67247  23715983.80545  22244900.3284                   22244899.1374
  12101764.56647   9436855.99244  23223641.1724   23223640.2114   12121410.78148
   9454904.38047  20157313.1174   20157310.8554   24526355.25046  19119638.91845
  22660324.7114   22660323.0864   37906195.35947  29546910.96945  22977941.3984
  22977939.2624   28371243.46548  22115853.49246  21649727.1254   21649725.5664
  46866034.72346  36530404.31444  24243611.5234                   24243612.2544
 11  7 30  0 49  0.0000000  0  9G02G17G09G28G04G27G12G10G05
                                  21032593.71148
  16400085.84246                  20921835.3984                   20921831.5394
  13285954.32447  10361788.73746  22055311.6804                   22055309.9924
  30426601.97347  23720275.94845  22245948.1414                   22245947.4804
  12155805.60247   9478965.83144  23233924.9534   23233923.9304   12129558.73848
   9461253.42846  20158863.5394   20158861.9614   24530958.75047  19123226.02145
  22661200.9534   22661199.5824   37779535.49647  29448215.01945  22953839.1564
  22953836.8954   28268023.77048  22035422.59045  21630084.9614   21630083.5474
  46725100.19946  36420585.38244  24216791.9064                   24216792.6374
 11  7 30  0 49 30.0000000  0  9G02G17G09G28G04G27G12G10G05
                                  20956648.94148
  16340908.10546                  20907383.3984                   20907379.5004
  13291936.52048  10366450.15746  22056450.9454                   22056447.9534
  30432623.11747  23724967.70045  22247094.5474                   22247092.7544
  12210123.80546   9521291.63244  23244261.2664   23244260.0824   12138112.60548
   9467918.78046  20160491.0944   20160489.4774   24535914.55547  19127087.64245
  22662143.7504   22662142.7034   37653022.46147  29349633.47945  22929764.7114
  22929762.6844   28165205.78147  21955304.70545  21610518.6024   21610517.4144
  46584114.99246  36310726.91644  24189963.4304                   24189964.2234
 11  7 30  0 50  0.0000000  0  9G02G17G09G28G04G27G12G10G05
                                  20881070.38348
  16282015.73846                  20893001.2194                   20892997.3444
  13298015.28147  10371186.82945  22057607.2974                   22057604.7234
  30439159.94946  23730061.29245  22248337.8834                   22248336.7854
  12264723.02347   9563836.41444  23254651.4534   23254650.0004   12147075.69148
   9474903.00046  20162196.9454   20162194.9654   24541225.97346  19131226.36245
  22663154.5474   22663153.9104   37526664.13347  29251172.48545  22905719.2584
  22905717.2854   28062797.84847  21875506.35945  21591031.2274   21591029.8714
  46443087.36746  36200835.43744  24163126.9774                   24163127.7234
 11  7 30  0 50 30.0000000  0  9G02G17G09G28G04G27G12G10G05
                                  20805861.10548
  16223411.11546                  20878689.5004                   20878685.7894
  13304194.53147  10376001.79045  22058783.0554                   22058780.9414
  30446213.60546  23735557.61545  22249680.9534                   22249678.7704
  12319605.26246   9606601.71944  23265095.1254   23265093.8244   12156449.33648
   9482207.12546  20163980.6724   20163978.8404   24546894.12946  19135643.05845
  22664233.1174   22664232.4064   37400466.37147  29152836.59545  22881704.6804
  22881702.7074   27960806.37547  21796032.50245  21571623.0554   21571621.5824
  46302023.33246  36090915.55644  24136282.7504                   24136283.6454
 11  7 30  0 51  0.0000000  0  9G02G17G09G28G04G27G12G10G05
                                  20731018.68048
  16165092.35046                  20864447.6954                   20864443.4844
  13310472.25447  10380893.50646  22059977.5704                   22059975.6024
  30453779.28947  23741452.90245  22251120.0004                   22251119.0434
  12374766.47346   9649584.40444  23275592.1024   23275590.6334   12166228.75848
   9489827.43846  20165841.4304   20165839.8364   24552914.50047  19140334.20945
  22665378.5554   22665377.9534   37274429.18847  29054625.82045  22857720.7974
  22857718.2504   27859232.35248  21716883.94545  21552294.2344   21552292.9924
  46160923.49646  35980967.86444  24109432.4224                   24109432.9024
 11  7 30  0 51 30.0000000  0  9G02G17G09G28G04G27G12G10G05
                                  20656548.78548
  16107063.87346                  20850276.2274                   20850272.2664
  13316853.92248  10385866.22946  22061192.1804                   22061189.8594
  30461859.94147  23747749.49245  22252657.9144                   22252656.7234
  12430210.69946   9692787.63444  23286142.2194   23286141.0634   12176417.52348
   9497766.72446  20167780.4694   20167778.8014   24559290.50447  19145302.50245
  22666591.8754   22666591.2774   37148560.63347  28956546.45645  22833768.3134
  22833765.7704   27758083.92648  21638067.03446  21533046.3054   21533044.9804
  46019795.72746  35870998.28144  24082576.4064                   24082576.7034
 11  7 30  0 52  0.0000000  0  9G02G17G09G28G04G27G12G10G05
                                  20582452.35948
  16049326.40946                  20836176.3754                   20836172.2464
  13323341.28147  10390921.31446  22062425.9384                   22062424.9344
  30470453.97747  23754446.12045  22254293.6804                   22254292.1804
  12485937.16446   9736210.76743  23296746.4844   23296745.9534   12187014.28948
   9506023.93046  20169797.1644   20169795.4224   24566020.99646  19150546.97445
  22667873.3834   22667871.9344   37022863.91847  28858600.99345  22809849.4614
  22809846.8014   27657365.07448  21559584.83346  21513880.4144   21513878.4454
  45878643.99246  35761010.09644  24055716.2114                   24055716.5514
 11  7 30  0 52 30.0000000  0  9G02G17G09G28G04G27G12G10G05
                                  20508720.03548
  15991872.65046                  20822145.2814                   20822141.1804
  13329925.57447  10396051.92346  22063679.5314                   22063677.4494
  30479549.72747  23761533.66345  22256024.2974                   22256023.1564
  12541935.57446   9779845.79843  23307403.2424   23307402.4844   12198007.74648
   9514590.24846  20171888.9694   20171887.1214   24573094.77347  19156058.96845
  22669218.9304   22669218.4104   36897332.60947  28760784.40445  22785961.4924
  22785959.5044   27557069.73448  21481432.65846  21494794.2814   21494792.9304
  45737462.01647  35650998.25844  24028850.2034                   24028850.4024
 11  7 30  0 53  0.0000000  0  9G02G17G09G28G04G27G12G10G05
                                  20435357.02748
  15934706.69446                  20808184.9224                   20808181.0394
  13336612.51247  10401262.52546  22064952.0864                   22064949.9414
  30489149.43047  23769013.90645  22257851.1414                   22257849.9964
  12598209.03146   9823695.20443  23318111.9924   23318110.8404   12209400.52748
   9523467.72946  20174056.7274   20174055.1764   24580514.53147  19161840.55345
  22670630.9534   22670630.8014   36771974.02047  28663102.42745  22762106.1804
  22762104.0904   27457205.84048  21403616.65746  21475791.3284   21475789.8134
  45596257.18447  35540968.67544  24001979.6884                   24001979.8324
 11  7 30  0 53 30.0000000  0  9G02G17G09G28G04G27G12G10G05
                                  21937787.20748
  17105431.51346                  21094088.2734                   21094083.8874
  14918823.46947  11634154.16046  22366036.7344                   22366034.4264
  32074671.98047                  25004485.98745  22559566.1954   22559565.0474
  14230175.71546  11095357.47544  23628664.5004   23628663.4104   13796611.60948
  10760255.58246  20476093.1174   20476091.2704   26163699.53147  20395491.14945
  22971901.1724   22971900.3014   38222216.43847  29793161.47445  23038078.1334
  23038076.0864   28933201.40647  22553743.11146  21756663.5784   21756662.6374
  47030458.61347  36658528.35144  24274899.0864                   24274898.8954
 11  7 30  0 54  0.0000000  0  9G02G17G09G28G04G27G12G10G05
                                  21865165.14848
  17048842.91646                  21080268.2664                   21080264.1804
  14925719.05547  11639527.32046  22367349.0864                   22367346.3714
  32085274.98847                  25012748.04445  22561583.8834   22561582.7234
  14286997.48046  11139634.09044  23639477.9924   23639476.3674   13808799.18448
  10769752.38946  20478412.4454   20478410.8594   26171807.49246  20401808.99645
  22973444.2034   22973443.5044   38097213.43847  29695756.57045  23014290.8284
  23014288.7504   28834212.24248  22476608.71446  21737826.7504   21737825.0864
  46889219.33647  36548471.92844  24248022.3834                   24248022.0004
 11  7 30  0 54 30.0000000  0  9G02G17G09G28G04G27G12G10G05
                                  21792913.34448
  16992542.82546                  21066519.1174                   21066515.0864
  14932720.44547  11644982.93045  22368681.3524                   22368679.2464
  32096375.81647                  25021398.00345  22563696.1484   22563695.3484
  14344091.10947  11184122.55744  23650342.5944   23650341.2114   13821381.00448
  10779556.39547  20480806.7894   20480804.6644   26180256.27746  20408392.40745
  22975051.4924   22975051.2624   37972392.07447  29598493.19345  22990538.3984
  22990536.1094   28735664.99648  22399818.68846  21719073.7114   21719072.2384
  46747967.44546  36438405.65644  24221142.4924                   24221142.9574
 11  7 30  0 55  0.0000000  0  9G02G17G09G28G04G27G12G10G05
                                  21721028.92648
  16936529.00646                  21052840.1414                   21052836.0634
  14939823.85247  11650518.03945  22370033.2974                   22370030.8674
  32107968.34447                  25030431.08845  22565902.2734   22565901.2664
  14401451.68846  11228819.05544  23661257.1564   23661256.1884   13834351.61348
  10789663.35747  20483274.9384   20483273.0164   26189040.52747  20415237.24145
  22976723.4534   22976722.9694   37847751.89147  29501370.99945  22966820.1254
  22966818.1054   28637559.29748  22323372.73045  21700404.9774   21700403.1684
  46606702.20746  36328328.97344  24194260.7504                   24194260.7624
 11  7 30  0 55 30.0000000  0  9G02G17G09G28G04G27G12G10G05
                                  21649512.00048
  16880801.54246                  21039230.8364                   21039226.7934
  14947030.80147  11656133.82445  22371404.2584                   22371402.1564
  32120050.42247                  25039845.66145  22568201.5084   22568200.7154
  14459078.27347  11273722.82744  23672223.8754   23672222.4414   13847709.52348
  10800072.10246  20485816.8914   20485814.9694   26198158.37547  20422342.01145
  22978458.3364   22978458.1094   37723295.66047  29404392.14645  22943136.9774
  22943134.7234   28539898.74248  22247273.61246  21681820.5784   21681818.7584
  46465426.73046  36218244.34744  24167376.0234                   24167377.2504
 11  7 30  0 56  0.0000000  0  9G02G17G09G28G04G27G12G10G05
                                  21578366.74648
  16825363.69546                  21025692.2734                   21025688.2664
  14954346.04747  11661834.00445  22372796.1254                   22372793.9924
  32132623.82046                  25049643.07845  22570593.7274   22570592.9534
  14516973.55147  11318835.96144  23683241.0084   23683240.1254   13861456.44548
  10810783.98346  20488432.9614   20488430.9104   26207611.93847  20429708.35745
  22980257.5004   22980257.3164   37599030.19547  29307561.94045  22919489.3284
  22919487.3524   28442690.47348  22171526.95246  21663322.3524   21663320.6804
  46324148.31346  36108157.43844  24140491.3054                   24140492.2704
 11  7 30  0 56 30.0000000  0  9G02G17G09G28G04G27G12G10G05
                                  21507589.75048
  16770212.80846                  21012223.8204                   21012220.0164
  14961766.90247  11667616.48045  22374208.3444                   22374206.3954
  32145682.71947                  25059818.79545  22573079.1954   22573077.7894
  14575132.71547  11364154.71844  23694308.2974   23694307.4064   13875587.03948
  10821794.84546  20491121.6094   20491119.6684   26217395.74647  20437332.07545
  22982119.6174   22982119.0474   37474955.07047  29210880.04545  22895879.1484
  22895876.8594   28345934.07048  22096132.37946  21644910.4064   21644908.8284
  46182866.66046  35998067.96944  24113606.6174                   24113606.3484
 11  7 30  0 57  0.0000000  0  9G02G17G09G28G04G27G12G10G05
                                  21437182.38748
  16715349.94346                  20998825.7344                   20998821.8834
  14969295.12547  11673482.61745  22375641.0634                   22375639.2974
  32159225.75047                  25070371.75945  22575656.0394   22575654.8674
  14633555.43447  11409678.82644  23705426.1564   23705425.0594   13890100.64848
  10833104.14647  20493883.4924   20493881.7114   26227508.93447  20445212.42045
  22984043.8834   22984043.4454   37351073.78147  29114349.20145  22872305.7894
  22872303.2304   28249633.89547  22021093.31246  21626585.0004   21626583.2344
  46041585.68446  35887979.05044  24086721.6884                   24086721.7074
 11  7 30  0 57 30.0000000  0  9G02G17G09G28G04G27G12G10G05
                                  21367144.35948
  16660774.88046                  20985498.1644                   20985493.9804
  14976931.36347  11679432.90945  22377094.2344                   22377092.7424
  32173250.05547                  25081299.75145  22578324.8134   22578323.9104
  14692239.85947  11455406.91644  23716593.1174   23716592.1054   13904994.73848
  10844709.93146  20496717.9844   20496715.9734   26237949.17247  20453347.60345
  22986030.5944   22986029.7584   37227388.91847  29017971.39645  22848768.8054
  22848766.3954   28153792.66047  21946411.86246  21608346.9144   21608345.4884
  45900308.54747  35777893.10244  24059837.4614                   24059837.9804
 11  7 30  0 58  0.0000000  0  9G02G17G09G28G04G27G12G10G05
                                  21297474.57848
  16606486.75346                  20972240.1254                   20972236.1764
  14984674.81647  11685466.75445  22378568.0634                   22378565.9734
  32187751.95747                  25092599.88645  22581084.5634   22581083.6604
  14751183.20747  11501336.74344  23727810.0314   23727809.2774   13920266.08248
  10856609.67646  20499623.8204   20499622.1684   26248713.02347  20461734.97245
  22988078.9144   22988078.4384   37103902.01647  28921747.86145  22825269.6174
  22825267.7034   28058412.19547  21872089.45746  21590197.1024   21590195.1254
  45759036.91447  35667811.50444  24032954.3754                   24032954.6374
 11  7 30  0 58 30.0000000  0  9G02G17G09G28G04G27G12G10G05
                                  21228171.32848
  16552484.23646                  20959052.2194                   20959048.2704
  14992524.86347  11691583.64945  22380061.6484                   22380059.6454
  32202727.23447                  25104268.91145  22583934.0394   22583933.3984
  14810382.51646  11547465.99644  23739075.0634   23739073.8674   13935911.03148
  10868800.55346  20502601.0704   20502598.9184   26259796.66047  20470371.52545
  22990187.7114   22990187.5004   36980613.84847  28825679.17445  22801809.5634
  22801806.5984   27963493.54747  21798126.91946  21572134.3524   21572132.9104
  45617771.91447  35557734.99144  24006072.7504                   24006072.7274
 11  7 30  0 59  0.0000000  0  9G02G17G09G28G04G27G12G10G05
                                  21159235.22348
  16498767.81246                  20945934.3984                   20945929.8404
  15000482.18448  11697784.14345  22381576.0004                   22381573.6484
  32218173.98047                  25116305.28945  22586873.4924   22586872.7114
  14869836.85546  11593793.94144  23750389.0084   23750388.2194   13951927.84448
  10881281.17746  20505649.2504   20505647.0434   26271198.67247  20479256.15445
  22992357.8204   22992357.1524   36857527.78547  28729767.98745  22778386.2974
  22778383.8914   27869040.59047  21724527.23946  21554160.3284   21554158.9414
  45476517.22347  35447666.54144  23979192.7194                   23979192.4924
 11  7 30  0 59 30.0000000  0  9G02G17G09G28G04G27G12G10G05
                                  21090665.08248
  16445336.54946                  20932885.5784                   20932881.5704
  15008546.39847  11704067.92045  22383110.7114                   22383108.7034
  32234088.18047                  25128705.91845  22589902.8444   22589901.6214
  14929543.58647  11640318.62644  23761751.4304   23761750.7114   13968313.46948
  10894049.19646  20508767.2114   20508765.3984   26282915.75847  20488386.28245
  22994587.3284   22994586.7304   36734645.69147  28634015.74545  22755002.9304
  22755000.3714   27775055.00047  21651291.76146  21536275.3524   21536273.4694
  45335274.63347  35337607.47444  23952314.9924                   23952314.6374
 11  7 30  1  0  0.0000000  0  9G02G17G09G28G04G27G12G10G05
                                  21022462.37948
  16392191.60346                  20919907.0314                   20919902.9884
  15016719.94147  11710436.90545  22384665.8674                   22384664.0204
  32250468.51647                  25141469.77545  22593019.0234   22593018.6564
  14989502.54746  11687039.84743  23773160.8364   23773160.6844   13985067.12148
  10907103.97746  20511955.2664   20511953.0704   26294947.27047  20497761.45545
  22996877.1564   22996877.0704   36611971.88347  28538425.80245  22731658.6484
  22731656.1644   27681541.57847  21578424.18446  21518480.5704   21518478.8404
  45194048.84847  35227561.52444  23925440.6484                   23925440.3014
 11  7 30  1  0 30.0000000  0  9G02G17G09G28G04G27G12G10G05
                                  20954627.62148
  16339333.36746                  20906998.6174                   20906994.2854
  15025004.18847  11716892.13345  22386242.4064                   22386240.3404
  32267313.38347                  25154595.63245  22596224.6334   22596224.0744
  15049712.99646  11733957.00943  23784618.0554   23784617.2734   14002187.57448
  10920444.58946  20515212.9774   20515211.3054   26307291.70347  20507380.42344
  22999226.2894   22999225.7074   36489509.63347  28443000.68445  22708354.8914
  22708352.9574   27588503.93447  21505927.35546  21500776.0474   21500774.1414
  45052843.46147  35117531.44644  23898569.6644                   23898569.6134
 11  7 30  1  1  0.0000000  0  9G02G17G09G28G04G27G12G10G05
                                  20887157.95348
  16286759.60146                  20894159.4614                   20894155.1374
  15033396.85548  11723431.85145  22387839.3914                   22387837.5594
  32284617.16047                  25168079.02845  22599517.6564   22599516.9454
  15110170.55546  11781066.69643  23796123.2274   23796121.7974   14019669.60248
  10934066.94546  20518539.6724   20518537.6844   26319943.85247  20517239.18445
  23001633.9224   23001633.7384   36367258.55547  28347740.14045  22685091.5314
  22685088.8094   27495941.70747  21433800.97146  21483161.5004   21483160.1254
  44911658.46147  35007517.25344  23871702.7974                   23871702.7424
 11  7 30  1  1 30.0000000  0  9G02G17G09G28G04G27G12G10G05
                                  20820054.88748
  16234471.51446                  20881390.0944                   20881385.8754
  15041900.45347  11730058.01145  22389457.8364                   22389456.1214
  32302378.73847                  25181919.17845  22602897.7894   22602896.6684
  15170875.23446  11828369.01443  23807675.1724   23807673.6414   14037512.94948
  10947970.84046  20521935.2974   20521933.2974   26332903.24247  20527337.36745
  23004099.9924   23004099.6134   36245223.07847  28252647.57745  22661868.7814
  22661866.7464   27403859.77348  21362048.83646  21465639.3984   21465637.6054
  44770498.66447  34897522.69244  23844841.1954                   23844840.5514
 11  7 30  1  2  0.0000000  0  9G02G17G09G28G04G27G12G10G05
                                  20753316.07848
  16182467.27246                  20868690.2814                   20868686.0234
  15050513.20347  11736769.22045  22391096.7814                   22391095.0864
  32320593.15247                  25196112.20145  22606363.3054   22606362.6214
  15231823.28546  11875860.88843  23819272.8134   23819271.9024   14055713.29348
  10962152.91746  20525398.6414   20525396.9144   26346165.39147  20537671.43745
  23006624.2814   23006623.1454   36123403.82047  28157723.50145  22638687.2814
  22638685.1724   27312258.89548  21290671.56646  21448207.9844   21448206.6764
  44629364.98447  34787548.51744  23817984.0704                   23817984.7194
 11  7 30  1  2 30.0000000  0  9G02G17G09G28G04G27G12G10G05
                                  20686942.78948
  16130747.84446                  20856060.1174                   20856055.5744
  15059237.32847  11743567.21946  22392757.0554                   22392754.8284
  32339259.15247                  25210657.05745  22609916.1254   22609914.9844
  15293014.09046  11923541.95743  23830918.1414   23830916.6294   14074269.70748
  10976612.44946  20528929.8674   20528927.6134   26359729.44147  20548240.77845
  23009205.2424   23009204.7464   36001804.84047  28062971.08745  22615547.4844
  22615545.8984   27221142.90247  21219672.11746  21430869.2114   21430867.8164
  44488261.80947  34677598.07744  23791132.9774                   23791132.7504
 11  7 30  1  3  0.0000000  0  9G02G17G09G28G04G27G12G10G05
                                  20620934.99248
  16079313.21446                  20843499.0314                   20843495.0044
  15068073.52048  11750452.54745  22394438.3364                   22394436.4804
  32358374.08647                  25225551.77245  22613553.4924   22613552.4924
  15354446.48446  11971411.30043  23842607.6484   23842606.9694   14093180.31348
  10991347.97446  20532528.4384   20532526.6294   26373593.20347  20559043.65344
  23011842.9774   23011842.5164   35880428.94547  27968392.51046  22592450.6334
  22592448.5234   27130514.89847  21149052.93846  21413623.5394   21413622.2624
  44347192.20747  34567673.82244  23764288.2974                   23764288.5204
 11  7 30  1  3 30.0000000  0  9G02G17G09G28G04G27G12G10G05
                                  20555292.57048
  16028163.27746                  20831007.4224                   20831003.4774
  15077022.21947  11757425.54445  22396141.0004                   22396139.4534
  32377935.05547                  25240794.02545  22617275.6564   22617274.7664
  15416118.74646  12019467.55643  23854343.7504   23854342.6024   14112442.86748
  11006357.74546  20536193.8754   20536192.0234   26387754.38747  20570078.28644
  23014538.3524   23014537.7154   35759278.73047  27873989.76946  22569396.4384
  22569394.1414   27040377.43047  21078815.96946  21396470.7424   21396468.9774
  44206159.30147  34457778.13544  23737450.8524                   23737450.9264
 11  7 30  1  4  0.0000000  0  9G02G17G09G28G04G27G12G10G05
                                  20490013.84048
  15977296.74747                  20818585.5474                   20818581.4694
  15086082.52347  11764485.50545  22397864.9534                   22397863.2034
  32397937.79747                  25256380.53145  22621082.2274   22621080.7234
  15478027.57446  12067708.15943  23866124.3834   23866122.9964   14132053.38348
  11021638.64646  20539925.9144   20539923.7424   26402209.17647  20581341.68545
  23017288.7344   23017288.3834   35638355.32847  27779763.76145  22546385.9384
  22546383.1094   26950731.84847  21008962.30946  21379411.3834   21379410.2464
  44065164.24647  34347911.97144  23710620.5004                   23710619.9064
 11  7 30  1  4 30.0000000  0  9G02G17G09G28G04G27G12G10G05
                                  20425097.20748
  15926712.37546                  20806232.2814                   20806228.3054
  15095254.20347  11771632.23545  22399610.1334                   22399608.8404
  32418378.32047                  25272308.16245  22624971.8204   22624970.9454
  15540170.27747  12116130.96543  23877950.0944   23877948.4844   14152008.98448
  11037188.44946  20543723.1484   20543721.3984   26416954.28147  20592831.33344
  23020094.8284   23020094.6564   35517660.36347  27685715.74946  22523417.8204
  22523416.0314   26861579.96148  20939493.33446  21362446.5864   21362445.1994
  43924208.89147  34238076.72644  23683797.1414                   23683797.3164
 11  7 30  1  5  0.0000000  0  9G02G17G09G28G04G27G12G10G05
                                  20360545.03548
  15876412.01047                  20793948.5784                   20793944.4734
  15104540.01247  11778867.90445  22401377.8914                   22401375.7974
  32439255.77347                  25288576.26145  22628944.9304   22628943.4264
  15602547.21946  12164736.28743  23889819.8594   23889818.5944   14172309.35548
  11053006.90646  20547586.3594   20547583.9384   26431989.23447  20604546.81844
  23022956.3364   23022956.1414   35397198.46147  27591849.34946  22500495.0084
  22500492.6884   26772926.58248  20870412.81146  21345576.7584   21345574.7304
  43783298.54347  34128276.53244  23656982.3134                   23656982.4734
 11  7 30  1  5 30.0000000  0  9G02G17G09G28G04G27G12G10G05
                                  20296352.31648
  15826391.74246                  20781732.7034                   20781728.6684
  15113936.19548  11786189.59645  22403165.5314                   22403164.1214
  32460563.06347                  25305179.29545  22632999.5164   22632998.1644
  15665152.63346  12213519.64543  23901733.4304   23901732.4534   14192948.04748
  11069088.99546  20551513.7974   20551511.5204   26447307.35947  20616482.97444
  23025870.8834   23025870.3874   35276968.12147  27498163.42145  22477616.1564
  22477613.6214   26684769.98048  20801719.39246  21328800.9304   21328798.9184
  43642432.03147  34018510.51844  23630176.5474                   23630176.5394
 11  7 30  1  6  0.0000000  0  9G02G17G09G28G04G27G12G10G05
                                  20232523.68848
  15776655.15846                  20769586.4144                   20769582.5354
  15123448.02047  11793601.39145  22404975.7344                   22404974.0824
  32482302.32047                  25322118.93445  22637136.1804   22637135.0944
  15727989.53146  12262483.43143  23913691.3204   23913689.6644   14213927.58248
  11085436.67246  20555506.0554   20555503.8594   26462911.12147  20628641.70044
  23028840.0394   23028839.4654   35156976.88347  27404663.76345  22454782.1644
  22454779.7274   26597117.52048  20733418.80446  21312121.1804   21312119.2854
  43501616.93447  33908784.57144  23603380.5634                   23603380.2464
 11  7 30  1  6 30.0000000  0  9G02G17G09G28G04G27G12G10G05
                                  20169060.51648
  15727203.36646                  20757510.1254                   20757505.8444
  15133077.82447  11801105.11645  22406808.5634                   22406806.1414
  32504471.95747                  25339393.91745  22641355.1024   22641353.9064
  15791057.42246  12311627.18243  23925692.3594   23925691.1844   14235247.39848
  11102049.50246  20559563.0944   20559561.0864   26478799.68047  20641022.35344
  23031863.4304   23031862.9414   35037229.11347  27311353.83045  22431994.7034
  22431992.4774   26509973.37148  20665514.29646  21295537.9844   21295536.1844
  43360857.86747  33799102.28044  23576594.8054                   23576594.4924
 11  7 30  1  7  0.0000000  0  9G02G17G09G28G04G27G12G10G05
                                  20105960.27048
  15678034.35746                  20745502.4144                   20745498.5664
  15142824.19148  11808699.66246  22408663.5004                   22408660.9064
  32527066.72747                  25357000.17145  22645654.8204   22645653.8134
  15854352.58246  12360948.02443  23937737.7734   23937735.7074   14256903.11748
  11118924.07846  20563683.9304   20563681.6724   26494968.50847  20653621.37245
  23034940.7734   23034940.2664   34917725.18447  27218233.91345  22409254.0944
  22409251.8404   26423338.13348  20598006.35246  21279052.0554   21279049.9344
  43220155.75847  33689464.35545  23549820.3984                   23549820.1564
 11  7 30  1  7 30.0000000  0  9G02G17G09G28G04G27G12G10G05
                                  20043221.00048
  15629146.62946                  20733563.4534                   20733559.1764
  15152686.00047  11816384.17645  22410539.6254                   22410537.6764
  32550082.15646                  25374934.22845  22650034.5004   22650033.2344
  15917871.66846  12410443.38343  23949824.1954   23949823.4804   14278890.73848
  11136057.28446  20567867.9454   20567866.1024   26511413.73447  20666435.78645
  23038070.2664   23038069.8164   34798466.28947  27125304.92845  22386560.1644
  22386557.4494   26337212.89548  20530895.81246  21262663.0634   21262660.9224
  43079511.97747  33579871.88444  23523056.4694                   23523056.0394
 11  7 30  1  8  0.0000000  0  9G02G17G09G28G04G27G12G10G05
                                  19980844.29748
  15580541.41847                  20721693.5944                   20721689.2624
  15162665.59047  11824160.46445  22412438.4534                   22412437.1134
  32573517.04347                  25393195.12545  22654494.0944   22654493.3874
  15981614.64846  12460113.13543  23961954.3444   23961953.0784   14301209.82848
  11153448.76546  20572115.1644   20572112.9654   26528134.57047  20679464.98444
  23041251.8134   23041251.8484   34679456.65647  27032570.17445  22363912.9614
  22363910.7074   26251601.96548  20464186.03346  21246371.5394   21246369.8094
  42938931.39847  33470328.66545  23496304.9774                   23496304.6054
 11  7 30  1  8 30.0000000  0  9G02G17G09G28G04G27G12G10G05
                                  19918827.48448
  15532216.64446                  20709892.2504                   20709888.5084
  15172761.35547  11832027.27645  22414359.3134                   22414358.3674
  32597366.56347                  25411779.09945  22659032.6564   22659031.9304
  16045577.77046  12509954.43443  23974125.7114   23974125.1254   14323856.11348
  11171095.21046  20576424.5634   20576422.7974   26545126.59047  20692705.43644
  23044485.7584   23044485.4574   34560697.14547  26940030.31245  22341313.6564
  22341311.2304   26166505.69948  20397877.28446  21230178.1804   21230176.6804
  42798414.52047  33360835.05944  23469565.5554                   23469565.0864
 11  7 30  1  9  0.0000000  0  8G02G17G09G04G27G12G10G05
                                  19857169.62948
  15484171.57547                  20698159.0234                   20698154.9884
  15182973.34447  11839984.66045  22416302.7584                   22416301.5704
  32621626.78547  25430683.11545  22663648.9384   22663648.4344   14346826.69548
  11188994.35546  20580796.0944   20580793.8834   26562386.66047  20706154.78144
  23047769.9694   23047769.7384   34442189.34047  26847686.59445  22318762.5474
  22318760.3014   26081925.80948  20331970.91346  21214083.5084   21214081.9884
  42657963.83647  33251393.04744  23442838.0164                   23442837.8874
 11  7 30  1  9 30.0000000  0  8G02G17G09G04G27G12G10G05
                                  19795873.44948
  15436408.32847                  20686494.9614                   20686490.6564
  15193305.43847  11848035.62045  22418268.8754                   22418267.2504
  32646297.66447  25449907.12545  22668343.6954   22668343.3594   14370122.37948
  11207146.81646  20585229.0704   20585227.2504   26579915.26247  20719813.37644
  23051105.8364   23051105.1844   34323938.77747  26755543.31445  22296260.4924
  22296257.7464   25997868.10548  20266471.43446  21198087.7504   21198086.0434
  42517585.34847  33142007.30644  23416124.7974                   23416124.7544
 11  7 30  1 10  0.0000000  0  8G02G17G09G04G27G12G10G05
                                  19734946.68048
  15388932.92746                  20674900.5864                   20674896.8014
  15203766.00447  11856186.69845  22420259.8524                   22420257.7774
  32671384.54747  25469455.30245  22673117.5084   22673116.9804   14393749.10948
  11225557.23546  20589725.0394   20589723.0124   26597718.11347  20733685.66144
  23054493.2114   23054493.1054   34205956.48848  26663609.07946  22273809.0004
  22273806.7544   25914343.16048  20201387.10146  21182193.4614   21182191.5554
  42377290.19547  33032686.44944  23389427.6724                   23389427.0744
 11  7 30  1 10 30.0000000  0  8G02G17G09G04G27G12G10G05
                                  19674385.16448
  15341742.13746                  20663376.6644                   20663372.3244
  15214352.09847  11864435.57145  22422274.4614                   22422272.2974
  32696880.64147  25489322.34845  22677969.6254   22677969.1414   14417700.65648
  11244220.76746  20594282.8134   20594280.8524   26615788.92247  20747766.74244
  23057932.2584   23057932.0164   34088241.43047  26571883.08145  22251408.3284
  22251405.8674   25831349.55548  20136716.79346  21166400.3674   21166398.3364
  42237077.51647  32923429.90844  23362746.3594                   23362746.1684
 11  7 30  1 11  0.0000000  0  8G02G17G09G04G27G12G10G05
                                  19614192.38748
  15294838.68646                  20651921.9614                   20651917.6804
  15225068.18047  11872785.73945  22424313.6174                   22424310.9184
  32722786.56347  25509508.71145  22682898.9064   22682898.5084   14441978.65248
  11263138.67446  20598902.9534   20598901.2304   26634129.12147  20762057.77144
  23061422.2424   23061421.5594   33970800.25048  26480370.50246  22229060.3054
  22229057.5044   25748893.54348  20072465.37446  21150709.2664   21150707.6294
  42096954.29747  32814243.05845  23336081.4924                   23336081.2424
 11  7 30  1 11 30.0000000  0  8G02G17G09G04G27G12G10G05
                                  19554357.00448
  15248213.72746                  20640535.7584                   20640531.4264
  15235903.97347  11881229.18345  22426375.5474                   22426373.3914
  32749088.41447  25530003.62045  22687904.5394   22687903.5434   14466570.03148
  11282300.77246  20603582.7424   20603580.8284   26652725.32047  20776548.24544
  23064961.1094   23064960.6884   33853624.55948  26389064.78446  22206762.6254
  22206759.6134   25666966.71948  20008626.32946  21135119.0634   21135117.1174
  41956912.72747  32705119.82844  23309431.8284                   23309431.9884
 11  7 30  1 12  0.0000000  0  8G02G17G09G04G27G12G10G05
                                  19494880.75048
  15201868.61346                  20629217.6024                   20629213.5824
  15246862.39847  11889768.19845  22428460.8204                   22428459.2194
  32775785.59447  25550806.56545  22692984.3444   22692983.7194   14491474.83648
  11301707.10246  20608321.6564   20608319.6024   26671577.32847  20791238.04744
  23068548.2814   23068548.5904   33736719.44947  26297969.91146  22184516.1724
  22184513.6214   25585573.72748  19945203.24146  21119630.4454   21119628.4414
  41816958.22347  32596064.41644  23282799.8054                   23282799.4144
 11  7 30  1 12 30.0000000  0  8G02G17G09G04G27G12G10G05
                                  19435763.94548
  15155803.58646                  20617968.3674                   20617963.8364
  15257944.70747  11898403.72945  22430569.8364                   22430567.4884
  32802875.59046  25571915.59445  22698139.9224   22698139.2624   14516691.42248
  11321356.37246  20613120.4384   20613118.2734   26690683.29747  20806125.75744
  23072184.1884   23072184.1414   33620088.10948  26207088.36646  22162321.8834
  22162319.3444   25504717.90247  19882198.72246  21104244.4384   21104241.9924
  41677094.23047  32487079.55645  23256184.4614                   23256184.1484
 11  7 30  1 13  0.0000000  0  8G02G17G09G04G27G12G10G05
                                  19377004.06648
  15110016.68147                  20606786.5784                   20606782.2344
  15269149.53547  11907134.72945  22432701.9694                   22432699.9264
  32830353.32447  25593326.76245  22703368.9064   22703368.3794   14542215.91448
  11341245.57446  20617977.6484   20617975.2584   26710038.78947  20821207.89044
  23075867.4304   23075867.3834   33503731.56348  26116420.93845  22140179.9534
  22140177.3364   25424399.61348  19819613.06146  21088960.3134   21088957.8594
  41537322.10247  32378166.27445  23229587.0004                   23229586.5394
 11  7 30  1 13 30.0000000  0  8G02G17G09G04G27G12G10G05
                                  19318598.12948
  15064505.57447                  20595672.3364                   20595668.2384
  15280474.44947  11915959.32945  22434857.3284                   22434855.7584
  32858212.60547  25615035.24045  22708670.7274   22708669.9064   14568042.58248
  11361370.22546  20622892.1884   20622890.0434   26729638.21547  20836480.08144
  23079597.5394   23079596.6604   33387649.06647  26025967.05746  22118090.5784
  22118087.4654   25344618.07048  19757445.65946  21073778.2974   21073776.0434
  41397641.47747  32269324.30045  23203006.7034                   23203006.0824
 11  7 30  1 14  0.0000000  0  8G02G17G09G04G27G12G10G05
                                  19260549.34848
  15019272.77647                  20584626.0084                   20584621.5554
  15291924.27047  11924881.23545  22437036.2194                   22437034.1294
  32886454.37547  25637041.75545  22714044.2894   22714043.8404   14594173.32048
  11381731.83446  20627864.6254   20627862.6174   26749483.09847  20851943.55644
  23083374.1024   23083373.3674   33271847.24647  25935731.87145  22096053.9614
  22096051.2034   25265379.16048  19695701.08146  21058699.6024   21058697.5984
  41258059.50047  32160559.20045  23176444.4384                   23176444.1254
 11  7 30  1 14 30.0000000  0  8G02G17G09G04G27G12G10G05
                                  19202856.89848
  14974317.62947                  20573647.3204                   20573642.8554
  15303499.30947  11933900.72145  22439238.6644                   22439237.0434
  32915075.19947  25659343.63744  22719490.7424   22719489.9654   14620605.63348
  11402328.43046  20632894.5864   20632892.4804   26769570.61347  20867596.08744
  23087196.7424   23087195.9924   33156328.75847  25845717.48746  22074071.2424
  22074068.8634   25186685.30948  19634381.20946  21043724.5004   21043722.2814
  41118579.01247  32051873.17245  23149902.4384                   23149901.7774
 11  7 30  1 15  0.0000000  0  8G02G17G09G04G27G12G10G05
                                  19145518.73048
  14929638.55547                  20562736.3754                   20562732.3094
  15315198.37547  11943016.86945  22441465.4064                   22441463.1684
  32944070.55147  25681937.37744  22725008.3444   22725007.4614   14647335.91848
  11423157.20646  20637981.3524   20637979.0044   26789896.64847  20883434.51644
  23091064.3984   23091064.0784   33041094.68047  25755924.71245  22052143.0554
  22052140.6094   25108537.11348  19573486.54446  21028853.0474   21028851.2584
  40979201.49247  31943267.38345  23123380.2894                   23123379.1294
 11  7 30  1 15 30.0000000  0  8G02G17G09G04G27G12G10G05
                                  19088531.73848
  14885233.11146                  20551892.0704                   20551888.1134
  15327019.71947  11952228.27445  22443714.4454                   22443712.8754
  32973434.67247  25704818.43944  22730596.5004   22730595.3984   14674358.90648
  11444214.06546  20643123.2894   20643121.2544   26810455.98847  20899454.71544
  23094976.5084   23094976.6884   32926145.02347  25666353.56945  22030268.7664
  22030266.0394   25030934.22348  19513016.78146  21014085.7894   21014083.9144
  40839927.20347  31834742.04545  23096876.6174                   23096876.0784
 11  7 30  1 16  0.0000000  0  8G02G17G09G04G27G12G10G05
                                  20607317.23848
  16068702.34546                  20840907.3364                   20840902.9844
  16914383.40647  13189135.04045  22745779.7974                   22745777.7814
  34578582.91447  26955583.23444  23036046.1724   23036045.0004   16277091.67648
  12693096.74046  20948113.2504   20948111.3834   28406665.44147  22143254.21744
  23398724.9774   23398725.2624   34386906.10947  26804608.97145  22308242.5474
  22308239.7304   26529301.38748  20680575.64046  21299215.5784   21299213.5744
  42276183.85247  32953903.14745  23370187.6724                   23370186.8554
 11  7 30  1 16 30.0000000  0  8G02G17G09G04G27G12G10G05
  20551035.66448  16024846.58447  20830197.1954                   20830193.1174
  16926455.63347  13198541.94945  22748076.8914                   22748075.0784
  34608679.20747  26979034.83144  23041773.1724                   23041771.9344
  16304698.17648                  12714608.28946                  20953366.8204
                  20953364.9454   28427688.44947  22159635.70444  23402725.5704
  23402726.0824   34272537.91847  26715490.90246                  22286479.0004
  22286476.0164   26452800.36748  20620964.46846  21284658.2114   21284655.9694
  42137129.80147  32845549.42145  23343725.9924                   23343725.6914
 11  7 30  1 17  0.0000000  0  8G02G17G09G04G27G12G10G05
  20495106.46548  15981265.40347  20819554.3444                   20819550.0084
  16938654.72347  13208047.70345  22750398.3054                   22750395.8794
  34639137.50447  27002768.50744  23047569.3674                   23047568.2974
  16332593.64848                  12736345.01046                  20958675.0394
                  20958673.1604   28448940.02047  22176195.29844  23406769.5004
  23406770.0474   34158464.74247  26626602.73046                  22264771.5314
  22264768.8444   26376854.05148  20561785.54946  21270205.6954   21270203.9344
  41998190.71947  32737285.27445  23317286.8984                   23317286.4494
 11  7 30  1 17 30.0000000  0  8G02G17G09G04G27G12G10G05
  20439525.73448  15937955.73447  20808977.5314                   20808973.5474
  16950977.63347  13217649.93145  22752743.9144                   22752741.7894
  34669950.96547  27026778.93944  23053432.4454                   23053432.1954
  16360772.26248                  12758302.37046                  20964037.1724
                  20964035.5204   28470414.04747  22192928.22044  23410855.9384
  23410856.2464   34044685.82847  26537943.85346                  22243120.0634
  22243117.5944   26301461.05148  20503037.78946  21255859.0554   21255857.0824
  41859366.45747  32629110.60045  23290869.2584                   23290868.5984
 11  7 30  1 18  0.0000000  0  8G02G17G09G04G27G12G10G05
  20384295.37948  15894919.10347  20798467.5704                   20798463.4884
  16963427.54747  13227351.14245  22755112.7194                   22755110.5744
  34701118.72747  27051065.44944  23059363.5704                   23059363.5274
  16389234.23048                  12780480.52646                  20969453.4064
                  20969451.3554   28492110.30147  22209834.31444  23414984.6884
  23414984.7584   33931206.34047  26449518.29446                  22221525.7424
  22221523.2234   26226626.01248  20444724.80146  21241618.4924   21241616.5164
  41720662.71947  32521029.86545  23264474.5784                   23264474.3554
 11  7 30  1 18 30.0000000  0  8G02G17G09G04G27G12G10G05
  20329413.93448  15852154.34046  20788024.2344                   20788019.8954
  16976004.93447  13237151.67245  22757506.2344                   22757504.1564
  34732637.62147  27075625.57845  23065361.8524                   23065361.5704
  16417976.97348                  12802877.46946                  20974922.9304
                  20974921.1484   28514025.78547  22226911.25444  23419155.4774
  23419155.6684   33818028.70347  26361327.94345                  22199988.7034
  22199985.7504   26152350.50448  20386847.80746  21227483.8204   21227482.1374
  41582081.87947  32413044.83145  23238103.8284                   23238102.8324
 11  7 30  1 19  0.0000000  0  8G02G17G09G04G27G12G10G05
  20274882.35248  15809662.21246  20777647.2424                   20777642.9304
  16988711.03147  13247052.49745  22759924.1484                   22759922.2384
  34764505.10247  27100457.31445  23071425.9924                   23071425.6954
  16446999.17248                  12825492.16746                  20980445.7504
                  20980443.8444   28536158.80547  22244157.66944  23423367.7974
  23423367.2814   33705156.32847  26273375.45046                  22178509.7344
  22178507.0394   26078637.48048  20329409.10946  21213456.9144   21213455.2304
  41443627.79347  32305158.61145  23211756.0084                   23211756.1914
 11  7 30  1 19 30.0000000  0  8G02G17G09G04G27G12G10G05
  20220697.40648  15767440.19346  20767336.0234                   20767331.6954
  17001544.22747  13257052.35845  22762365.8754                   22762364.1604
  34796715.67247  27125556.39144  23077555.9304                   23077555.3634
  16476296.19948                  12848321.01446                  20986020.6094
                  20986018.5204   28558504.63747  22261569.96344  23427620.1254
  23427619.7464   33592589.52747  26185661.09346                  22157088.4144
  22157086.3874   26005486.92648  20272408.71246  21199536.7504   21199534.8594
  41305301.21547  32197371.75745  23185433.9384                   23185433.4494
 11  7 30  1 20  0.0000000  0  8G02G17G09G04G27G12G10G05
  20166857.56648  15725487.08146  20757090.6484                   20757086.3754
  17014503.90647  13267150.77645  22764832.1804                   22764830.8484
  34829264.89847  27150919.38844  23083750.2344                   23083748.7464
  16505864.59848                  12871361.32146                  20991647.2894
                  20991645.4264   28581059.53547  22279145.14344  23431911.9774
  23431911.8984   33480330.14547  26098186.25746                  22135726.5314
  22135724.1914   25932899.39848  20215847.03846  21185724.0704   21185722.1764
  41167104.17247  32089685.83445  23159135.9844                   23159135.4694
 11  7 30  1 20 30.0000000  0  8G02G17G09G04G27G12G10G05
  20113369.44948  15683808.04247  20746912.2034                   20746907.9144
  17027598.23447  13277354.11245  22767324.0864                   22767322.2734
  34862157.09047  27176549.60444  23090008.9064                   23090008.5084
  16535709.58248                  12894617.14946                  20997326.8284
                  20997324.7734   28603828.09447  22296886.80744  23436244.4844
  23436244.4844   33368387.40647  26010958.16846                  22114424.4064
  22114422.1994   25860884.45348  20159731.52246  21172020.2894   21172018.2584
  41029046.77747  31982108.72645  23132864.0084                   23132863.7624
 11  7 30  1 21  0.0000000  0  8G02G17G09G04G27G12G10G05
  20060229.87148  15642400.58147  20736800.4694                   20736795.8244
  17040825.32447  13287660.90145  22769840.8134                   22769838.8484
  34895386.61347  27202442.67345  23096332.5474                   23096331.8094
  16565826.59048                  12918084.93546                  21003057.6804
                  21003055.9774   28626805.20347  22314790.98744  23440617.1644
  23440616.9774   33256762.08247  25923977.41346                  22093183.0234
  22093180.2624   25789441.66848  20104061.84946  21158424.8524   21158422.8674
  40891129.80147  31874641.03245  23106619.8284                   23106618.7584
 11  7 30  1 21 30.0000000  0  8G02G17G09G04G27G12G10G05
  20007431.13748  15601258.71747  20726752.7504                   20726748.1644
  17054178.51647  13298065.97345  22772381.8594                   22772380.9144
  34928942.92647  27228590.39245  23102717.6174                   23102717.5234
  16596205.85948                  12941757.07746                  21008838.5394
                  21008836.5084   28649981.24647  22332850.15144  23445027.5784
  23445026.9654   33145449.68047  25837240.48546                  22072001.0944
  22071998.4804   25718565.58648  20048833.76146  21144937.7504   21144935.7344
  40753349.04347  31767279.49945  23080400.9384                   23080399.8094
 11  7 30  1 22  0.0000000  0  8G02G17G09G04G27G12G10G05
  19954976.73048  15560385.15947  20716770.9694                   20716766.7704
  17067662.69947  13308573.10045  22774948.4534                   22774946.5824
  34962826.77747  27254993.30145  23109165.8284                   23109165.4304
  16626849.63348                  12965635.33546                  21014670.2584
                  21014668.2194   28673357.67247  22351065.48944  23449476.3364
  23449475.5744   33034456.89147  25750752.61146                  22050879.7814
  22050877.4454   25648262.61348  19994052.26346  21131559.6254   21131557.5664
  40615711.93047  31660029.87545  23054208.9924                   23054208.2814
 11  7 30  1 22 30.0000000  0  8G02G17G09G04G27G12G10G05
  19902867.61748  15519780.66547  20706854.9614                   20706850.7934
  17081279.92647  13319183.90245  22777539.7974                   22777537.5514
  34997036.34047  27281650.06044  23115675.4454                   23115675.5124
  16657756.86348                  12989718.87746                  21020551.4384
                  21020549.7894   28696933.47347  22369436.17444  23453962.5554
  23453962.5594   32923787.73447  25664516.92746                  22029820.2584
  22029817.7854   25578536.16048  19939719.98846  21118290.8834   21118288.9384
  40478222.88747  31552895.64945  23028045.6094                   23028045.0394
 11  7 30  1 23  0.0000000  0  8G02G17G09G04G27G12G10G05
  19851105.92248  15479446.86846  20697004.9614                   20697000.4534
  17095033.92647  13329901.27545  22780157.0474                   22780155.0474
  35031571.58647  27308560.58544  23122247.6804                   23122247.2154
  16688928.87548                  13014008.74746                  21026483.1954
                  21026481.3794   28720708.89147  22387962.42044  23458486.5864
  23458486.8014   32813448.13347  25578538.05146                  22008823.4224
  22008820.3524   25509391.04748  19885840.70746  21105132.6724   21105130.9494
  40340888.16847  31445881.67245  23001911.6094                   23001911.0394
 11  7 30  1 23 30.0000000  0  8G02G17G09G04G27G12G10G05
  19799687.51248  15439380.58347  20687220.4454                   20687216.0744
  17108921.41447  13340722.67945  22782799.6174                   22782797.6564
  35066425.57047  27335719.47244  23128880.2034                   23128879.8094
  16720358.98848                  13038499.72446                  21032464.4844
                  21032462.4964   28744677.56346  22406639.22544  23463047.8834
  23463047.9844   32703436.63747  25492814.81646                  21987888.6254
  21987886.2704   25440825.25848  19832412.84946  21092085.4844   21092083.4384
  40203706.64147  31338987.06445  22975807.0394                   22975805.9574
 11  7 30  1 24  0.0000000  0  8G02G17G09G04G27G12G10G05
  19748613.39548  15399582.57847  20677501.6644                   20677496.7894
  17122944.77047  13351649.95345  22785468.0314                   22785466.1914
  35101596.62547  27363125.44044  23135572.6644                   23135572.3984
  16752047.20748                  13063191.82546                  21038494.3204
                  21038492.5904   28768838.33646  22425465.71544  23467645.6254
  23467645.7664   32593757.56347  25407350.63146                  21967017.1644
  21967014.7114   25372842.14548  19779439.00946  21079148.3914   21079146.4534
  40066683.46947  31232215.87045  22949732.0164                   22949731.2704
 11  7 30  1 24 30.0000000  0  8G02G17G09G04G27G12G10G05
  19697880.73448  15360050.65047  20667847.1024                   20667842.7854
  17137102.52047  13362681.94845  22788162.3524                   22788159.9964
  35137079.30147  27390774.20545  23142325.3284                   23142324.6374
  16783989.02348                  13088081.54546                  21044572.9534
                  21044571.0514   28793186.66846  22444438.37844  23472278.2894
  23472278.7384   32484411.80148  25322146.15646                  21946209.3594
  21946206.8284   25305441.59848  19726919.11946  21066322.7504   21066321.0634
  39929819.36747  31125568.61145  22923687.8134                   22923686.5514
 11  7 30  1 25  0.0000000  0  8G02G17G09G04G27G12G10G05
  19647486.49648  15320782.41647  20658257.5084                   20658253.2504
  17151393.18847  13373817.52145  22790881.3914                   22790879.7114
  35172867.93447  27418661.40344  23149135.2734                   23149134.8094
  16816179.85948                  13113165.30046                  21050698.6724
                  21050697.0354   28817717.55146  22463553.28244  23476946.7814
  23476946.6174   32375399.82047  25237201.76046                  21925465.3984
  21925462.5784   25238623.01248  19674852.71946  21053607.7894   21053605.4884
  39793115.13347  31019045.94045  22897674.1884                   22897672.8524
 11  7 30  1 25 30.0000000  0  8G02G17G09G04G27G12G10G05
  19597433.97348  15281780.47047  20648732.8834                   20648728.2704
  17165821.19947  13385060.11645  22793627.0164                   22793625.5044
  35208963.48447  27446787.74744  23156004.5474                   23156004.1684
  16848621.63348                  13138444.59746                  21056871.9614
                  21056870.2154   28842432.46546  22482811.61044  23481649.8754
  23481650.2774   32266727.82447  25152522.30446                  21904785.6644
  21904783.0044   25172392.30548  19623244.38346  21041004.1724   21041002.3094
  39656578.15647  30912653.58645  22871691.3914                   22871690.6094
 11  7 30  1 26  0.0000000  0  8G02G17G09G04G27G12G10G05
  19547721.11348  15243043.19347  20639272.7974                   20639268.3284
  17180385.89847  13396409.22045  22796398.3524                   22796397.2074
  35245361.28147  27475149.56344  23162930.6094                   23162929.8634
  16881311.10248                  13163916.88346                  21063092.5084
                  21063090.9734   28867327.36346  22502210.09944  23486387.3524
  23486387.5474   32158397.35547  25068108.97346                  21884171.1724
  21884168.2934   25106749.86348  19572094.44946  21028512.8914   21028510.8444
  39520209.81647  30806392.61745  22845741.5634                   22845740.9104
 11  7 30  1 26 30.0000000  0  8G02G17G09G04G27G12G10G05
  19498345.78948  15204568.92947  20629877.1414                   20629872.5474
  17195086.38747  13407864.12045  22799195.8284                   22799194.2274
  35282056.50447  27503743.15844  23169913.6024                   23169913.0634
  16914244.19148                  13189579.01846                  21069359.3834
                  21069357.7114   28892398.37146  22521745.90644  23491158.1724
  23491158.7424   32050409.33647  24983962.47446                  21863621.8444
  21863619.0204   25041695.92248  19521403.09146  21016133.5864   21016131.7384
  39384011.61347  30700264.24445  22819823.7114                   22819822.9144
 11  7 30  1 27  0.0000000  0  8G02G17G09G04G27G12G10G05
  19449311.38748  15166360.31547  20620546.2114                   20620541.4654
  17209927.32847  13419428.46845  22802020.2194                   22802018.6524
  35319049.82847  27532569.06444  23176953.1334                   23176952.7974
  16947422.85948                  13215432.51246                  21075673.0234
                  21075671.2894   28917646.74646  22541419.87744  23495962.8524
  23495963.7194   31942770.59447  24900088.15546                  21843138.3524
  21843135.8284   24977236.09848  19471174.68146  21003866.8834   21003864.9694
  39247990.86747  30594274.12845  22793939.7114                   22793939.1374
 11  7 30  1 27 30.0000000  0  8G02G17G09G04G27G12G10G05
  19400610.32848  15128411.44547  20611278.6484                   20611274.2544
  17224902.69547  13431097.55545  22804869.9694                   22804867.4964
  35356331.49247  27561619.64544  23184047.6644                   23184047.3284
  16980838.30948                  13241470.50046                  21082031.9924
                  21082030.2304   28943063.05646  22561224.66844  23500799.2814
  23500799.9454   31835477.37947  24816483.07546                  21822721.4064
  21822718.4924   24913365.39847  19421405.33046  20991713.0084   20991710.8284
  39112143.97347  30488419.49445  22768088.8284                   22768087.6414
 11  7 30  1 28  0.0000000  0  8G02G17G09G04G27G12G10G05
  19352245.39148  15090724.49347  20602075.0474                   20602070.6764
  17240016.39547  13442874.44545  22807746.2664                   22807744.7384
  35393901.12947  27590894.61344  23191197.1564                   23191196.0784
  17014491.47348                  13267693.73346                  21088436.0314
                  21088434.1254   28968647.88346  22581160.84944  23505667.6094
  23505667.7734   31728534.99647  24733151.36346                  21802370.7734
  21802368.1294   24850088.77348  19372098.88846  20979671.7274   20979669.4964
  38976476.97747  30382705.04045  22742272.1414                   22742271.3204
 11  7 30  1 28 30.0000000  0  8G02G17G09G04G27G12G10G05
  19304214.98848  15053298.21447  20592935.1804                   20592930.9104
  17255268.48447  13454759.13845  22810648.3914                   22810646.5354
  35431755.20747  27620391.24944  23198400.8444                   23198399.8554
  17048379.62148                  13294100.05946                  21094884.6254
                  21094883.2154   28994397.87946  22601225.73644  23510568.1804
  23510568.7504   31621945.59847  24650094.68846                  21782087.6334
  21782084.7304   24787407.26648  19323256.17346  20967744.1024   20967741.6374
  38840992.70747  30277132.94245  22716490.8364                   22716489.7344
 11  7 30  1 29  0.0000000  0  8G02G17G09G04G27G12G10G05
  19256527.12948  15016138.84747  20583860.4224                   20583856.2624
  17270668.16847  13466758.89545  22813578.4534                   22813577.3794
  35469898.94547  27650113.56145  23205659.1024                   23205659.0044
  17082509.17248                  13320694.50446                  21101379.2274
                  21101377.7544   29020319.10546  22621423.98844  23515501.5944
  23515502.0274   31515720.62147  24567322.00846                  21761873.7734
  21761871.0784   24725330.99648  19274885.07446  20955931.0004   20955928.6524
  38705702.87547  30171712.39445  22690745.6954                   22690744.3834
 11  7 30  1 29 30.0000000  0  8G02G17G09G04G27G12G10G05
  19209173.64148  14979240.03147  20574849.3594                   20574844.9384
  17286208.73047  13478868.38845  22816536.0864                   22816534.0434
  35508321.35547  27680053.05044  23212970.2034                   23212970.3364
  17116870.74248                  13347469.74046                  21107918.1174
                  21107916.8754   29046401.34846  22641747.75444  23520464.3524
  23520465.4924   31409855.26247  24484829.54646                  21741727.9304
  21741725.4304   24663854.02048  19226980.95146  20944232.4924   20944230.1724
  38570603.03547  30066439.86045  22665037.0164                   22665036.0314
 11  7 30  1 30  0.0000000  0  8G02G17G09G04G27G12G10G05
  19162151.98848  14942599.77047  20565901.1484                   20565897.1334
  17301888.99247  13491086.75745  22819520.2034                   22819518.7664
  35547017.51247  27710205.80944  23220334.3914                   23220334.3874
  17151460.24648                  13374422.56246                  21114499.9844
                  21114498.4654   29072640.33246  22662193.61144  23525457.7734
  23525457.8014   31304350.42247  24402618.00146                  21721650.9924
  21721648.4774   24602976.15648  19179543.67246  20932647.8594   20932645.5164
  38435694.32047  29961316.27845  22639364.9064                   22639363.8284
 11  7 30  1 30 30.0000000  0  8G02G17G09G04G27G12G10G05
  19115461.14548  14906217.30047  20557016.5554                   20557011.9224
  17317709.28547  13503414.23045  22822530.3054                   22822529.4694
  35585983.89147  27740569.18544  23227749.6024                   23227749.3554
  17186275.58248                  13401551.39146                  21121125.1254
                  21121123.9494   29099033.46546  22682759.62844  23530480.0234
  23530480.3404   31199208.29347  24320689.08646                  21701642.9454
  21701640.3244   24542698.74248  19132574.25846  20921177.1724   20921175.3164
  38300979.82847  29856344.02645  22613729.3054                   22613728.0864
 11  7 30  1 31  0.0000000  0  8G02G17G09G04G27G12G10G05
  19069100.10548  14870091.81947  20548194.3134                   20548189.9494
  17333669.82847  13515851.01645  22825567.4614                   22825566.8134
  35625216.62947  27771140.03644  23235215.1334                   23235215.5314
  17221313.81648                  13428853.88146                  21127793.0394
                  21127791.3554   29125577.43447  22703443.15044  23535531.3444
  23535531.3834   31094430.77047  24239044.27346                  21681704.6094
  21681702.1524   24483022.81648  19086073.56746  20909821.0004   20909819.8094
  38166462.08247  29751525.09045  22588131.2274                   22588130.4804
 11  7 30  1 31 30.0000000  0  8G02G17G09G04G27G12G10G05
  19023068.72348  14834223.21247  20539434.5554                   20539430.7114
  17349771.93847  13528398.10245  22828632.1724                   22828629.9024
  35664713.07847  27801916.42644  23242731.4774                   23242731.0704
  17256573.75848                  13456329.12746                  21134502.9304
                  21134501.1334   29152270.22346  22724242.66644  23540611.0234
  23540611.2424   30990021.66047  24157686.53346                  21661836.5554
  21661833.8954   24423950.59448  19040043.28746  20898580.1174   20898578.5594
  38032144.89147  29646862.42945  22562571.4924                   22562570.4804
 11  7 30  1 32  0.0000000  0  8G02G17G09G04G27G12G10G05
  18977366.32448  14798610.94847  20530737.5944                   20530733.5124
  17366016.82447  13541056.46445  22831722.7034                   22831721.3164
  35704470.35947  27832896.04644  23250296.8754                   23250297.0354
  17292053.52348                  13483975.67046                  21141254.3134
                  21141252.6214   29179109.51246  22745156.28744  23545718.6334
  23545718.6524   30885983.75447  24076618.04746                  21642038.6724
  21642035.9734   24365483.78148  18994484.74046  20887453.9144   20887452.2344
  37898031.62147  29542358.66345  22537050.7034                   22537049.3164
 11  7 30  1 32 30.0000000  0  8G02G17G09G04G27G12G10G05
  18931993.66048  14763255.63047  20522103.6804                   20522099.3014
  17382406.33247  13553827.48045  22834842.0704                   22834840.1914
  35744486.74647  27864077.58144  23257911.5314                   23257911.8914
  17327752.47748                  13511793.01446                  21148047.7504
                  21148045.9884   29206093.99246  22766183.07944  23550853.4304
  23550854.0274   30782321.12148  23995841.99046                  21622312.4144
  21622309.4614   24307625.09048  18949400.06546  20876444.2424   20876442.1254
  37764126.68847  29438017.23945  22511569.0554                   22511567.9804
 11  7 30  1 33  0.0000000  0  8G02G17G09G04G27G12G10G05
  18886951.84448  14728158.11847  20513532.6804                   20513528.0944
  17398942.97347  13566713.15345  22837989.2034                   22837987.2734
  35784760.72347  27895459.85844  23265576.1564                   23265575.5784
  17363670.29748                  13539780.91246                  21154882.6484
                  21154880.6844   29233222.98446  22787322.43444  23556015.7194
  23556016.4804   30679037.98447  23915361.63046                  21602658.1644
  21602655.8204   24250377.68448  18904791.71446  20865550.2274   20865548.3674
  37630435.27047  29333842.17245  22486128.2504                   22486127.4964
 11  7 30  1 33 30.0000000  0  8G02G17G09G04G27G12G10G05
  18842237.16848  14693315.51447  20505023.7894                   20505019.2734
  17415624.49647  13579711.73245  22841163.5394                   22841160.9104
  35825285.82447  27927037.79644  23273287.5164                   23273287.7584
  17399801.82448                  13567935.32646                  21161758.2114
                  21161756.3244   29260490.63346  22808569.87544  23561204.4144
  23561205.2034   30576134.22347  23835176.88946                  21583076.2584
  21583073.7274   24193740.22748  18860658.66746  20854772.5314   20854770.4144
  37496957.21947  29229833.36945  22460728.3834                   22460727.3954
 11  7 30  1 34  0.0000000  0  8G02G17G09G04G27G12G10G05
  18797846.19548  14658725.15447  20496576.0394                   20496571.8954
  17432448.99647  13592821.72045  22844364.9304                   22844362.5234
  35866056.31347  27958806.91544  23281045.7664                   23281045.8874
  17436142.57448                  13596252.78146                  21168673.8834
                  21168672.0474   29287891.82046  22829921.39544  23566419.1564
  23566419.2074   30473609.71547  23755287.67246                  21563566.3204
  21563563.8524   24137711.49648  18816999.93046  20844110.5474   20844107.9774
  37363693.25047  29125991.39146  22435369.0634                   22435368.1024
 11  7 30  1 34 30.0000000  0  8G02G17G09G04G27G12G10G05
  18753779.41448  14624387.42047  20488190.4844                   20488186.6214
  17449417.96146  13606044.25345  22847593.9694                   22847591.7464
  35907069.96947  27990765.55044  23288851.0164                   23288850.2274
  17472691.54348                  13624732.49946                  21175628.8594
                  21175626.9144   29315425.23447  22851375.87944  23571659.0004
  23571659.2464   30371468.14547  23675696.84246                  21544129.6334
  21544126.7734   24082293.86748  18773817.39046  20833564.9454   20833563.1254
  37230647.61747  29022319.54045  22410051.2344                   22410050.3164
 11  7 30  1 35  0.0000000  0  8G02G17G09G04G27G12G10G05
  18710033.06348  14590299.34747  20479865.9304                   20479861.5084
  17466529.33247  13619377.77745  22850850.7974                   22850848.6054
  35948320.40247  28022908.65744  23296700.5864                   23296700.4264
  17509443.71148                  13653370.52946                  21182622.2664
                  21182620.8324   29343085.09447  22872928.94844  23576921.9844
  23576923.3954   30269709.16847  23596404.13846                  21524765.0944
  21524762.5904   24027485.27348  18731109.40646  20823135.0944   20823132.8094
  37097820.43047  28918817.91645  22384774.6174                   22384773.5634
 11  7 30  1 35 30.0000000  0  8G02G17G09G04G27G12G10G05
  18666606.62148  14556460.57347  20471601.7974                   20471597.5004
  17483784.56646  13632823.40345  22854133.4304                   22854132.0704
  35989805.12547  28055234.34744  23304594.6884                   23304594.1914
  17546397.58647                  13682165.74346                  21189654.5314
                  21189653.0634   29370869.49246  22894579.06044  23582209.3524
  23582210.3594   30168336.15647  23517412.18046                  21505474.6884
  21505472.1134   23973288.05948  18688877.83546  20812822.2894   20812819.9884
  36965215.26647  28815489.28745  22359540.9304                   22359539.6294
 11  7 30  1 36  0.0000000  0  8G02G17G09G04G27G12G10G05
  18623504.79348  14522874.73647  20463400.2584                   20463395.7234
  17501189.36347  13646385.57845  22857445.9224                   22857444.3714
  36031525.94946  28087743.99444  23312533.8444                   23312533.5274
  17583556.44148                  13711120.67346                  21196725.5864
                  21196723.9574   29398780.81346  22916328.00044  23587520.6484
  23587521.6764   30067356.60547  23438726.82246                  21486258.8284
  21486256.4694   23919708.45748  18647127.51646  20802626.1024   20802624.1024
  36832840.45747  28712340.16346  22334350.7974                   22334349.2034
 11  7 30  1 36 30.0000000  0  8G02G17G09G04G27G12G10G05
  18580724.91048  14489539.77847  20455259.6724                   20455255.0704
  17518742.41047  13660063.27445  22860785.8594                   22860784.0394
  36073477.86347  28120433.76044  23320517.4534                   23320517.3954
  17620916.21148                  13740232.17046                  21203835.1414
                  21203833.1484   29426814.75046  22938172.51244  23592855.7584
  23592856.8404   29966771.71947  23360348.99246                  21467118.1884
  21467115.8404   23866745.94948  18605858.05846  20792547.7894   20792545.4844
  36700697.54347  28609371.71645  22309204.7894                   22309203.3324
 11  7 30  1 37  0.0000000  0  8G02G17G09G04G27G12G10G05
  18538262.82048  14456452.45047  20447179.3364                   20447174.6094
  17536441.24647  13673854.54345  22864154.4454                   22864152.9734
  36115654.27047  28153298.39844  23328543.1024                   23328543.2154
  17658472.09448                  13769496.47246                  21210981.5784
                  21210979.3444   29454965.43446  22960108.03544  23598212.3444
  23598212.8444   29866580.33248  23282277.76846                  21448052.5864
  21448050.1294   23814398.75848  18565068.05446  20782586.4064   20782584.1374
  36568786.30947  28506583.79545  22284102.8204                   22284101.6024
 11  7 30  1 37 30.0000000  0  8G02G17G09G04G27G12G10G05
  18496123.23048  14423616.41047  20439160.2344                   20439155.6994
  17554291.84047  13687764.05745  22867551.0944                   22867549.8554
  36158057.41847  28186339.75444  23336612.7504                   23336612.2774
  17696226.98048                  13798915.84846                  21218166.3364
                  21218164.4384   29483235.50046  22982136.53244  23603592.6024
  23603592.7854   29766790.73448  23204519.64646                  21429062.8914
  21429060.5554   23762672.78948  18524762.12146  20772743.2114   20772740.9574
  36437115.15647  28403982.96945  22259046.9224                   22259045.6604
 11  7 30  1 38  0.0000000  0  8G02G17G09G04G27G12G10G05
  18454303.46548  14391029.57647  20431202.5784                   20431198.1644
  17572292.68047  13701790.68845  22870976.2894                   22870975.4804
  36200682.02347  28219553.65744  23344723.2344                   23344723.9184
  17734177.26247                  13828487.48146                  21225387.4844
                  21225385.9844   29511620.53946  23004254.68844  23608993.5634
  23608994.5274   29667403.41448  23127074.98546                  21410150.2424
  21410147.8754   23711567.69148  18484939.98646  20763017.9614   20763016.0704
  36305685.09047  28301569.97945  22234036.4534                   22234034.6374
 11  7 30  1 38 30.0000000  0  8G02G17G09G04G27G12G10G05
  19988223.96948  15586292.30747  20723097.7584                   20723093.4614
  19165864.60547  14943535.02645  23174222.7814                   23174221.6294
  37818943.59047  29480536.59144  23652668.6484   23652668.3874   19347739.82447
  15085808.95246                  21532438.4774
                  21532436.9064   31115537.18446  24254059.80243  23914209.1724
  23914209.8954   31143844.32848  24277548.42646                  21691107.6174
  21691105.4024   25236506.53548  19673204.02946  21053204.3284   21053202.3014
  37749924.03547  29426951.05046  22508865.6094                   22508864.4064
 11  7 30  1 39  0.0000000  0  8G02G17G09G04G27G12G10G05
                                  19947035.97348  15554197.77047  20715259.6334
  20715255.4734   19184163.62947  14957793.99745  23177705.2194   23177704.3054
  37861996.16047  29514083.99244  23660861.2584   23660861.3204   19386069.48848
  15115676.21046                  21539732.3284
                  21539730.8754   31144139.12146  24276346.92044  23919652.3594
  23919652.3554   31045264.39848  24200732.91046                  21672348.7504
  21672346.1994   25186641.17248  19634347.92846  21043715.3674   21043713.2704
  37618980.83247  29324917.44646  22483948.4694                   22483947.0594
 11  7 30  1 39 30.0000000  0  8G02G17G09G04G27G12G10G05
                                  19906164.27348  15522349.70047  20707481.9384
  20707477.6334   19202614.38746  14972171.19945  23181216.5634   23181215.1804
  37905259.22347  29547795.36544  23669094.3674   23669093.8714   19424587.48848
  15145690.21846                  21547062.0554
                  21547060.6884   31172847.15647  24298716.73144  23925115.1724
  23925116.0274   30947093.63348  24124236.21646                  21653667.4774
  21653664.8714   25137398.83648  19595977.29046  21034344.9064   21034342.5784
  37488287.19147  29223078.31446  22459077.9224                   22459076.6054
 11  7 30  1 40  0.0000000  0  9G02G17G09G25G04G27G12G10G05
                                  19865608.89148  15490748.11347  20699764.5164
  20699760.0354   19221218.35947  14986667.74845  23184756.3834   23184754.9064
  37948730.50047  29581669.03344  23677365.9384   23677366.2854
  51741222.57046  40328087.97444  24448182.4774   24448183.4654   19463292.68448
  15175850.10546                  21554428.0234
                  21554426.1024   31201659.60947  24321167.87044  23930597.6414
  23930598.1564   30849335.34048  24048060.92346                  21635064.5394
  21635062.4344   25088781.58248  19558093.73146  21025093.2584   21025091.3524
  37357847.05547  29121436.70046  22434256.3054                   22434254.3484
 11  7 30  1 40 30.0000000  0  9G02G17G09G25G04G27G12G10G05
                                  19825358.45348  15459384.14547  20692105.2584
  20692100.8014   19239965.07446  15001275.56445  23188324.4844   23188322.4574
  37992396.00847  29615694.04544  23685675.7114   23685675.8134
  51605123.44946  40222036.73744  24422283.0704   24422284.2664   19502172.45348
  15206146.01946                  21561826.3284
                  21561824.4184   31230563.01646  24343689.91644  23936098.0554
  23936098.8594   30751981.70348  23972200.95946                  21616538.5784
  21616536.5704   25040779.57448  19520689.59146  21015958.6334   21015956.8094
  37227652.93047  29019986.82245  22409480.6024                   22409479.3244
 11  7 30  1 41  0.0000000  0  9G02G17G09G25G04G27G12G10G05
                                  19785406.50448  15428252.76647  20684502.6724
  20684498.2304   19258850.21547  15015991.24845  23191918.2274   23191916.0314
  38036246.96546  29649863.55944  23694020.2664   23694020.2234
  51469161.95346  40116092.74743  24396410.4454   24396411.3484   19541219.28948
  15236572.11246                  21569256.8204
                  21569255.1644   31259549.42247  24366276.62844  23941614.8204
  23941615.2734   30655028.80548  23896653.25646                  21598089.3754
  21598086.6724   24993388.44148  19483761.45146  21006940.5394   21006938.3634
  37097702.49247  28918726.79346  22384752.4454                   22384750.6804
 11  7 30  1 41 30.0000000  0  9G02G17G09G25G04G27G12G10G05
                                  19745763.69148  15397362.26847  20676958.9614
  20676954.3914   19277885.72347  15030824.08944  23195539.3674   23195538.0394
  38080291.72746  29684184.09744  23702401.5164   23702401.3054
  51333352.54346  40010267.24343  24370566.6954   24370567.6454   19580442.75848
  15267135.84846                  21576720.5634
                  21576718.5004   31288627.71147  24388934.93544  23947148.4454
  23947148.1334   30558491.47748  23821429.38746                  21579718.7194
  21579716.2114   24946620.43448  19447318.87346  20998040.7034   20998038.7424
  36968010.33647  28817668.03146  22360072.0864                   22360071.1524
 11  7 30  1 42  0.0000000  0  9G02G17G09G25G04G27G12G10G05
                                  19706424.46148  15366708.33347  20669472.9224
  20669468.7664   19297068.02347  15045771.29944  23199189.8134   23199188.2704
  38124522.35546  29718649.44344  23710818.7194   23710818.5474
  51197693.29746  39904558.77844  24344751.9064   24344752.5274   19619836.47748
  15297832.25046                  21584216.9774
                  21584215.3324   31317790.75447  24411659.32144  23952697.6724
  23952698.1804   30462367.82048  23746527.84346                  21561427.0634
  21561424.5124   24900471.82448  19411358.93446  20989259.1724   20989256.7384
  36838574.98447  28716809.36946  22335441.9694                   22335440.3014
 11  7 30  1 42 30.0000000  0  9G02G17G09G25G04G27G12G10G05
                                  19667390.60548  15336292.34447  20662044.9614
  20662040.4104   19316399.68446  15060834.92545  23202869.2194   23202865.8014
  38168937.86346  29753258.86044  23719270.5474   23719270.7934
  51062189.23446  39798971.19344  24318966.2974   24318967.0204   19659400.90248
  15328661.67346                  21591745.3204
                  21591744.0634   31347038.25847  24434449.47544  23958262.4064
  23958263.7114   30366662.18048  23671952.03446                  21543215.0314
  21543212.1684   24854946.12548  19375884.38046  20980595.4844   20980593.5554
  36709401.76647  28616154.97946  22310860.7274                   22310859.2344
 11  7 30  1 43  0.0000000  0  9G02G17G09G25G04G27G12G10G05
                                  19628667.03148  15306118.13546  20654676.0944
  20654672.0274   19335887.18047  15076019.96245  23206577.6254   23206575.1414
  38213541.07846  29788014.51044  23727757.8754   23727758.4964
  50926848.86346  39693511.22944  24293212.0784   24293212.3594   19699139.77048
  15359627.00146                  21599307.9694
                  21599305.8164   31376373.31346  24457307.84644  23963845.4384
  23963846.0824   30271382.84048  23597708.40146                  21525083.9534
  21525081.0354   24810049.85248  19340900.28246  20972052.2344   20972050.0824
  36580499.51247  28515711.74846  22286330.8134                   22286330.1024
 11  7 30  1 43 30.0000000  0  9G02G17G09G25G04G27G12G10G05
                                  19590252.35248  15276184.62147  20647366.0554
  20647361.6994   19355531.10247  15091326.90745  23210315.3364   23210312.7664
  38258328.15246  29822913.44744  23736280.9694   23736281.2624
  50791674.50846  39588180.58044  24267488.8364   24267489.4304   19739050.82848
  15390726.50246                  21606902.9454
                  21606900.8674   31405792.97346  24480232.16544  23969444.3754
  23969444.9024   30176532.09448  23523798.75646                  21507033.8524
  21507031.7974   24765783.26648  19306406.86446  20963628.3834   20963626.3054
  36451871.02347  28415481.82046  22261854.0704                   22261852.5824
 11  7 30  1 44  0.0000000  0  9G02G17G09G25G04G27G12G10G05
                                  19552143.25848  15246489.22047  20640114.1884
  20640110.0234   19375329.58647  15106754.30945  23214082.7194   23214081.5554
  38303293.48046  29857951.27044  23744837.4774   23744838.1844
  50656666.71546  39482979.75743  24241797.1254   24241798.0824   19779129.89548
  15421956.92046                  21614529.5944
                  21614527.6804   31435292.18046  24503218.47343  23975057.8754
  23975057.9454   30082110.46148  23450223.46046                  21489066.3674
  21489063.6374   24722145.20748  19272403.21346  20955324.4694   20955322.2424
  36323517.13347  28315465.84746  22237429.0864                   22237427.3324
 11  7 30  1 44 30.0000000  0  9G02G17G09G25G04G27G12G10G05
                                  19514337.67248  15217030.33047  20632919.9144
  20632915.4344   19395281.78947  15122301.46145  23217879.7734   23217878.4924
  38348432.20346  29893124.24944  23753427.4844   23753427.6254
  50521826.60246  39377909.56544  24216138.7584   24216138.8984   19819373.46548
  15453315.53146                  21622187.9454
                  21622186.1804   31464866.85946  24526263.56343  23980685.2814
  23980686.7464   29988118.42648  23376982.92246                  21471180.4534
  21471177.5664   24679134.90248  19238888.70846  20947139.7274   20947137.7274
  36195439.57847  28215665.21346  22213056.8134                   22213055.0474
 11  7 30  1 45  0.0000000  0  9G02G17G09G25G04G27G12G10G05
                                  19476835.58648  15187807.93247  20625783.6724
  20625779.2584   19415389.38347  15137969.72244  23221705.5554   23221704.3714
  38393742.10547  29928430.58044  23762049.0944   23762049.5664
  50387157.99247  39272973.06243  24190512.1094   24190512.3954   19859780.77048
  15484801.72646                  21629876.8754
                  21629875.5904   31494515.53946  24549366.30143  23986327.0864
  23986328.2384   29894559.55548  23304079.91946                  21453376.7034
  21453374.1804   24636753.98848  19205864.63646  20939074.8444   20939072.7344
  36067642.21547  28116082.90646  22188737.4614                   22188735.9224
 11  7 30  1 45 30.0000000  0  9G02G17G09G25G04G27G12G10G05
                                  19439636.60248  15158821.72747  20618704.9454
  20618700.6174   19435653.39547  15153759.85045  23225562.4144   23225561.4614
  38439220.33247  29963868.05644  23770703.6484   23770703.5044
  50252664.14147  39168172.70444  24164918.4694   24164919.0984   19900350.34048
  15516414.37846                  21637596.9224
                  21637595.5634   31524235.95346  24572524.92743  23991983.1024
  23991983.7664   29801436.98048  23231516.88846                  21435655.8984
  21435653.5784   24595003.73448  19173331.99446  20931129.9774   20931128.0124
  35940128.02747  28016721.27746  22164472.3594                   22164470.4144
 11  7 30  1 46  0.0000000  0  9G02G17G09G25G04G27G12G10G05
                                  19402738.72748  15130070.14447  20611683.3834
  20611678.9884   19456073.52047  15169671.63645  23229448.2504   23229446.9304
  38484863.04747  29999433.75644  23779389.9064   23779389.9064
  50118346.67247  39063509.82044  24139358.6564   24139358.9264   19941079.43448
  15548151.31345                  21645347.4384
                  21645345.8284   31554024.53146  24595736.70544  23997651.7894
  23997653.0634   29708751.87548  23159294.73946                  21418018.9064
  21418015.8484   24553883.58648  19141290.33446  20923305.1884   20923303.1214
  35812899.76248  27917582.42146  22140261.6564                   22140259.8134
 11  7 30  1 46 30.0000000  0  9G02G17G09G25G04G27G12G10G05
                                  19366142.01248  15101553.23347  20604719.4304
  20604715.1174   19476651.09847  15185706.10645  23233364.2344   23233362.9614
  38530667.43846  30035125.40744  23788105.2894   23788106.5824
  49984209.17247  38958987.13744  24113832.7194   24113834.4734   19981966.51648
  15580011.35946                  21653128.3134
                  21653126.4654   31583879.34046  24619000.09843  24003333.0004
  24003333.6604   29616507.73048  23087416.18346                  21400465.1414
  21400462.6724   24513395.09048  19109740.86746  20915600.3674   20915598.2074
  35685961.36347  27818669.42646  22116106.1024                   22116104.3444
 11  7 30  1 47  0.0000000  0  9G02G17G09G25G04G27G12G10G05
                                  19329848.21947  15073272.36747  20597812.7194
  20597808.4344   19497389.67647  15201866.02945  23237309.8594   23237309.4494
  38576633.13747  30070942.72244  23796852.8284   23796853.4184
  49850257.31347  38854609.08144  24088343.1884   24088343.6454   20023012.84448
  15611995.48546                  21660939.3284
                  21660937.1454   31613800.88346  24642315.43943  24009026.5784
  24009027.7974   29524709.31648  23015884.96046                  21382996.4454
  21382993.8554   24473541.79748  19078686.37246  20908016.5314   20908014.2894
  35559318.53547  27719986.76146  22092006.6724                   22092004.9734
 11  7 30  1 47 30.0000000  0  9G02G17G09G25G04G27G12G10G05
                                  19293856.28948  15045226.72147  20590963.8054
  20590959.6374   19518289.57847  15218151.67445  23241287.7194   23241286.1524
  38622756.25447  30106882.71744  23805630.0944   23805630.5474
  49716493.30547  38750377.45044  24062888.7034   24062888.8634   20064216.24248
  15644102.01746                  21668779.9304
                  21668777.8164   31643786.08246  24665680.48143  24014733.5784
  24014734.1684   29433358.76648  22944702.71446                  21365612.8984
  21365610.5204   24434323.79348  19048126.89546  20900553.9304   20900551.4224
  35432973.68447  27621536.28746  22067963.8834                   22067962.4884
 11  7 30  1 48  0.0000000  0  9G02G17G09G25G04G27G12G10G05
                                  19258163.54748  15017414.21847  20584171.8444
  20584167.0634   19539349.50847  15234561.96245  23245295.0864   23245293.7974
  38669032.33247  30142941.89344  23814435.6174   23814436.2074
  49582918.51247  38646293.21544  24037469.8754   24037471.2584   20105573.17248
  15676328.17145                  21676649.8594
                  21676648.1214   31673830.74246  24689091.79544  24020450.0944
  24020451.0314   29342457.51248  22873870.57846                  21348315.4694
  21348312.6174   24395740.29748  19018061.84446  20893211.6724   20893209.1684
  35306928.41447  27523319.25746  22043978.4064                   22043976.5474
 11  7 30  1 48 30.0000000  0  9G02G17G09G25G04G27G12G10G05
                                  19222768.62148  14989833.77247  20577436.1484
  20577431.7034   19560569.93847  15251097.38245  23249333.5784   23249331.2464
  38715457.39847  30179117.22144  23823270.7114   23823271.0744
  49449535.22747  38542358.22644  24012088.2974   24012088.5904   20147081.53148
  15708672.32245                  21684548.7504
                  21684546.8014   31703931.82446  24712547.10543  24026178.2344
  24026179.8984   29252006.93048  22803389.61446                  21331103.2114
  21331100.3634   24357791.16448  18988491.10146  20885990.2114   20885987.5944
  35181185.47347  27425337.78746  22020050.3674                   22020048.6884
 11  7 30  1 49  0.0000000  0  9G02G17G09G25G04G27G12G10G05
                                  19187668.71548  14962483.19347  20570756.9224
  20570752.0904   19581949.51647  15267756.75845  23253401.0474   23253399.7624
  38762026.45347  30215404.66244  23832131.8594   23832132.6214
  49316344.19547  38438573.02844  23986742.5164   23986743.3094   20188737.30948
  15741131.34245                  21692475.6024
                  21692473.6884   31734084.64546  24736042.67343  24031916.6334
  24031917.8874   29162007.63748  22733260.29946                  21313976.3984
  21313973.6134   24320474.92648  18959413.51946  20878888.9534   20878886.9224
  35055745.75847  27327592.60746  21996179.8984                   21996178.1954
 11  7 30  1 49 30.0000000  0  9G02G17G09G25G04G27G12G10G05
                                  19152865.61747  14935363.91747  20564134.2734
  20564129.9024   19603491.34047  15284542.58145  23257501.1644   23257499.0004
  38808739.01247  30251803.98944  23841021.9614   23841021.6254
  49183351.05547  38334942.05444  23961434.7114   23961435.0784   20230541.64848
  15773706.12646                  21700430.3134
                  21700428.8754   31764289.44546  24759578.77943  24037664.2584
  24037665.9264   29072464.39548  22663486.35246                  21296937.2504
  21296934.3324   24283794.81647  18930831.62246  20871909.1254   20871906.7934
  34930614.95347  27230088.13946  21972368.2734                   21972366.5204
 11  7 30  1 50  0.0000000  0  9G02G17G09G25G04G27G12G10G05
                                  19118357.62948  14908474.59147  20557567.3444
  20557563.1484   19625195.17247  15301454.64345  23261630.9454   23261628.6844
  38855590.82847  30288311.77844  23849937.6564   23849937.8754
  49050557.62547  38231466.67544  23936165.2114   23936165.8094   20272491.69148
  15806394.46745                  21708413.4304
                  21708411.8404   31794542.68046  24783152.70843  24043421.2274
  24043422.0164   28983379.23048  22594069.35246                  21279984.9614
  21279982.2234   24247750.47347  18902745.12746  20865050.0314   20865047.5394
  34805795.36747  27132826.18546  21948615.7584                   21948614.4494
 11  7 30  1 50 30.0000000  0  9G02G17G09G25G04G27G12G10G05
                                  19084143.64848  14881814.36547  20551056.5864
  20551052.1804   19647062.00847  15318493.72144  23265792.5554   23265790.2344
  38902578.53547  30324925.51644  23858878.9924   23858879.6524
  48917966.58247  38128148.96944  23910933.1804   23910934.8204   20314585.40648
  15839194.74845                  21716423.7664
                  21716421.9304   31824841.84846  24806762.35843  24049186.9924
  24049188.3204   28894754.05148  22525010.79346                  21263119.8364
  21263117.2734   24212342.20748  18875154.28846  20858312.0234   20858309.4344
  34681290.00447  27035809.08146  21924923.2974                   21924921.4694
 11  7 30  1 51  0.0000000  0  9G02G17G09G25G04G27G12G10G05
                                  19050224.42248  14855383.81647  20544601.9454
  20544597.5124   19669093.66047  15335661.20045  23269984.7664   23269982.8284
  38949700.94547  30361644.19544  23867845.7734   23867846.6644
  48785582.48447  38024992.55944  23885741.6414   23885742.8054   20356822.87948
  15872107.03345                  21724461.2814
                  21724459.2624   31855186.10546  24830407.17343  24054961.4454
  24054961.9304   28806592.68848  22456313.62846                  21246343.4224
  21246340.8714   24177571.93448  18848060.58646  20851695.4774   20851692.8164
  34557103.36347  26939040.32446  21901290.7664                   21901289.6724
 11  7 30  1 51 30.0000000  0  9G02G17G09G25G04G27G12G10G05
                                  19016598.49648  14829181.81947  20538203.3204
  20538198.9344   19691290.12547  15352957.12244  23274209.0004   23274206.3014
  38996953.85946  30398464.54943  23876838.1564   23876837.6454
  48653407.33247  37921998.94744  23860589.9454   23860590.2074   20399201.51248
  15905129.33045                  21732525.6564
                  21732523.9064   31885571.97746  24854084.43443  24060743.6484
  24060744.8284   28718896.89548  22387979.26146                  21229655.5234
  21229652.9614   24143439.29348  18821463.74146  20845200.2504   20845198.0984
  34433237.59447  26842521.60446  21877720.4924                   21877718.5664
 11  7 30  1 52  0.0000000  0  9G02G17G09G25G04G27G12G10G05
                                  18983263.22348  14803206.29647  20531860.0944
  20531855.5554   19713650.78947  15370381.01045  23278464.3834   23278462.1254
  39044332.55946  30435382.94544  23885854.2274   23885854.1994
  48521442.59447  37819169.24744  23835478.3914   23835478.3204   20441718.15648
  15938259.16445                  21740616.3674
                  21740614.7344   31915995.57446  24877790.99943  24066533.4924
  24066534.6914   28631667.51648  22320008.33246                  21213056.5474
  21213053.6604   24109943.06348  18795362.80246  20838826.0944   20838823.7274
  34309694.55547  26746254.35346  21854210.5634                   21854209.1054
 11  7 30  1 52 30.0000000  0  9G02G17G09G25G04G27G12G10G05
                                  18950218.75448  14777457.36747  20525571.7344
  20525566.7274   19736176.87547  15387933.75944  23282750.2664   23282748.4614
  39091834.93446  30472397.74443  23894892.6884   23894893.9224
  48389691.92247  37716506.36744  23810406.7114   23810406.9844   20484371.96148
  15971495.86945                  21748732.8364
                  21748731.0594   31946455.12146  24901525.61643  24072330.0314
  24072331.4064   28544908.43448  22252403.87546                  21196546.7274
  21196544.1214   24077084.64848  18769758.85246  20832573.4774   20832570.8524
  34186478.00047  26650241.51146  21830763.5234                   21830761.9774
 11  7 30  1 53  0.0000000  0  9G02G17G09G25G04G27G12G10G05
                                  18917463.67248  14751933.93247  20519338.4144
  20519334.5084   19758868.58247  15405615.59544  23287068.2664   23287066.8984
  39139457.31346  30509505.98943  23903955.1254   23903956.3634
  48258157.87947  37614012.29544  23785376.9064   23785376.9494   20527160.94148
  16004837.92545                  21756875.8524
                  21756873.6884   31976947.77746  24925286.02143  24078131.7034
  24078133.1914   28458620.64148  22185166.64946                  21180126.2814
  21180123.7344   24044864.16448  18744651.99546  20826441.9224   20826439.8164
  34063590.61347  26554485.16346  21807378.4924                   21807376.8634
 11  7 30  1 53 30.0000000  0  9G02G17G09G25G04G27G12G10G05
                                  18884993.89148  14726632.81547  20513160.0004
  20513154.9494   19781723.57847  15423424.66445  23291417.6564   23291415.6254
  39187193.19146  30546702.69644  23913039.2734   23913040.4734
  48126840.00847  37511686.62844  23760387.3754   23760387.6884   20570080.09848
  16038281.41445                  21765042.6804
                  21765040.9574   32007467.65246  24949067.70343  24083940.1884
  24083941.3014   28372803.69948  22118296.32246                  21163796.0234
  21163793.2934   24013278.38348  18720039.71946  20820431.5474   20820428.6644
  33941032.25447  26458985.19646  21784056.4304                   21784054.8714
 11  7 30  1 54  0.0000000  0  9G02G17G09G25G04G27G12G10G05
                                  18852809.60548  14701554.16147  20507035.1024
  20507030.6374   19804743.42647  15441362.20844  23295798.4144   23295795.6294
  39235040.53146  30583986.26244  23922144.5394   23922145.6524
  47995742.18047  37409532.50344  23735440.0634   23735440.5434   20613128.81348
  16071825.85345                  21773234.8364
                  21773232.9694   32038013.52346  24972869.51343  24089753.1884
  24089753.9454   28287460.63348  22051795.25346                  21147555.8594
  21147553.2774   23982328.43848  18695922.90146  20814541.8984   20814539.0824
  33818806.75847  26363744.59446  21760797.7894                   21760795.5784
 11  7 30  1 54 30.0000000  0  9G02G17G09G25G04G27G12G10G05
                                  18820908.40647  14676696.08047  20500964.7194
  20500960.4774   19827927.17247  15459427.42044  23300209.4844   23300208.1374
  39282994.85946  30621353.17544  23931269.7034   23931270.5664
  47864865.91047  37307550.94944  23710535.1954   23710535.3444   20656303.82848
  16105468.70245                  21781450.5864
                  21781449.0434   32068581.22746  24996688.37443  24095569.2194
  24095571.6684   28202592.63348  21985664.35946                  21131405.8134
  21131403.2384   23952013.46147  18672300.84946  20808772.9454   20808770.7074
  33696916.05147  26268764.86746  21737602.5394                   21737600.7584
 11  7 30  1 55  0.0000000  0  9G02G17G09G25G04G27G12G10G05
                                  18789289.42248  14652057.91947  20494947.7274
  20494943.2074   19851275.77746  15477621.12044  23304652.6564   23304652.0554
  39331053.00847  30658801.04644  23940415.3524   23940416.0634
  47734214.11347  37205744.34844  23685673.3674   23685673.3444   20699603.55548
  16139208.74245                  21789690.3134
                  21789688.7114   32099168.28946  25020522.37143  24101390.9454
  24101392.0634   28118202.23448  21919905.62746                  21115346.7734
  21115344.2424   23922333.80148  18649173.85946  20803125.0394   20803122.7344
  33575362.78547  26174048.10046  21714471.4384                   21714469.6844
 11  7 30  1 55 30.0000000  0  9G02G17G09G25G04G27G12G10G05
                                  18757952.59848  14627639.61647  20488984.4774
  20488979.8484   19874790.34446  15495944.15344  23309127.6804   23309125.5434
  39379212.46546  30696327.81744  23949579.7504   23949580.5004
  47603790.22347  37104115.34844  23660854.3134   23660854.6024   20743026.82448
  16173045.04745                  21797953.3134
                  21797952.0984   32129772.90246  25044369.96244  24107214.5944
  24107216.1484   28034291.52748  21854520.67746                  21099379.4144
  21099376.3324   23893290.15648  18626542.46546  20797598.4304   20797596.0084
  33454150.81347  26079597.25846  21691405.9454                   21691404.2424
 11  7 30  1 56  0.0000000  0  9G02G17G09G25G04G27G12G10G05
                                  18726897.78548  14603441.05047  20483075.2504
  20483070.4574   19898472.26246  15514397.59844  23313634.2034   23313632.4344
  39427471.03146  30733931.79744  23958763.4924   23958764.7304
  47473598.17647  37002666.97044  23636079.6644   23636080.2504   20786573.18448
  16206977.26645                  21806240.2974
                  21806238.2464   32160393.68445  25068230.21843  24113041.2424
  24113042.5864   27950864.16048  21789512.34246                  21083503.3754
  21083500.7114   23864883.50448  18604407.42746  20792192.8444   20792190.5314
  33333284.21547  25985415.53546  21668405.6954                   21668403.9534
 11  7 30  1 56 30.0000000  0  9G02G17G09G25G04G27G12G10G05
                                  18696120.00048  14579458.35847  20477218.0704
  20477213.9104   19922318.44946  15532979.03344  23318171.6174   23318170.5514
  39475821.52746  30771607.41744  23967963.9614   23967965.3204
  47343636.72747  36901398.32344  23611348.4304   23611349.6254   20830236.71948
  16241000.80745                  21814548.6094
                  21814547.3554   32191024.00846  25092097.91144  24118870.7664
  24118872.2934   27867918.37148  21724879.28446                  21067719.5394
  21067717.0274   23837109.82448  18582765.61346  20786907.4774   20786905.4414
  33212761.43047  25891501.73146  21645470.8054                   21645469.1684
 11  7 30  1 57  0.0000000  0  9G02G17G09G25G04G27G12G10G05
                                  18665621.08248  14555692.96447  20471414.4454
  20471409.8914   19946331.93046  15551690.83944  23322741.6414   23322739.6644
  39524263.47346  30809354.29644  23977182.2274   23977183.2894
  47213911.34847  36800313.65244  23586662.5634   23586663.6214   20874018.60248
  16275116.55045                  21822880.3594
                  21822878.1994   32221663.85246  25115972.98444  24124701.4614
  24124702.6254   27785458.95348  21660625.20746                  21052028.0234
  21052025.3484   23809971.70348  18561619.03546  20781743.2814   20781741.1374
  33092588.35948  25797860.42846  21622602.7424                   21622600.9694
 11  7 30  1 57 30.0000000  0  9G02G17G09G25G04G27G12G10G05
                                  18635401.84048  14532145.50747  20465663.7814
  20465659.4614   19970514.75446  15570534.60444  23327342.7664   23327342.6174
  39572795.21146  30847171.16044  23986416.9144   23986418.8204
  47084426.52747  36699416.43444  23562022.6414   23562023.0434   20917918.84448
  16309324.53845                  21831234.0634
                  21831232.6994   32252312.14146  25139854.72244  24130532.9064
  24130534.9534   27703489.83648  21596753.18546                  21036429.7504
  21036427.3714   23783470.82848  18540969.02346  20776700.0634   20776697.6414
  32972769.64848  25704495.23946  21599801.8914                   21599800.3324
 11  7 30  1 58  0.0000000  0  8G02G17G09G25G04G12G10G05
                                  18605457.11748  14508811.95547  20459965.7344
  20459961.2854   19994864.02346  15589508.03244  23331977.2194   23331975.6294
  39621409.93046  30885052.68144  23995668.6484   23995669.6134
  46955181.41847  36598706.00044  23537428.5704   23537428.4774   20961931.84448
  16343620.37145                  21839609.6804                   21839607.8984
                  27622009.13348  21533261.73846                  21020924.7274
  21020921.8674   23757603.87948  18520812.97146  20771778.1884   20771776.0274
  32853304.53148  25611405.59146  21577068.3834                   21577066.7774
 11  7 30  1 58 30.0000000  0  8G02G17G09G25G04G12G10G05
                                  18575791.71548  14485696.05647  20454320.5554
  20454315.9304   20019385.86746  15608615.99344  23336643.5634   23336641.8164
  39670110.36346  30923000.96143  24004936.3284   24004937.0864
  46826184.42647  36498188.91444  23512880.4774   23512881.6564   21006061.61747
  16378007.20645                  21848006.6564                   21848005.8094
                  27541024.93048  21470157.17046                  21005513.6094
  21005511.1094   23732376.01248  18501154.91746  20766977.4454   20766975.0824
  32734201.50847  25518598.10646  21554403.5394                   21554402.1604
 11  7 30  1 59  0.0000000  0  8G02G17G09G25G04G12G10G05
                                  18546411.18848  14462802.14047  20448729.3364
  20448725.0904   20044087.30947  15627863.85244  23341344.2974   23341341.9654
  39718899.61346  30961018.51343  24014220.4454   24014221.8714
  46697444.86747  36397872.39844  23488382.2734   23488383.6454   21050313.11348
  16412488.88245                  21856427.7894                   21856426.5394
                  27460545.41048  21407445.86446                  20990199.0004
  20990196.5704   23707793.50848  18481999.74446  20762299.0164   20762297.4494
  32615469.67648  25426079.83646  21531810.0234                   21531808.2424
 11  7 30  1 59 30.0000000  0  8G02G17G09G25G04G12G10G05
                                  18517312.85548  14440128.11947  20443192.4144
  20443187.9414   20068966.79747  15647250.48244  23346078.7114   23346076.2814
  39767772.95747  30999101.54643  24023521.6024   24023521.5514
  46568963.88347  36297757.39344  23463933.0394   23463934.1844   21094682.92648
  16447062.74845                  21864870.8444                   21864869.8914
                  27380571.23848  21345128.32846                  20974980.4144
  20974977.6684   23683854.88348  18463346.27746  20757743.9614   20757741.8054
  32497110.19148  25333851.71346  21509286.6724                   21509285.0904
 11  7 30  2  0  0.0000000  0  8G02G17G09G25G04G12G10G05
                                  18488490.33648  14417669.01347  20437707.6724
  20437702.8364   20094019.52347  15666772.07844  23350846.1484   23350843.9734
  39816721.60547  31037243.27544  24032836.4534   24032836.7154
  46440738.57447  36197841.64144  23439532.6174   23439533.4264   21139163.59447
  16481722.99245                  21873335.6724                   21873334.5124
                  27301098.59048  21283201.59846                  20959857.5474
  20959854.4774   23660554.21948  18445189.92646  20753309.9774   20753307.9574
  32379120.32847  25241911.61646  21486834.1414                   21486832.4534
 11  7 30  2  0 30.0000000  0  8G02G17G09G25G04G12G10G05
                                  18459943.20348  14395424.49747  20432275.3054
  20432270.7854   20119246.70347  15686429.65644  23355646.2584   23355644.1484
  39865742.94146  31075441.64243  24042163.9144   24042164.4964
  46312772.43447  36098127.82844  23415181.7584   23415182.3284   21183754.16448
  16516468.86145                  21881821.0554                   21881819.5704
                  27222130.39148  21221667.94046                  20944830.0084
  20944827.1684   23637891.83648  18427530.95046  20748997.4064   20748995.3834
  32261503.57847  25150262.25346  21464452.1564                   21464450.4224
 11  7 30  2  1  0.0000000  0  8G02G17G09G25G04G12G10G05
                                  20007090.01648  15600993.45147  20726687.4304
  20726683.3014   21720066.57847  16933821.73644  23660272.4064   23660270.7854
  41490250.52747  32341291.62244  24351298.1644   24351298.1134
  47760491.14147  37226220.39244  23690673.1254   23690673.9614   22803870.27047
  17778896.99945                  22190118.8754                   22190117.4224
                  28719089.90248  22388129.90546                  21229691.9844
  21229689.6334                   25191286.80548  19637968.59046  21044598.7504
  21044596.9614   33719685.36347  26286507.85146  21741935.1094   21741933.0824
 11  7 30  2  1 30.0000000  0  8G02G17G09G25G04G12G10G05
                                  19979083.11748  15579169.89247  20721357.8594
  20721353.5634   21745637.22747  16953746.93144  23665138.1954   23665136.2584
  41539400.51247  32379590.22044  24360651.4774   24360651.1134
  47633044.72347  37126911.51744  23666421.0864   23666421.3244   22848668.88747
  17813805.01445                  22198643.6804                   22198642.2464
                  28641129.27048  22327381.36346                  21214856.3594
  21214853.8674                   25169893.27048  19621298.32746  21040527.6024
  21040525.5784   33602816.37547  26195441.16446  21719695.4224   21719693.7704
 11  7 30  2  2  0.0000000  0  8G02G17G09G25G04G12G10G05
                                  19951347.22348  15557557.51547  20716080.2114
  20716075.5164   21771382.28947  16973807.99544  23670037.5004   23670035.7934
  41588612.65247  32417937.27443  24370015.4534   24370016.6334
  47505864.73847  37027810.28444  23642219.7664   23642219.9844   22893571.43848
  17848793.98945                  22207188.6024                   22207186.4264
                  28563678.06348  22267029.78046                  21200118.2194
  21200115.2734                   25149136.12548  19605123.94346  21036577.5084
  21036575.7114   33486327.75447  26104670.86946  21697528.4774   21697526.5864
 11  7 30  2  2 30.0000000  0  8G02G17G09G25G04G12G10G05
                                  19923877.85548  15536152.81447  20710852.7814
  20710848.2664   21797298.96547  16994002.79544  23674968.7504   23674967.1564
  41637880.20747  32456327.54543  24379390.7424   24379390.8134
  47378950.35547  36928916.02144  23618068.3594   23618068.6994   22938572.78547
  17883859.97645                  22215752.0394                   22215750.1024
                  28486734.45748  22207073.72946                  21185476.2344
  21185473.8444                   25129011.62948  19589442.53646  21032748.2814
  21032746.1134   33370218.82448  26014196.42446  21675433.6954   21675431.7704
 11  7 30  2  3  0.0000000  0  8G02G17G09G25G04G12G10G05
                                  19896673.94148  15514954.96447  20705676.0314
  20705671.4654   21823387.52347  17014331.54045  23679933.1174   23679931.7424
  41687199.70346  32494758.26743  24388775.6564   24388777.0744
  47252304.40247  36830230.93044  23593968.3834   23593969.0314   22983671.09847
  17919001.49745                  22224333.7974                   22224331.8874
                  28410300.35948  22147514.69446                  21170931.4224
  21170928.4304                   25109519.13348  19574253.58846  21029038.7424
  21029036.6484   33254492.27347  25924019.94646  21653411.5394   21653409.7974
 11  7 30  2  3 30.0000000  0  8G02G17G09G25G04G12G10G05
                                  19869734.82448  15493963.44347  20700549.7344
  20700545.2384   21849649.07447  17034795.06445  23684930.7034   23684929.3364
  41736568.68846  32533227.55643  24398170.7274   24398171.1134
  47125930.09847  36731757.48044  23569920.4924   23569920.9534   23028865.32447
  17954217.76445                  22232934.1644                   22232932.2544
                  28334378.23448  22088354.59446                  21156483.6724
  21156481.0744                   25090658.95348  19559557.35846  21025449.6884
  21025447.6524   33139151.37148  25834143.95246  21631462.7424   21631461.1374
 11  7 30  2  4  0.0000000  0  8G02G17G09G25G04G12G10G05
                                  19843058.25848  15473176.51546  20695473.5394
  20695469.0124   21876082.61347  17055392.64444  23689960.7034   23689958.9384
  41785982.76646  32571731.87143  24407574.0394   24407574.2194
  46999829.02747  36633496.93144  23545923.9144   23545924.0394   23074152.80947
  17989506.71545                  22241552.0784                   22241550.7704
                  28258968.82448  22029594.02446                  21142133.9614
  21142131.0354                   25072429.27748  19545352.42946  21021980.6254
  21021978.7704   33024197.65247  25744569.68846  21609587.8834   21609586.0164
 11  7 30  2  4 30.0000000  0  8G02G17G09G25G04G12G10G05
                                  19816643.60248  15452593.67647  20690446.6954
  20690441.9064   21902688.87546  17076124.80044  23695023.2584   23695022.0864
  41835439.19146  32610269.29343  24416984.9144   24416986.3794
  46874004.41047  36535451.81044  23521979.7344   23521980.3984   23119532.09047
  18024867.16745                  22250187.5554                   22250185.8484
                  28184073.88348  21971234.34146                  21127881.8674
  21127879.4224                   25054829.99248  19531638.72246  21018631.4384
  21018629.5084   32909634.09048  25655299.41146  21587787.3134   21587785.2854
 11  7 30  2  5  0.0000000  0  8G02G17G09G25G04G12G10G05
                                  19790490.41448  15432214.58247  20685469.6334
  20685465.4734   21929469.27747  17096992.63745  23700119.6564   23700118.4144
  41884935.67646  32648837.90043  24426404.0554   24426405.3054
  46748459.52747  36437624.65944  23498089.9694   23498090.2464   23165002.41447
  18060298.58545                  22258839.8914                   22258838.7974
                  28109696.27048  21913277.76446                  21113728.4534
  21113725.8634                   25037861.09848  19518416.21546  21015402.6024
  21015400.4224   32795463.73448  25566335.54646  21566061.0634   21566059.2384
 11  7 30  2  5 30.0000000  0  8G02G17G09G25G04G12G10G05
                                  19764596.01648  15412037.13546  20680542.5234
  20680537.5594   21956422.41847  17117995.08544  23705248.6174   23705247.4184
  41934466.98446  32687433.62943  24435828.8594   24435831.0784
  46623195.41847  36340016.30244  23474252.7344   23474253.2384   23210560.18447
  18095798.14545                  22267509.4614                   22267508.6374
                  28035835.83648  21855724.18346                  21099672.9844
  21099670.2464                   25021520.32848  19505683.15846  21012293.2034
  21012291.1884   32681688.00448  25477679.17246  21544410.3524   21544408.4024
 11  7 30  2  6  0.0000000  0  8G02G17G09G25G04G12G10G05
                                  19738957.24248  15392058.87446  20675663.5864
  20675659.1374   21983546.60547  17139130.80245  23710410.7034   23710408.9384
  41984028.03546  32726052.53343  24445259.9774   24445261.5354
  46498212.96947  36242627.40044  23450469.8834   23450470.0904   23256202.10947
  18131363.26945                  22276194.6024                   22276193.1054
                  27962492.74248  21798573.72846                  21085716.4614
  21085713.3914                   25005805.36748  19493437.75146  21009302.7274
  21009300.4844   32568307.56348  25389330.81346  21522834.8204   21522832.7624
 11  7 30  2  6 30.0000000  0  8G02G17G09G25G04G12G10G05
                                  19713573.29748  15372279.18646  20670833.0164
  20670828.7934   22010842.64547  17160400.43845  23715604.8834   23715603.6884
  42033616.01646  32764692.47743  24454697.0164   24454698.2814
  46373515.18447  36145460.29945  23426740.1484   23426740.8444   23301926.69547
  18166992.80145                  22284896.3674                   22284894.6914
                  27889668.91048  21741827.89746                  21071858.7814
  21071855.5234                   24990715.66848  19481679.55746  21006431.1884
  21006429.0904   32455325.19948  25301292.65446  21501334.6334   21501333.1094
 11  7 30  2  7  0.0000000  0  8G02G17G09G25G04G12G10G05
                                  19688444.94948  15352698.65747  20666051.3364
  20666046.9494   22038312.66847  17181805.66045  23720832.5004   23720830.3954
  42083229.82846  32803352.49443  24464138.6564   24464140.2074
  46249106.64147  36048518.59045  23403065.7194   23403066.1024   23347734.24647
  18202686.96945                  22293612.3674                   22293611.3404
                  27817368.07448  21685489.58946                  21058100.1724
  21058097.2814                   24976252.69548  19470409.71646  21003679.1724
  21003676.7304   32342745.41448  25213568.18746  21479911.6954   21479909.5554
 11  7 30  2  7 30.0000000  0  8G02G17G09G25G04G12G10G05
                                  19663573.39148  15333318.23447  20661318.6174
  20661313.7464   22065959.27747  17203348.45944  23726093.3594   23726091.1844
  42132868.53946  32842031.88344  24473584.3754   24473585.8834
  46124992.32447  35951806.16445  23379447.6334   23379448.3444   23393625.49247
  18238446.36345                  22302345.7034                   22302344.2894
                  27745594.56648  21629562.19446                  21044441.8524
  21044439.3484                   24962418.05548  19459629.48746  21001046.5634
  21001044.0434   32230573.03548  25126161.17446  21458565.9534   21458563.8484
 11  7 30  2  8  0.0000000  0  8G02G17G09G25G04G12G10G05
                                  19638957.84048  15314137.29547  20656634.1564
  20656629.4454   22093782.93047  17225029.24344  23731388.1884   23731387.1844
  42182529.26246  32880728.48043  24483034.6174   24483036.2274
  46001175.27747  35855325.36645  23355886.5394   23355886.6844   23439599.26247
  18274270.07245                  22311094.0394                   22311092.5634
                  27674349.55948  21574046.61246                  21030884.4144
  21030882.0234                   24949211.12547  19449338.40246  20998533.2424
  20998530.6524   32118810.94148  25039073.87246  21437298.1094   21437295.7034
 11  7 30  2  8 30.0000000  0  8G02G17G09G25G04G12G10G05
                                  19614594.79748  15295153.11147  20651997.9144
  20651993.6644   22121781.90246  17246846.58544  23736716.2114   23736713.9414
  42232206.62146  32919438.01844  24492488.3834   24492490.2664
  45877655.95747  35759076.53545  23332381.6414   23332381.4774   23485651.53947
  18310154.96345                  22319857.4064                   22319855.7584
                  27603632.52348  21518942.43746                  21017427.3134
  21017424.4414                   24936628.79748  19439534.00646  20996138.8284
  20996136.2774   32007459.76648  24952306.76646  21416108.9064   21416106.6334
 11  7 30  2  9  0.0000000  0  8G02G17G09G25G04G12G10G05
                                  19590482.48448  15276364.30646  20647409.4064
  20647404.8954   22149955.97746  17268800.41744  23742077.8284   23742074.4494
  42281896.92646  32958157.59944  24501944.4144   24501945.5434
  45754436.36347  35663061.26345  23308933.5634   23308933.9264   23531780.03947
  18346099.24845                  22328636.0634                   22328634.5904
                  27533444.71948  21464250.63846                  21004070.9064
  21004068.2734                   24924669.68448  19430215.21846  20993863.1564
  20993860.5664   31896520.97748  24865860.98746  21394997.7274   21394995.8094
 11  7 30  2  9 30.0000000  0  8G02G17G09G25G04G12G10G05
                                  19566621.81348  15257771.58547  20642868.9304
  20642864.4534   22178307.24246  17290892.31044  23747472.6804   23747471.1454
  42331598.67646  32996886.12844  24511402.1804   24511403.4304
  45631521.18047  35567283.21645  23285543.4454   23285544.3134   23577985.10947
  18382103.17845                  22337428.4924                   22337426.4694
                  27463789.98848  21409974.24446                  20990816.5634
  20990813.4184                   24913335.09448  19421383.09246  20991706.1024
  20991703.4884   31785999.17248  24779740.13746  21373966.1024   21373963.8484
 11  7 30  2 10  0.0000000  0  8G02G17G09G25G04G12G10G05
                                  19543008.37548  15239371.49947  20638375.5944
  20638371.1564   22206832.68046  17313119.93144  23752900.9924   23752898.8674
  42381305.32046  33035618.47444  24520861.6254   24520862.2894
  45508909.78947  35471741.88245  23262211.0314   23262211.8674   23624262.04348
  18418163.12145                  22346234.6644                   22346232.3484
                  27394666.24648  21356111.59246                  20977662.4924
  20977659.6604                   24902620.77347  19413034.27846  20989667.3444
  20989664.6994   31675893.42248  24693943.48846  21353013.7584   21353011.4694
 11  7 30  2 10 30.0000000  0  7G02G17G25G04G12G10G05
                                  19519641.75048  15221163.74347  20633928.8054
  20633924.3014   22235533.11746  17335483.91544  23758362.2584   23758360.5354
  45386605.26247  35376439.69045  23238937.0004   23238938.0204   23670609.58247
  18454278.06245                  22355054.4144                   22355052.3014
                  27326075.39547  21302664.18546                  20964609.8914
  20964607.3674                   24892526.31648  19405168.47846  20987746.5164
  20987743.9264   31566206.96948  24608473.56846  21332140.8444   21332139.0204
 11  7 30  2 11  0.0000000  0  7G02G17G25G04G12G10G05
                                  19496527.94948  15203152.99746  20629530.5234
  20629526.3364   22264416.09846  17357990.11044  23763858.6724   23763857.4264
  45264617.84847  35281384.60145  23215724.0164   23215724.7384   23717033.82847
  18490452.78045                  22363887.9924                   22363886.4574
                  27258026.81648  21249639.33146                  20951661.2584
  20951658.0514                   24883058.05148  19397790.60446  20985944.8984
  20985942.1604   31456949.73848  24523338.10846  21311349.9924   21311348.1254
 11  7 30  2 11 30.0000000  0  7G02G17G25G04G12G10G05
                                  19473664.59048  15185337.39747  20625179.8524
  20625175.4454   22293481.91856  17380639.01354  23769389.0164   23769387.5474
  45142949.09047  35186577.79844  23192570.6174   23192571.6094   23763531.89847
  18526685.03145                  22372737.1804                   22372735.1454
                  27190520.85248  21197037.28246                  20938814.6804
  20938811.7974                   24874214.15247  19390899.27746  20984261.6644
  20984259.3284   31348122.94948  24438538.04246  21290640.9844   21290639.0314
 11  7 30  2 12  0.0000000  0  7G02G17G25G04G12G10G05
                                  19451057.13748  15167721.19347  20620877.8594
  20620873.1024   22322735.28546  17403433.83944  23774955.6564   23774954.1374
  45021608.03147  35092026.35745  23169480.5554   23169481.4144   23810108.97748
  18562978.84345                  22381600.3984                   22381598.5744
                  27123565.28147  21144864.11846                  20926073.6564
  20926070.7304                   24866000.02747  19384498.65946  20982698.6414
  20982696.2704   31239735.43048  24354080.27146  21270015.6254   21270013.4184
 11  7 30  2 12 30.0000000  0  7G02G17G25G04G12G10G05
                                  19428702.56648  15150302.05247  20616624.0554
  20616619.3284   22352175.35246  17426374.15744  23780557.8204   23780556.5784
  44900595.41047  34997730.83345  23146452.9694   23146453.3954   23856761.29347
  18599331.27445                  22390478.1174                   22390475.8444
                  27057160.09048  21093119.82446                  20913437.3134
  20913434.1294                   24858412.67647  19378586.44546  20981254.7194
  20981252.4184   31131787.86348  24269965.31846  21249473.8594   21249471.5594
 11  7 30  2 13  0.0000000  0  7G02G17G25G04G12G10G05
                                  19406594.32448  15133074.85446  20612416.7814
  20612412.1684   22381797.36746  17449456.21543  23786195.1254   23786193.5514
  44779908.69947  34903689.26545  23123486.6254   23123487.2584   23903482.12147
  18635737.11945                  22399368.5394                   22399366.8484
                  26991300.93047  21041801.01346                  20900904.5554
  20900901.9694                   24851446.17647  19373158.01646  20979928.7974
  20979926.9384   31024277.14848  24186190.77946  21229015.3594   21229012.6914
 11  7 30  2 13 30.0000000  0  7G02G17G25G04G12G10G05
                                  19384727.52748  15116035.80347  20608256.0394
  20608251.0594   22411597.42646  17472677.03144  23791865.7814   23791863.6914
  44659546.37547  34809900.46345  23100582.3834   23100583.2194   23950266.14547
  18672192.15945                  22408271.8754                   22408269.5744
                  26925985.19947  20990905.64646                  20888475.2664
  20888472.4224                   24845095.07047  19368209.10946  20978720.1094
  20978718.4654   30917201.78148  24102755.46046  21208639.0164   21208636.9804
 11  7 30  2 14  0.0000000  0  7G02G17G25G04G12G10G05
                                  19363100.92248  15099183.90147  20604140.3204
  20604135.6604   22441576.02346  17496037.01544  23797570.2734   23797569.5164
  44539511.48847  34716366.79245  23077740.9384   23077741.3874   23997111.84447
  18708695.29245                  22417185.1804                   22417184.5664
                  26861215.03148  20940435.40246                  20876150.2894
  20876147.3404                   24839358.46147  19363739.03246  20977628.6024
  20977626.6724   30810564.41848  24019661.44646  21188346.9924   21188344.6724
 11  7 30  2 14 30.0000000  0  7G02G17G25G04G12G10G05
                                  19341712.87548  15082517.89947  20600070.2734
  20600066.1414   22471732.69146  17519535.70744  23803308.9844   23803307.3324
  44419805.99647  34623089.81745  23054961.5084   23054962.9104   24044017.14147
  18745244.84645                  22426111.2664                   22426109.4494
                  26796990.75047  20890390.51746                  20863928.5554
  20863925.7274                   24834234.45747  19359746.32146  20976653.9844
  20976651.3444   30704366.82448  23936910.11446  21168138.0864   21168135.7234
 11  7 30  2 15  0.0000000  0  7G02G17G25G04G12G10G05
                                  19320562.72748  15066037.27347  20596045.6484
  20596041.3364   22502067.94146  17543173.57843  23809081.7734   23809080.4344
  44300432.69547  34530071.68745  23032245.2814   23032246.4494   24090980.92247
  18781840.00145                  22435047.6884                   22435046.4024
                  26733314.03948  20840772.31646                  20851811.1724
  20851808.3554                   24829722.27047  19356230.33546  20975795.1644
  20975793.0084   30598611.39148  23854503.31746  21148013.6024   21148011.2034
 11  7 30  2 15 30.0000000  0  7G02G17G25G04G12G10G05
                                  19299649.82048  15049741.51347  20592066.0704
  20592061.6684   22532582.53946  17566951.19543  23814888.1564   23814886.7424
  44181395.16447  34437315.18645  23009593.2734   23009594.2544   24138002.35547
  18818480.05344                  22443996.1804                   22443993.8014
                  26670187.29348  20791582.65646                  20839798.6884
  20839796.0164                   24825821.71147  19353190.94846  20975052.8054
  20975050.6564   30493301.57448  23772443.75446  21127973.6414   21127971.2034
 11  7 30  2 16  0.0000000  0  7G02G17G25G04G12G10G05
                                  19278972.66448  15033629.45247  20588131.3984
  20588127.1134   22563276.72746  17590868.76944  23820728.4384   23820727.4024
  44062695.60247  34344822.03945  22987005.6644   22987006.2974   24185079.78547
  18855163.73945                  22452954.6414                   22452952.5824
                  26607611.35948  20742822.19846                  20827891.0084
  20827888.1684                   24822531.27747  19350626.98346  20974426.5784
  20974424.1054   30388439.34848  23690732.95646  21108019.1254   21108016.8834
 11  7 30  2 16 30.0000000  0  7G02G17G25G04G12G10G05
                                  19258525.81348  15017696.85747  20584240.2034
  20584235.9344   22594146.12146  17614922.82544  23826603.5084   23826602.6844
  43944332.36747  34252590.98645  22964481.8524   22964482.8714   24232207.30547
  18891886.44745                  22461922.7664                   22461920.8554
                  26545583.45748  20694488.77946                  20816087.4694
  20816084.4344                   24819845.35248  19348534.06546  20973915.4844
  20973913.2344   30284022.28148  23609369.05246  21088148.9144   21088146.6604
 11  7 30  2 17  0.0000000  0  7G02G17G25G04G12G10G05
                                  19238314.64148  15001947.91347  20580394.0784
  20580390.2934   22625197.67646  17639118.84244  23832512.3134   23832511.4534
  43826314.51247  34160629.01045  22942023.9304   22942024.9734   24279390.00447
  18928652.17845                  22470901.4384                   22470900.2664
                  26484111.04747  20646588.21446                  20804389.3674
  20804386.8984                   24817769.19547  19346916.29646  20973520.2814
  20973518.0394   30180059.50448  23528359.13746  21068365.6724   21068363.6804
 11  7 30  2 17 30.0000000  0  7G02G17G25G04G12G10G05
                                  19218335.52048  14986379.77047  20576592.3594
  20576588.0084   22656428.60946  17663454.67944  23838456.0784   23838453.1294
  43708641.97747  34068936.17245  22919631.5164   22919632.1174   24326623.64147
  18965457.59844                  22479889.5164                   22479888.1954
                  26423192.57448  20599119.29846                  20792797.1094
  20792794.3984                   24816298.70748  19345770.45846  20973240.6334
  20973238.2664   30076550.77348  23447703.01146  21048668.5784   21048666.3594
 11  7 30  2 18  0.0000000  0  7G02G17G25G04G12G10G05
                                  19198588.03548  14970992.13047  20572834.4694
  20572830.0234   22687840.04346  17687931.15144  23844432.4144   23844431.3054
  43591318.35247  33977515.19445  22897305.2504   22897305.7074   24373907.77747
  19002302.38845                  22488887.0554                   22488885.8324
                  26362830.48048  20552083.91046                  20781310.3284
  20781307.8634                   24815433.81648  19345096.54246  20973076.1804
  20973073.9064   29973498.91448  23367402.90046  21029058.5704   21029055.8404
 11  7 30  2 18 30.0000000  0  7G02G17G25G04G12G10G05
                                  19179069.10248  14955782.58047  20569120.1254
  20569115.9454   22719430.77746  17712547.30544  23850444.8594   23850442.8984
  43474344.74647  33886366.93845  22875045.7424   22875046.5474   24421239.57047
  19039184.29145                  22497894.2034                   22497892.4804
                  26303024.38748  20505481.78446                  20769930.0234
  20769927.1334                   24815171.40648  19344892.07246  20973026.0944
  20973023.6254   29870904.90648  23287459.56046  21009535.4614   21009532.9454
 11  7 30  2 19  0.0000000  0  7G02G17G25G04G12G10G05
                                  19159777.64848  14940750.28946  20565449.0004
  20565445.0474   22751200.02046  17737302.59044  23856489.7424   23856488.6134
  43357722.88747  33795492.80245  22852853.3524   22852853.9844   24468616.80147
  19076101.60844                  22506910.4614                   22506908.2194
                  26243774.75448  20459313.25046                  20758654.6484
  20758652.0044                   24815509.39148  19345155.43846  20973090.3914
  20973088.0164   29768769.89848  23207873.87646  20990099.7504   20990097.6174
 11  7 30  2 19 30.0000000  0  7G02G17G25G04G12G10G05
                                  19140713.11348  14925894.81746  20561821.5084
  20561816.7814   22783148.90246  17762197.80044  23862569.6564   23862568.9024
  43241456.36347  33704895.54545  22830728.8594   22830729.7384   24516038.75047
  19113053.78445                  22515934.2814                   22515931.8554
                  26185083.54748  20413579.86046                  20747486.3834
  20747483.5664                   24816447.17248  19345886.19046  20973268.8524
  20973266.7934   29667097.30148  23128648.51346  20970751.7814   20970749.9734
 11  7 30  2 20  0.0000000  0  7G02G17G25G04G12G10G05
                                  19121873.52348  14911214.62746  20558236.3524
  20558231.7704   22815276.73046  17787232.45344  23868683.1644   23868682.9804
  43125546.95347  33614576.54445  22808672.0864   22808672.2934   24563503.44547
  19150039.22644                  22524966.6094                   22524964.8714
                  26126951.53948  20368282.20146                  20736423.9144
  20736421.0904                   24817982.76248  19347082.76846  20973560.9844
  20973558.7504   29565888.41448  23049784.47046  20951492.3444   20951490.3484
 11  7 30  2 20 30.0000000  0  7G02G17G25G04G12G10G05
                                  19103258.14548  14896709.14646  20554693.7664
  20554689.2894   22847584.31346  17812407.18744  23874831.5164   23874830.4144
  43009997.80947  33524538.28145  22786684.0314   22786683.6214   24611010.25447
  19187057.49845                  22534006.6254                   22534004.7274
                  26069380.21548  20323421.44546                  20725468.8594
  20725465.8554                   24820115.25448  19348744.45546  20973966.8834
  20973964.9534   29465145.80548  22971283.78046  20932321.7814   20932319.8244
 11  7 30  2 21  0.0000000  0  7G02G17G25G04G12G10G05
                                  19084864.98048  14882376.80746  20551193.7424
  20551189.3364   22880070.69146  17837721.25744  23881013.5784   23881011.7274
  42894810.46547  33434781.92045  22764764.1884   22764764.5824   24658556.22747
  19224106.29844                  22543053.9774                   22543052.9694
                  26012369.39148  20278997.43846                  20714619.6724
  20714616.6684                   24822841.96948  19350869.17446  20974485.8444
  20974483.4654   29364870.89148  22893147.51046  20913240.1884   20913238.0634
 11  7 30  2 21 30.0000000  0  7G02G17G25G04G12G10G05
                                  19066694.53948  14868218.03546  20547735.8594
  20547731.5704   22912737.65246  17863176.02044  23887229.8914   23887227.7464
  42779989.17647  33345310.82845  22742914.4774   22742914.8984   24706142.05947
  19261186.16645                  22552109.5864                   22552108.3984
                  25955921.93448  20235012.42346                  20703878.2034
  20703875.6094                   24826163.25047  19353457.19446  20975117.8284
  20975115.9574   29265067.48448  22815378.66246  20894247.9694   20894246.2624
 11  7 30  2 22  0.0000000  0  7G02G17G25G04G12G10G05
                                  19048742.35948  14854229.33647  20544319.5634
  20544315.2544   22945582.14847  17888769.14944  23893479.9384   23893478.0594
  42665533.35547  33256124.49845  22721134.2034   22721134.5664   24753763.47747
  19298293.75445                  22561171.6484                   22561170.4144
                  25900035.96948  20191464.92046                  20693243.7504
  20693240.8714                   24830074.45748  19356504.90446  20975861.9534
  20975859.9494   29165734.26648  22737976.18446  20875345.5474   20875343.4924
 11  7 30  2 22 30.0000000  0  7G02G17G25G04G12G10G05
                                  19031010.46948  14840412.28947  20540945.4224
  20540941.0704   22978607.20746  17914502.93044  23899764.4064   23899762.9534
  42551448.37947  33167227.16145  22699424.6254   22699424.9454   24801421.54347
  19335429.91145                  22570241.0084                   22570239.0744
                  25844715.37548  20148357.98246                  20682716.3914
  20682713.4454                   24834576.64548  19360013.10846  20976719.0314
  20976716.3014   29066876.48048  22660944.18446  20856533.2274   20856531.4144
 11  7 30  2 23  0.0000000  0  7G02G17G25G04G12G10G05
                                  19013497.59848  14826765.91047  20537613.0234
  20537608.3754   23011813.23047  17940377.74545  23906083.4064   23906082.0744
  42437736.92647  33078620.84645  22677785.8134   22677786.3874   24849115.30947
  19372593.83845                  22579317.1174                   22579315.2504
                  25789961.14548  20105692.35346                  20672296.7894
  20672293.9964                   24839668.93048  19363981.13346  20977688.1334
  20977685.1724   28968496.27048  22584284.31047  20837812.2734   20837810.2934
 11  7 30  2 23 30.0000000  0  7G02G17G25G04G12G10G05
                                  20571625.05548  16040891.21047  20834114.7974
  20834110.1844   24620620.62547  19193993.90544  24212228.8284   24212228.1884
  43899827.02747  34217911.88845  22956012.2114   22956012.6884   26472263.35547
                                  20637384.51644  22888191.3984   22888189.6414
                  27311197.39548  21291071.25546                  20961778.6484
  20961775.8554                   26420770.74248  20596008.53146  21278561.6564
  21278558.9024   30446020.72348  23735602.10546  21118976.1334   21118974.0554
 11  7 30  2 24  0.0000000  0  7G02G17G25G04G12G10G05
                                  20554550.07848  16027586.04646  20830865.4304
  20830860.9884   24654190.98046  19220152.57544  24218616.6954   24218615.8204
  43786873.10547  34129895.86545  22934517.7974   22934518.3554   26520027.12947
                                  20674603.04044  22897280.5634   22897278.9184
                                  27257581.21948                  21249292.42646
  20951575.8674   20951573.0004   26427040.46148  20600894.03446  21279754.1094
  21279751.3984   30348604.62548  23659693.49746  21100438.3204   21100435.9964
 11  7 30  2 24 30.0000000  0  7G02G17G25G04G12G10G05
                                  20537691.19148  16014449.26647  20827657.2194
  20827652.7854   24687943.20347  19246453.02044  24225040.5314   24225037.5634
  43674301.10247  34042177.47045  22913096.1484   22913096.8244   26567823.21547
                                  20711846.71844  22906375.9924   22906374.1604
                                  27204535.19948                  21207957.86746
  20941481.2894   20941478.6884   26433895.66448  20606235.76146  21281059.1414
  21281056.5394   30251672.92648  23584162.32846  21081992.6334   21081990.5354
 11  7 30  2 25  0.0000000  0  7G02G17G25G04G12G10G05
                                  20521047.95348  16001480.52046  20824490.1804
  20824485.5354   24721877.39546  19272895.21844  24231497.2814   24231495.5944
  43562113.64547  33954758.69345  22891747.5084   22891748.0164   26615650.61747
                                  20749114.81044  22915476.8834   22915475.6884
                                  27152060.25048                  21167068.30346
  20931495.8594   20931493.3484   26441335.12548  20612032.74846  21282474.3834
  21282472.1524   30155227.69548  23509010.23446  21063639.7344   21063637.4304
 11  7 30  2 25 30.0000000  0  7G02G17G25G04G12G10G05
                                  20504617.94948  15988677.93547  20821363.6414
  20821359.1604   24755992.29746  19299478.24444  24237989.7814   24237988.1024
  43450311.99247  33867640.56545  22870472.2344   22870473.0554   26663506.73047
                                  20786405.27645  22924583.8284   22924582.3204
                                  27100155.94148                  21126623.39146
  20921618.5634   20921615.8094   26449356.12548  20618282.89946  21284001.2894
  21283998.7814   30059269.96148  23434238.01546  21045379.7664   21045377.3794
 11  7 30  2 26  0.0000000  0  7G02G17G25G04G12G10G05
                                  20488400.82448  15976041.23546  20818277.5634
  20818272.8834   24790288.66446  19326202.69144  24244516.2114   24244514.1174
  43338899.36347  33780825.58245  22849271.2274   22849271.4344   26711390.91447
                                  20823717.61944  22933695.7894   22933694.4614
                                  27048824.09448                  21086624.55047
  20911850.8444   20911847.8634   26457957.47747  20624985.25446  21285637.5704
  21285635.1294   29963802.29748  23359847.65846  21027212.5944   21027210.2704
 11  7 30  2 26 30.0000000  0  7G02G17G25G04G12G10G05
                                  20472396.02048  15963569.97747  20815232.1484
  20815227.2584   24824767.62946  19353069.34843  24251076.6094   24251074.5124
  43227879.07047  33694316.29345  22828144.6804   22828145.4734   26759302.89547
                                  20861051.62344  22942812.9774   22942811.3954
                                  26998066.07848                  21047072.86446
  20902191.5474   20902189.0394   26467138.07847  20632138.98846  21287384.3754
  21287382.2544   29868827.51648  23285841.36646  21009139.2734   21009137.2504
 11  7 30  2 27  0.0000000  0  7G02G17G25G04G12G10G05
                                  20456598.77348  15951260.45046  20812225.7114
  20812221.4884   24859425.46546  19380075.45044  24257672.0004   24257670.5204
  43117250.09047  33608111.93845  22807093.0554   22807093.2154   26807237.69947
                                  20898403.41844  22951934.9924   22951933.1214
                                  26947879.54348                  21007966.47346
  20892641.4534   20892638.8404   26476892.94948  20639740.19046  21289240.8754
  21289238.6844   29774343.99248  23212217.87346  20991159.9844   20991157.2934
 11  7 30  2 27 30.0000000  0  7G02G17G25G04G12G10G05
                                  20441009.60548  15939113.05646  20809259.3754
  20809255.0044   24894263.76246  19407222.11143  24264300.5784   24264299.1214
  43007016.45747  33522215.62645  22786116.4844   22786116.7194   26855195.76647
                                  20935773.30244  22961061.0234   22961058.8014
                                  26898266.37948                  20969306.86546
  20883200.4304   20883197.6174   26487221.68048  20647788.55846  21291206.3984
  21291204.2114   29680355.17648  23138979.85246  20973274.3284   20973271.7974
 11  7 30  2 28  0.0000000  0  7G02G17G25G04G12G10G05
                                  20425628.34048  15927127.66846  20806332.1414
  20806327.9574   24929283.14446  19434510.02043  24270965.7734   24270962.8524
  42897181.28547  33436629.80545  22765215.0164   22765215.5164   26903176.41847
                                  20973160.83145  22970191.3134   22970189.7344
                                  26849228.00848                  20931095.14846
  20873868.5474   20873865.7304   26498123.16448  20656283.23546  21293281.1644
  21293278.3134   29586863.59848  23066129.31247  20955483.3754   20955481.3484
 11  7 30  2 28 30.0000000  0  7G02G17G25G04G12G10G05
                                  20410449.50448  15915300.01446  20803443.9924
  20803439.3554   24964479.81346  19461935.92944  24277663.3674   24277661.6724
  42787743.04347  33351353.29645  22744389.3754   22744389.6764   26951174.51647
                                  21010561.94544  22979325.0084   22979323.6644
                                  26800761.56648                  20893329.09746
  20864645.9384   20864643.0944   26509591.62548  20665219.71046  21295462.9844
  21295460.8134   29493867.19548  22993664.60346  20937786.7894   20937784.6374
 11  7 30  2 29  0.0000000  0  7G02G17G25G04G12G10G05
                                  20395477.18048  15903633.27146  20800594.5864
  20800590.2384   24999858.62546  19489503.78243  24284395.8914   24284394.3714
  42678709.26247  33266391.94845  22723640.9144   22723641.4414   26999193.77347
                                  21047979.52844  22988463.0084   22988460.9654
                                  26752872.75448                  20856013.14346
  20855532.9304   20855529.8984   26521630.31647  20674600.50646  21297754.4064
  21297751.4804   29401372.99648  22921591.23446  20920185.8524   20920183.6454
 11  7 30  2 29 30.0000000  0  6G02G25G04G12G10G05
  20380710.40248                  15892126.70946  20797784.8984   20797779.6564
  42570082.23047  33181747.57145  22702969.6564   22702970.2894   27047233.12147
                                  21085412.79644  22997604.7814   22997603.1644
                                  26705562.03148                  20819147.65646
  20846530.1414   20846527.4064   26534236.91048  20684423.83146  21300152.9534
  21300150.5704   29309382.57848  22849910.42646  20902680.5004   20902678.1454
 11  7 30  2 30  0.0000000  0  6G02G25G04G12G10G05
  20366153.53548                  15880783.71346  20795014.3674   20795009.8244
  42461870.02047  33097426.39045  22682377.9224   22682377.8054   27095296.67247
                                  21122864.92044  23006750.8524   23006748.9964
                                  26658835.56348                  20782737.43046
  20837638.0394   20837635.2544   26547415.51648  20694692.89446  21302660.8204
  21302657.9734   29217903.28548  22778627.88146  20885272.5864   20885270.0824
 11  7 30  2 30 30.0000000  0  6G02G25G04G12G10G05
  20351807.94547                  15869605.33546  20792284.5474   20792280.0474
  42354077.60947  33013432.35245  22661865.5554   22661866.1914   27143385.72747
                                  21160336.91544  23015901.9144   23015899.7344
                                  26612696.71948                  20746785.09846
  20828858.4534   20828855.2074   26561166.87147  20705408.23146  21305277.5314
  21305275.1134   29126939.59848  22707747.11746  20867962.7424   20867960.5664
 11  7 30  2 31  0.0000000  0  6G02G25G04G12G10G05
  20337673.32447                  15858591.35046  20789594.5944   20789590.6134
  42246708.20347  32929767.92345  22641433.6254   22641434.0044   27191500.21147
                                  21197828.70044  23025056.9064   23025055.8984
                                  26567146.87148                  20711291.70846
  20820190.5004   20820187.6994   26575489.67647  20716568.86346  21308003.4384
  21308001.1094   29036494.19548  22637270.19046  20850751.5004   20850748.9024
 11  7 30  2 31 30.0000000  0  6G02G25G04G12G10G05
  20323745.39147                  15847738.42746  20786944.5784   20786939.8444
  42139761.01647  32846432.48145  22621082.7734   22621082.8054   27239635.70747
                                  21235336.88444  23034217.2814   23034216.1764
                                  26522183.38748                  20676255.23446
  20811634.1484   20811631.3834   26590378.69547  20728170.69946  21310836.6484
  21310834.2424   28946565.56348  22567195.95946  20833638.5704   20833635.9884
 11  7 30  2 32  0.0000000  0  6G02G25G04G12G10G05
  20310020.62148                  15837043.81046  20784332.8364   20784327.9924
  42033236.07847  32763426.06845  22600811.4064   22600811.7034   27287788.83246
                                  21272858.83244  23043380.3204   23043378.9264
                                  26477804.53148                  20641674.31246
  20803189.0084   20803186.2544   26605829.93048  20740210.62946  21313777.2114
  21313774.5084   28857153.18048  22497523.99746  20816624.1724   20816621.6644
 11  7 30  2 32 30.0000000  0  6G02G25G04G12G10G05
  20296497.85248                  15826506.60046  20781759.8134   20781754.5234
  41927135.65247  32680750.45445  22580621.1564   22580621.7384   27335957.98447
                                  21310393.21744  23052547.1804   23052545.5744
                                  26434011.12148                  20607549.58046
  20794855.5394   20794852.9344   26621841.13748  20752686.90146  21316823.8284
  21316821.3674   28768258.52748  22428255.47546  20799708.0864   20799705.6954
 11  7 30  2 33  0.0000000  0  6G02G25G04G12G10G05
  20283173.10948                  15816123.69746  20779223.8364   20779219.3874
  41821459.11747  32598405.14345  22560511.8134   22560512.0784   27384139.17646
                                  21347936.99944  23061715.4614   23061714.0204
                                  26390800.08248                  20573878.65546
  20786633.0704   20786630.2974   26638406.94548  20765595.33246  21319976.3754
  21319973.7584   28679880.17248  22359389.24246  20782890.2974   20782887.7894
 11  7 30  2 33 30.0000000  0  6G02G25G04G12G10G05
  20270051.47348                  15805899.05546  20776726.8054   20776722.4574
  41716215.18047  32516396.91645  22540484.0234   22540484.9774   27432337.40246
                                  21385494.05544  23070887.8284   23070885.5314
                                  26348178.14848                  20540666.76046
  20778521.8284   20778519.3674   26655531.98448  20778939.52746  21323234.9534
  21323232.6844   28592026.49648  22290931.86446  20766172.0784   20766169.7624
 11  7 30  2 34  0.0000000  0  6G02G25G04G12G10G05
  20257123.26647                  15795825.14846  20774266.6024   20774262.3364
  41611397.53547  32434720.86746  22520538.1484   22520538.3134   27480543.05946
                                  21423056.89144  23080060.9454   23080059.3984
                                  26306137.84047                  20507908.08346
  20770521.9614   20770519.0204   26673205.84847  20792711.36946  21326597.7504
  21326595.8284   28504690.38748  22222877.78646  20749552.4774   20749550.2584
 11  7 30  2 34 30.0000000  0  6G02G25G04G12G10G05
  20244390.16847                  15785903.26047  20771843.8594   20771839.3674
  41507011.23047  32353380.93445  22500674.0634   22500674.7704   27528757.85546
                                  21460626.85144  23089235.5474   23089234.5634
                                  26264681.69147                  20475604.59546
  20762633.4614   20762630.4454   26691428.85947  20806911.12146  21330065.9844
  21330063.4774   28417876.15248  22155230.36346  20733032.2194   20733030.0044
 11  7 30  2 35  0.0000000  0  6G02G25G04G12G10G05
  20231843.34848                  15776126.53346  20769456.2814   20769451.7464
  41403050.85547  32272372.88246  22480890.8754   22480891.8404   27576972.87946
                                  21498197.00944  23098410.4064   23098409.5944
                                  26223802.55548                  20443750.73246
  20754853.9924   20754851.4304   26710191.28147  20821531.18746  21333636.3284
  21333633.6024   28331577.39148  22087984.61246  20716610.3594   20716607.8324
 11  7 30  2 35 30.0000000  0  6G02G25G04G12G10G05
  20219489.07847                  15766499.84646  20767105.1414   20767100.7974
  41299526.10947  32191704.29946  22461190.8754   22461191.3164   27625194.41446
                                  21535772.25144  23107587.2504   23107585.7074
                                  26183508.27048                  20412352.60246
  20747186.4454   20747183.9614   26729498.39847  20836575.70446  21337310.0004
  21337307.7584   28245803.15248  22021147.57646  20700287.9774   20700285.5164
 11  7 30  2 36  0.0000000  0  6G02G25G04G12G10G05
  20207330.17248                  15757025.39946  20764791.6414   20764786.8524
  41196443.14547  32111379.94245  22441574.5554   22441575.4534   27673425.11346
                                  21573354.58644  23116765.3054   23116763.6214
                                  26143803.01648                  20381413.44546
  20739631.0554   20739628.2814   26749351.59447  20852045.72746  21341087.9614
  21341085.8594   28160559.24248  21954723.77547  20684066.4064   20684063.9344
 11  7 30  2 36 30.0000000  0  6G02G25G04G12G10G05
  20195361.55148                  15747699.21146  20762513.9844   20762509.5434
  41093799.90647  32031398.23045  22422042.6954   22422042.9104   27721659.68846
                                  21610939.96344  23125944.1724   23125941.8554
                                  26104682.64848                  20350930.03947
  20732186.3284   20732183.6564   26769744.49247  20867936.30346  21344968.7974
  21344966.4964   28075842.83648  21888711.02146  20667945.4384   20667943.1174
 11  7 30  2 37  0.0000000  0  6G02G25G04G12G10G05
  20183582.87148                  15738521.03346  20760272.2504   20760267.8794
  40991600.07847  31951762.03045  22402594.2664   22402594.5394   27769898.45747
                                  21648528.60444  23135123.2814   23135121.8634
                                  26066149.25848                  20320904.02946
  20724853.8134   20724850.9264   26790676.54347  20884246.98746  21348952.1954
  21348949.7584   27991656.47748  21823111.29646  20651925.3284   20651922.8754
 11  7 30  2 37 30.0000000  0  6G02G25G04G12G10G05
  20171993.16848                  15729490.10846  20758066.9454   20758062.2934
  40889845.72347  31872472.96045  22383231.0164   22383231.6054   27818140.14146
                                  21686119.51944  23144303.3054   23144301.2154
                                  26028202.48448                  20291335.12346
  20717632.8984   20717629.9694   26812145.21947  20900975.82846  21353037.4384
  21353034.9884   27908001.73848  21757925.81946  20636006.3524   20636003.8094
 11  7 30  2 38  0.0000000  0  6G02G25G04G12G10G05
  20160588.63748                  15720603.46846  20755896.9844   20755892.2894
  40788536.30947  31793530.58945  22363952.2734   22363952.6804   27866380.75047
                                  21723709.58144  23153482.6484   23153481.3634
                                  25990839.87547                  20262221.41246
  20710522.7974   20710519.9534   26834145.50447  20918118.91646  21357223.6484
  21357221.3164   27824877.22348  21693153.49646  20620188.1644   20620185.9884
 11  7 30  2 38 30.0000000  0  6G02G25G04G12G10G05
  20149373.83648                  15711864.65946  20753762.7664   20753758.1804
  40687679.74647  31714941.10445  22344760.0554   22344760.3674   27914625.00847
                                  21761302.51044  23162663.9304   23162662.4264
                                  25954067.44948                  20233567.58146
  20703525.1724   20703522.6524   26856681.07847  20935679.10346  21361512.2194
  21361509.7234   27742290.17648  21628799.99247  20604472.1094   20604469.9614
 11  7 30  2 39  0.0000000  0  6G02G25G04G12G10G05
  20138343.91048                  15703269.92346  20751663.6414   20751659.3324
  40587274.53947  31636703.32145  22325653.4384   22325653.8714   27962868.17647
                                  21798894.58944  23171844.7114   23171842.4964
                                  25917881.97747                  20205371.11146
  20696639.3754   20696636.6454   26879745.99247  20953651.74646  21365901.1804
  21365898.9694   27660238.33248  21564863.51247  20588858.5474   20588856.1414
 11  7 30  2 39 30.0000000  0  6G02G25G04G12G10G05
  20127497.27748                  15694818.00646  20749600.0394   20749595.1804
  40487322.08247  31558818.31945  22306633.3284   22306633.6644   28011108.52746
                                  21836484.43244  23181024.3364   23181022.8634
                                  25882282.37548                  20177631.16546
  20689865.1414   20689862.2774   26903337.13347  20972034.46646  21370390.7274
  21370388.2114   27578721.97348  21501344.29947  20573346.3594   20573344.0984
 11  7 30  2 40  0.0000000  0  6G02G25G04G12G10G05
  20116832.89548                  15686508.10946  20747570.6414   20747565.8954
  40387824.70347  31481287.92746  22287699.4304   22287699.7974   28059345.15646
                                  21874071.40444  23190203.4534   23190201.9024
                                  25847268.93848                  20150347.96646
  20683202.1644   20683199.3134   26927452.41847  20990825.59346  21374979.6564
  21374977.4064   27497742.86348  21438243.72646  20557936.8594   20557934.3794
 11  7 30  2 40 30.0000000  0  6G02G25G04G12G10G05
  20106352.38348                  15678341.47946  20745576.1174   20745571.2504
  40288787.41847  31404116.05145  22268853.3134   22268853.2974   28107579.82046
                                  21911656.84444  23199381.9534   23199380.4304
                                  25812844.75848                  20123523.93746
  20676651.3284   20676648.5084   26952092.05547  21010025.31545  21379668.1414
  21379665.7424   27417305.18848  21375565.04247  20542629.9534   20542627.4224
 11  7 30  2 41  0.0000000  0  7G02G29G25G04G12G10G05
  20096050.03948                  15670313.68746  20743615.5864   20743610.8134
  54928644.54347  42810769.57944  24249287.4774                   24249287.7384
  40190207.65647  31327300.69246  22250094.1094   22250094.7304   28155806.87147
                                  21949236.35644  23208559.5554   23208557.5664
                                  25779005.13747                  20097155.40146
  20670212.0864   20670209.3054   26977248.95347  21029628.08346  21384455.8284
  21384453.4734   27337405.42248  21313305.52347  20527425.2734   20527422.9414
 11  7 30  2 41 30.0000000  0  7G02G29G25G04G12G10G05
  20085916.94948                  15662417.78747  20741687.4694   20741682.7814
  54812458.52347  42720235.05144  24227177.9844                   24227178.5514
  40092079.71947  31250837.39546  22231421.1564   22231421.7734   28204017.15647
                                  21986802.82544  23217733.4454   23217731.2304
                                  25745742.20748                  20071236.23946
  20663882.3204   20663879.6294   27002913.49247  21049626.42946  21389339.4924
  21389336.7344   27258037.33648  21251460.29147  20512322.1804   20512319.6644
 11  7 30  2 42  0.0000000  0  7G02G29G25G04G12G10G05
  20075952.72348                  15654653.46646  20739791.0164   20739786.6844
  54696207.44547  42629649.84344  24205056.8594                   24205056.2344
  39994406.35947  31174728.32346  22212834.2034   22212834.8324   28252210.45747
                                  22024355.98844  23226903.8754   23226902.6764
                                  25713056.94947                  20045767.19247
  20657662.2894   20657659.5984   27029083.43047  21070018.57446  21394319.1954
  21394316.6214   27179202.56648  21190030.62747  20497320.2664   20497317.8164
 11  7 30  2 42 30.0000000  0  7G02G29G25G04G12G10G05
  20066159.23848                  15647022.18946  20737927.3444   20737923.0044
  54579894.62546  42539016.50044  24182923.1414                   24182922.4924
  39897192.42248  31098977.23346  22194335.2114   22194335.5044   28300388.56647
                                  22061897.40344  23236073.0634   23236071.4494
                                  25680951.62148                  20020750.05547
  20651552.9844   20651550.3204   27055759.10547  21090804.81145  21399395.4304
  21399392.8754   27100905.12548  21129019.66547  20482420.6644   20482418.4224
 11  7 30  2 43  0.0000000  0  7G02G29G25G04G12G10G05
  20056539.28548                  15639526.13646  20736096.6954   20736092.6844
  54463524.68046  42448338.68343  24160778.1334                   24160777.7304
  39800444.07848  31023588.96846  22175924.4614   22175924.4844   28348554.86347
                                  22099429.56844  23245238.6644   23245237.1134
                                  25649430.77348                  19996188.35546
  20645554.9774   20645552.1724   27082942.55147  21111986.72746  21404568.5164
  21404566.5864   27023150.42248  21068431.61547  20467624.3914   20467621.9184
 11  7 30  2 43 30.0000000  0  7G02G29G25G04G12G10G05
  20047092.92248                  15632165.33946  20734299.1724   20734294.8674
  54347099.51246  42357617.77343  24138623.0314                   24138622.3674
  39704164.43848  30948565.90246  22157603.1564   22157603.3364   28396709.15247
                                  22136952.38044  23254401.6724   23254400.6174
                                  25618495.08247                  19972082.62246
  20639667.7034   20639665.3134   27110632.13747  21133563.01846  21409837.8914
  21409835.6214   26945940.62948  21008268.16447  20452931.9064   20452929.3754
 11  7 30  2 44  0.0000000  0  7G02G29G25G04G12G10G05
  20037817.23048                  15624937.54146  20732533.6884   20732529.5664
  54230617.68846  42266852.76643  24116457.1414                   24116456.4804
  39608353.56647  30873908.12546  22139371.2114   22139371.2934   28444848.40647
                                  22174463.50144  23263561.8204   23263560.6454
                                  25588142.44148                  19948431.21046
  20633891.8524   20633889.2704   27138823.59448  21155530.37746  21415202.3914
  21415199.9144   26869274.75448  20948528.55647  20438342.7814   20438340.3984
 11  7 30  2 44 30.0000000  0  7G02G29G25G04G12G10G05
  20028712.01648                  15617842.57346  20730801.2344   20730796.7624
  54114081.26646  42176045.25943  24094281.3204                   24094279.6414
  39513014.60948  30799618.06146  22121228.4924   22121229.1454   28492972.72747
                                  22211962.98444  23272720.2894   23272718.0944
                                  25558373.87148                  19925234.91846
  20628227.1484   20628224.4414   27167515.58247  21177887.77146  21420662.2424
  21420659.8524   26793155.51248  20889214.88947  20423857.7274   20423855.5664
 11  7 30  2 45  0.0000000  0  7G02G29G25G04G12G10G05
  20019779.46148                  15610882.15146  20729101.4844   20729097.1214
  53997493.89146  42085197.92844  24072095.7114                   24072094.4574
  39418152.68848  30725699.72146  22103176.7274   22103177.1644   28541084.47347
                                  22249452.64844  23281875.4614   23281873.0704
                                  25529192.52048                  19902496.20246
  20622674.0944   20622671.6954   27196708.79347  21200635.72246  21426217.4304
  21426214.7034   26717586.84048  20830330.24647  20409477.8204   20409475.2934
 11  7 30  2 45 30.0000000  0  7G02G29G25G04G12G10G05
  20011016.42648                  15604053.82246  20727434.0234   20727429.3094
  53880853.83247  41994309.60444  24049899.6564                   24049899.4184
  39323767.75448  30652153.05046  22085216.2344   22085216.4844   28589180.46146
                                  22286930.03044  23291027.6024   23291025.5004
                                  25500595.77048                  19880213.03246
  20617232.5164   20617229.8554   27226398.77047  21223770.77645  21431867.0864
  21431864.7424   26642567.76648  20771873.84647  20395202.0314   20395199.5044
 11  7 30  2 46  0.0000000  0  7G02G29G25G04G12G10G05
  21577850.45748                  16824963.45346  21025592.5554   21025587.9224
  55339594.27346  43130990.52644  24327488.5784                   24327488.0594
  40805293.23447  31806588.52646  22367140.8674   22367141.1994   30212686.53946
                                  23551999.67244  23599971.0474   23599968.6134
                                  27048012.58248                  21085992.36246
  20911696.3834   20911693.1844   28832010.01247  22474896.40545  21737404.9384
  21737402.3364   28143530.25048  21941455.02647  20680825.6954   20680823.0784
 11  7 30  2 46 30.0000000  0  7G02G29G25G04G12G10G05
  21569431.80948                  16818403.46846  21023990.8054   21023986.1374
  55222859.47746  43040028.36844  24305275.0944                   24305274.8674
  40711876.53548  31733796.33646  22349364.1484   22349364.7814   30260756.52746
                                  23589456.80544  23609118.2734   23609116.1684
                                  27020593.29748                  21064626.68846
  20906478.3204   20906475.4184   28862693.64847  22498805.73445  21743243.6884
  21743241.7034   28069622.06648  21883864.27247  20666761.1564   20666758.5704
 11  7 30  2 47  0.0000000  0  7G02G29G25G04G12G10G05
  21561183.14548                  16811975.94446  21022420.7114   21022416.2934
  55106078.33646  42949030.10944  24283052.3284                   24283051.6214
  40618946.27348  31661383.17646  22331680.3054   22331680.7274   30308811.68846
                                  23626902.41444  23618262.2034   23618261.6254
                                  26993761.47348                  21043718.77246
  20901372.5474   20901369.6764   28893869.72347  22523098.79045  21749176.4844
  21749174.2114   27996270.19948  21826707.00347  20652802.9224   20652800.1724
 11  7 30  2 47 30.0000000  0  7G02G29G25G04G12G10G05
  21553100.24648                  16805677.58146  21020882.8754   21020878.2464
  54989248.39546  42857993.81544  24260820.0944                   24260819.2234
  40526501.24248  31589348.10746  22314088.5084   22314088.8094   30356847.86346
                                  23664333.18244  23627403.5004   23627401.9414
                                  26967513.71948                  21023265.97446
  20896377.8054   20896374.6914   28925532.44147  22547771.03445  21755201.6804
  21755199.7894   27923472.37548  21769981.44047  20638949.9614   20638947.2544
 11  7 30  2 48  0.0000000  0  7G02G29G25G04G12G10G05
  21545183.41848                  16799508.63546  21019376.3284   21019371.6604
  54872371.12946  42766920.63644  24238579.0864                   24238578.6884
  40434544.71948  31517693.70946  22296589.5784   22296590.1094   30404865.52346
                                  23701749.52444  23636541.4144   23636539.3014
                                  26941851.26648                  21003269.26046
  20891494.2034   20891491.1844   28957680.90247  22572821.78445  21761319.0944
  21761317.1094   27851231.32848  21713689.74247  20625203.1094   20625200.4964
 11  7 30  2 48 30.0000000  0  7G02G29G25G04G12G10G05
  21537431.69948                  16793468.32946  21017901.3204   21017896.3794
  54755447.07446  42675811.06144  24216329.2894                   24216328.6134
  40343078.37948  31446421.27846  22279183.9924   22279184.3554   30452863.48056
                                  23739150.54154  23645674.2114   23645673.0554
                                  26916773.38748                  20983728.05347
  20886722.1174   20886719.3634   28990312.23847  22598248.79845  21767528.9144
  21767526.3794   27779547.34448  21657832.10947  20611561.6254   20611559.5394
 11  7 30  2 49  0.0000000  0  7G02G29G25G04G12G10G05
  21529848.09448                  16787559.03046  21016457.9304   21016453.5204
  54638481.57047  42584669.19544  24194071.1094                   24194070.6374
  40252108.49248  31375535.68446  22261873.2974   22261873.4964   30500845.27346
                                  23776538.92644  23654806.0474   23654803.6804
                                  26892284.11348                  20964645.49746
  20882061.8054   20882058.8204   29023428.02747  22624053.30345  21773830.1484
  21773827.9924   27708425.87948  21602412.81047  20598027.6644   20598025.2584
 11  7 30  2 49 30.0000000  0  7G02G29G25G04G12G10G05
  21522429.42648                  16781778.25646  21015046.4694   21015041.8134
  54521473.00446  42493493.74444  24171804.5394                   24171804.0474
  40161634.55948  31305036.55146  22244656.6024   22244657.0824   30548807.66047
                                  23813912.19044  23663932.8834   23663930.5944
                                  26868380.89848                  20946019.61846
  20877513.1564   20877510.4024   29057023.52347  22650231.62245  21780223.3914
  21780220.9614   27637865.62948  21547430.82247  20584600.7894   20584598.1484
 11  7 30  2 50  0.0000000  0  7G02G29G25G04G12G10G05
  21515174.65248                  16776125.19546  21013665.8524   21013661.5314
  54404421.95346  42402285.26044  24149530.6094                   24149530.2544
  40071658.27048  31234925.19946  22227534.7344   22227534.6954   30596749.53946
                                  23851269.52044  23673055.1884   23673053.8404
                                  26845063.00448                  20927849.82446
  20873075.9844   20873073.1414   29091095.95747  22676781.55945  21786706.9384
  21786704.4804   27567866.89548  21492886.37147  20571280.2344   20571277.5944
 11  7 30  2 50 30.0000000  0  7G02G29G25G04G12G10G05
  21508081.34448                  16770597.94646  21012315.5394   21012311.2424
  54287327.83246  42311043.16644  24127249.0704                   24127248.2114
  39982180.25848  31165202.10346  22210507.5474   22210507.7194   30644668.77746
                                  23888609.14544  23682174.0314   23682173.0824
                                  26822328.69148                  20910134.76946
  20868749.6954   20868746.8674   29125641.46547  22703700.13245  21793281.0004
  21793278.5664   27498429.55148  21438779.38347  20558066.9144   20558064.1684
 11  7 30  2 51  0.0000000  0  7G02G29G25G04G12G10G05
  21501150.03948                  16765196.94046  21010997.1644   21010992.4304
  54170193.37146  42219769.66444  24104958.3834                   24104958.4024
  39893203.98848  31095869.97746  22193575.8754   22193575.6094   30692566.32447
                                  23925931.92244  23691289.2274   23691287.4534
                                  26800179.07848                  20892875.33746
  20864534.6954   20864532.0354   29160658.78147  22730986.34745  21799944.5004
  21799942.2274   27429556.18448  21385111.83647  20544960.6024   20544958.1954
 11  7 30  2 51 30.0000000  0  7G02G29G25G04G12G10G05
  21494378.64548                  16759920.53246  21009708.3594   21009703.9574
  54053017.76246  42128464.04944  24082661.1334                   24082660.1884
  39804729.88348  31026929.13246  22176739.6414   22176739.8134   30740439.84446
                                  23963235.97744  23700398.8444   23700398.0354
                                  26778612.44548                  20876070.16146
  20860430.9694   20860428.0704   29196144.06648  22758637.21045  21806697.4614
  21806695.1564   27361246.01247  21331883.15747  20531961.7114   20531958.8014
 11  7 30  2 52  0.0000000  0  7G02G29G25G04G12G10G05
  21487766.26247                  16754768.03146  21008450.0314   21008445.7624
  53935801.91447  42037127.05144  24060355.5164                   24060354.7034
  39716759.74248  30958380.99446  22159999.6254   22159999.8364   30788288.69947
                                  24000520.77644  23709504.4384   23709503.0044
                                  26757628.37948                  20859718.93846
  20856437.5634   20856434.8054   29232095.06348  22786650.97445  21813538.6644
  21813535.7624   27293500.04348  21279094.11647  20519069.9224   20519067.4804
 11  7 30  2 52 30.0000000  0  7G02G29G25G04G12G10G05
  21481314.09848                  16749740.37446  21007222.5314   21007217.6644
  53818549.06347  41945761.24044  24038042.6334                   24038041.9344
  39629297.83648  30890228.89746  22143356.3284   22143355.8794   30836114.35247
                                  24037787.51544  23718604.6564   23718603.3404
                                  26737228.26648                  20843822.74346
  20852555.7814   20852552.9494   29268510.96547  22815027.00445  21820468.3364
  21820466.1174   27226321.41848  21226747.15647  20506286.2894   20506283.5164
 11  7 30  2 53  0.0000000  0  7G02G29G25G04G12G10G05
  21475018.50048                  16744834.71746  21006024.4304   21006019.9264
  53701257.23846  41854365.11144  24015722.8134                   24015722.5004
  39542343.10948  30822471.99246  22126809.1174   22126809.2584   30883913.20747
                                  24075033.37544  23727701.4224   23727698.7894
                                  26717409.41048                  20828379.47446
  20848784.4224   20848781.1294   29305386.48048  22843761.18345  21827485.6174
  21827482.4064   27159708.05148  21174840.66147  20493609.9844   20493607.3094
 11  7 30  2 53 30.0000000  0  7G02G29G25G04G12G10G05
  21468876.88748                  16740049.06046  21004855.6724   21004851.1844
  53583925.67646  41762937.96744  23993395.7194                   23993395.1254
  39455895.58648  30755110.32246  22110358.6484   22110358.6844   30931682.84847
                                  24112256.44044  23736790.7274   23736789.3634
                                  26698169.45748                  20813387.30647
  20845123.0784   20845120.1724   29342717.07048  22872849.94945  21834589.5004
  21834586.7774   27093658.96548  21123373.85647  20481041.1174   20481038.7704
 11  7 30  2 54  0.0000000  0  7G02G29G25G04G12G10G05
  21462894.25848                  16735387.27746  21003717.1174   21003712.6844
  53466561.01247  41671485.06244  23971061.7504                   23971060.8714
  39369962.98048  30688149.88046  22094006.1334   22094006.1564   30979428.33647
                                  24149460.71844  23745876.6804   23745875.2154
                                  26679513.19548                  20798849.95646
  20841573.0554   20841570.1524   29380506.27048  22902296.08745  21841780.1954
  21841777.3634   27028180.88348  21072351.99947  20468581.2584   20468578.8914
 11  7 30  2 54 30.0000000  0  7G02G29G25G04G12G10G05
  21457067.30147                  16730846.79846  21002608.3754   21002603.7114
  53349161.64547  41580005.12444  23948721.4534                   23948720.5234
  39284544.54748  30621590.09046  22077751.6484   22077751.5594   31027146.75447
                                  24186643.89144  23754957.5234   23754955.3984
                                  26661437.62548                  20784765.09146
  20838133.4694   20838130.7074   29418748.98848  22932095.58945  21849057.1884
  21849055.3554   26963272.09048  21021773.74947  20456229.7504   20456227.0554
 11  7 30  2 55  0.0000000  0  7G02G29G25G04G12G10G05
  21451395.16847                  16726426.95346  21001528.8914   21001523.9804
  53231728.75847  41488499.06444  23926374.0944                   23926373.8244
  39199642.16448  30555432.41246  22061595.1484   22061595.5634   31074837.27347
                                  24223805.32044  23764032.1484   23764031.3524
                                  26643942.64548                  20771132.64346
  20834804.1484   20834801.0474   29457442.60248  22962246.46645  21856420.8134
  21856417.9414   26898932.87548  20971639.31347  20443986.2974   20443983.7234
 11  7 30  2 55 30.0000000  0  7G02G29G25G04G12G10G05
  21445876.77747                  16722126.91546  21000478.7034   21000474.0984
  53114263.11347  41396967.47944  23904021.2814                   23904020.7074
  39115257.36748  30489678.06046  22045537.2894   22045537.3244   31122499.09446
                                  24260944.37044  23773102.0474   23773100.9844
                                  26627027.12148                  20757951.71246
  20831585.3284   20831582.1724   29496584.20347  22992746.40145  21863869.4844
  21863866.7464   26835164.19948  20921949.47147  20431851.4144   20431848.6644
 11  7 30  2 56  0.0000000  0  7G02G29G25G04G12G10G05
  21440510.02748                  16717945.04446  20999457.4224   20999453.1254
  52996764.48847  41305410.16244  23881662.2194                   23881660.8674
  39031390.66048  30424327.40346  22029577.8204   22029578.2974   31170130.14147
                                  24298059.49744  23782166.0864   23782165.0744
                                  26610689.67648                  20745221.24046
  20828476.2424   20828473.7664   29536169.69148  23023592.24545  21871402.2504
  21871399.5634   26771965.78148  20872703.98247  20419825.1334   20419822.4024
 11  7 30  2 56 30.0000000  0  7G02G29G25G04G12G10G05
  21435294.31648                  16713880.85346  20998465.0234   20998460.2344
  52879234.30147  41213828.28244  23859296.5864                   23859295.7664
  38948044.32848  30359382.23346  22013717.5314   22013717.7344   31217730.38747
                                  24335150.51944  23791225.2034   23791222.9414
                                  26594929.75048                  20732940.76646
  20825477.4694   20825474.5904   29576197.18048  23054782.50645  21879019.3284
  21879016.0664   26709338.43848  20823903.47547  20407907.7424   20407905.0164
 11  7 30  2 57  0.0000000  0  7G02G29G25G04G12G10G05
  21430229.86748                  16709934.55046  20997501.2504   20997496.7464
  52761674.46547  41122223.26544  23836925.7894                   23836924.2814
  38865220.57848  30294844.28146  21997956.6174   21997956.8094   31265299.73446
                                  24372217.54543  23800276.3524   23800274.3524
                                  26579747.14848                  20721110.16246
  20822588.5164   20822585.6054   29616664.69548  23086315.62945  21886719.4694
  21886716.8404   26647283.15648  20775548.73747  20396098.6954   20396096.1994
 11  7 30  2 57 30.0000000  0  7G02G29G25G04G12G10G05
  21425312.43448                  16706102.80046  20996565.3284   20996560.8954
  52644082.03547  41030592.87544  23814548.8524                   23814548.0274
  38782917.60248  30230712.11646  21982295.0004   21982295.2194   31312834.05946
                                  24409257.23543  23809321.8204   23809319.6884
                                  26565137.62548                  20709726.11846
  20819808.0634   20819805.2584   29657566.00048  23118186.78645  21894503.2734
  21894500.2344   26585797.34848  20727637.74247  20384398.4614   20384395.8134
 11  7 30  2 58  0.0000000  0  7G02G29G25G04G12G10G05
  21420542.19948                  16702385.73146  20995657.7274   20995652.9184
  52526459.46947  40938939.03644  23792165.5164                   23792165.5434
  38701138.32848  30166988.03646  21966732.9224   21966733.0124   31360333.98446
                                  24446270.14043  23818360.2974   23818358.5514
                                  26551102.64848                  20698789.77146
  20817137.5234   20817134.6214   29698899.39547  23150394.62245  21902368.4844
  21902365.5824   26524882.82448  20680171.90547  20372806.9774   20372803.9774
 11  7 30  2 58 30.0000000  0  7G02G29G25G04G12G10G05
  21415926.14148                  16698788.82046  20994779.1414   20994774.4614
  52408815.69547  40847268.63044  23769779.0704                   23769777.8094
  38619892.34448  30103679.50846  21951272.5314   21951272.4844   31407807.04346
                                  24483262.13243  23827394.4064   23827393.1884
                                  26537647.83648                  20688305.49646
  20814576.9924   20814573.9574   29740670.17247  23182943.26445  21910317.3524
  21910314.5124   26464548.18448  20633157.92247  20361325.4454   20361322.5634
 11  7 30  2 59  0.0000000  0  7G02G29G25G04G12G10G05
  21411456.78948                  16695306.21846  20993928.8754   20993924.2234
  52291144.66847  40755576.98444  23747387.0234                   23747386.1214
  38539174.40248  30040782.43046  21935912.1254   21935912.3754   31455245.47346
                                  24520227.13643  23836421.5164   23836419.8554
                                  26524766.05948                  20678267.74346
  20812125.6094   20812122.5474   29782868.72348  23215825.24845  21918347.1954
  21918345.2034   26404786.85948  20586590.68447  20349953.3834   20349950.3874
 11  7 30  2 59 30.0000000  0  7G02G29G25G04G12G10G05
  21407131.90248                  16691936.17846  20993106.1334   20993101.5084
  52173446.16047  40663863.95444  23724989.5164                   23724988.4144
  38458984.62148  29978296.91746  21920652.7114   21920652.4844   31502647.26646
                                  24557163.54143  23845443.0084   23845440.7424
                                  26512455.12548                  20668674.80946
  20809782.8984   20809779.9024   29825491.25447  23249037.61145  21926458.1884
  21926455.6724   26345597.81348  20540469.37747  20338689.8284   20338687.1024
 11  7 30  3  0  0.0000000  0  7G02G29G25G04G12G10G05
  21402953.47748                  16688680.27346  20992310.5004   20992305.7774
  52055724.32846  40572132.72444  23702587.5634                   23702586.5124
  38379327.55948  29916226.52046  21905494.0634   21905494.4694   31550014.92646
                                  24594073.39943  23854455.2664   23854453.7074
                                  26500717.35948                  20659528.49346
  20807549.2034   20807546.4454   29868537.68847  23282580.28345  21934649.9224
  21934647.1374   26286984.80948  20494796.93347  20327536.2424   20327533.6024
 11  7 30  3  0 30.0000000  0  7G02G29G25G04G12G10G05
  21398920.34448                  16685537.58046  20991543.2894   20991538.6484
  51937979.48046  40480383.55344  23680181.6334                   23680180.7304
  38300204.30148  29854572.05246  21890437.4534   21890438.0514   31597347.20746
                                  24630955.63043  23863463.0004   23863461.3094
                                  26489551.39148                  20650827.72546
  20805424.3364   20805421.5664   29912004.64547  23316450.63345  21942921.1254
  21942918.7034   26228947.35548  20449572.96047  20316492.0394   20316489.5124
 11  7 30  3  1  0.0000000  0  7G02G29G25G04G12G10G05
  21395028.17648                  16682504.72346  20990802.4774   20990798.2854
  51820209.35946  40388614.73044  23657770.4694                   23657769.6334
  38221612.82048  29793331.96446  21875482.1334   21875482.3134   31644640.20746
                                  24667807.20243  23872462.5084   23872460.7584
                                  26478952.80948                  20642569.08846
  20803407.7584   20803404.6024   29955886.02347  23350643.92845  21951271.1564
  21951269.0434   26171482.50448  20404795.18347  20305556.6024   20305554.2464
 11  7 30  3  1 30.0000000  0  7G02G29G25G04G12G10G05
  21391279.14848                  16679583.42346  20990089.0784   20990084.3984
  51702417.57446  40296829.01244  23635355.0234                   23635354.1524
  38143557.56348  29732509.70246  21860628.8674   21860628.6724   31691896.02046
                                  24704630.00443  23881454.2114   23881453.2624
                                  26468923.43448                  20634753.98346
  20801499.1884   20801496.4304   30000182.22347  23385160.44845  21959700.4844
  21959698.1254   26114593.78148  20360466.32847  20294731.2034   20294728.7424
 11  7 30  3  2  0.0000000  0  7G02G29G25G04G12G10G05
  21387672.09448                  16676772.74646  20989402.7114   20989398.1564
  51584605.13347  40205027.20144  23612936.1804                   23612935.0164
  38066039.52048  29672106.04746  21845877.4534   21845877.5664   31739113.63746
                                  24741422.90443  23890439.4614   23890439.1604
                                  26459461.69948                  20627381.19146
  20799698.7424   20799695.8244   30044889.74647  23419997.46645  21968208.1484
  21968205.9264   26058281.01648  20316586.28147  20284015.2424   20284012.9344
 11  7 30  3  2 30.0000000  0  7G02G29G25G04G12G10G05
  21384207.45748                  16674073.03946  20988743.5164   20988738.8094
  51466774.38347  40113211.09244  23590514.0634                   23590512.9494
  37989061.62948  29612123.29946  21831229.0474   21831229.1454   31786294.08246
                                  24778186.87043  23899418.4614   23899416.4304
                                  26450568.16448                  20620451.15546
  20798006.2194   20798003.3444   30090007.19547  23455153.92245  21976793.7734
  21976791.8554   26002545.88348  20273156.33947  20273409.0554   20273406.7624
 11  7 30  3  3  0.0000000  0  7G02G29G25G04G12G10G05
  21380885.89848                  16671484.82146  20988111.1724   20988106.4024
  51348927.71947  40021382.61344  23568088.5164                   23568087.2344
  37912626.55148  29552563.53346  21816684.0084   21816684.2074   31833438.02047
                                  24814922.36243  23908390.2974   23908387.6254
                                  26442243.26648                  20613964.21946
  20796422.0784   20796419.2424   30135533.19947  23490628.72045  21985456.7664
  21985455.1764   25947389.85548  20230177.64547  20262913.2114   20262910.7194
 11  7 30  3  3 30.0000000  0  7G02G29G25G04G12G10G05
  21377705.81348                  16669006.84146  20987506.3914   20987501.4384
  51231065.75447  39929542.18344  23545659.7034                   23545658.6994
  37836734.94148  29493427.23646  21802242.2974   21802242.6644   31880544.03146
                                  24851628.33643  23917354.0084   23917351.2304
                                  26434484.75848                  20607918.62446
  20794945.9614   20794942.8054   30181463.88347  23526418.86045  21994197.1174
  21994195.3754   25892812.43048  20187649.79247  20252527.2974   20252524.8554
 11  7 30  3  4  0.0000000  0  7G02G29G25G04G12G10G05
  21374663.79348                  16666636.44946  20986927.1024   20986922.5004
  51113186.82847  39837688.55544  23523228.0314                   23523227.5204
  37761385.85548  29434713.67846  21787903.9384   21787903.9494   31927609.27046
                                  24888302.49943  23926309.7504   23926307.6764
                                  26427289.87547                  20602312.21146
  20793576.6884   20793573.8524   30227794.27347  23562520.46245  22003013.5164
  22003011.6374   25838811.49648  20145571.16747  20242251.5084   20242248.8164
 11  7 30  3  4 30.0000000  0  7G02G29G25G04G12G10G05
  21371759.43448                  16664373.30946  20986374.5314   20986369.9064
  50995292.47747  39745822.89344  23500793.2194                   23500793.0044
  37686580.93048  29376424.15046  21773668.9534   21773669.1914   31974633.52346
                                  24924944.78243  23935257.8284   23935256.8364
                                  26420657.18047                  20597143.87246
  20792314.4454   20792311.6604   30274521.80147  23598931.50345  22011905.9924
  22011903.2894   25785387.91848  20103942.42647  20232085.3054   20232082.6374
 11  7 30  3  5  0.0000000  0  7G02G29G25G04G12G10G05
  21368992.43048                  16662217.20546  20985848.1254   20985843.3794
  50877383.86347  39653946.08744  23478356.5864                   23478355.0354
  37612321.49248  29318559.66346  21759537.8834   21759537.7894   32021616.16846
                                  24961554.59143  23944198.7114   23944198.6914
                                  26414585.59848                  20592412.75746
  20791159.2194   20791155.7854   30321643.94147  23635650.04445  22020873.1094
  22020870.3094   25732541.81348  20062763.66547  20222029.0474   20222026.4264
 11  7 30  3  5 30.0000000  0  7G02G29G25G04G12G10G05
  21366360.58248                  16660166.42646  20985347.3594   20985342.6294
  50759460.59847  39562057.89344  23455916.3594                   23455915.1524
  37538607.44548  29261120.16846  21745510.5944   21745510.4534   32068555.22346
                                  24998130.42944  23953131.5864   23953129.9884
                                  26409072.85948                  20588117.11046
  20790110.0554   20790107.1414   30369156.07847  23672672.50445  22029913.6724
  22029911.5984   25680271.39148  20022033.49047  20212082.2194   20212079.4694
 11  7 30  3  6  0.0000000  0  7G02G29G25G04G12G10G05
  21363867.27348                  16658223.59746  20984872.7734   20984868.2734
  50641528.53947  39470162.82944  23433474.6334                   23433472.8244
  37465444.69948  29204110.24746  21731588.0944   21731588.1214   32115454.86347
                                  25034675.58344  23962055.5394   23962055.3714
                                  26404122.21548                  20584259.45846
  20789167.9694   20789165.1334   30417060.24247  23710000.41145  22039029.8914
  22039027.7034   25628581.95748  19981756.03547  20202246.1804   20202243.0984
 11  7 30  3  6 30.0000000  0  7G02G29G25G04G12G10G05
  21361509.25848                  16656386.18946  20984423.9694   20984419.7464
  50523586.16847  39378259.76644  23411030.2584                   23411029.6174
  37392831.93048  29147528.89746  21717770.5314   21717770.7464   32162311.93046
                                  25071187.54144  23970972.9534   23970971.5594
                                  26399729.99647                  20580836.93846
  20788332.1724   20788329.1254   30465350.75047  23747629.35645  22048219.2894
  22048217.2854   25577470.66448  19941929.07147  20192519.9924   20192517.2344
 11  7 30  3  7  0.0000000  0  7G02G29G25G04G12G10G05
  21359284.96948                  16654652.98446  20984000.7274   20983996.5004
  50405633.96947  39286349.00244  23388584.9844                   23388583.7384
  37320769.61348  29091376.45246  21704057.2814   21704057.3554   32209125.15646
                                  25107665.39944  23979881.1564   23979879.6094
                                  26395893.92247                  20577847.77646
  20787602.1254   20787599.3714   30514024.06647  23785556.60145  22057481.5634
  22057479.1334   25526937.15248  19902552.33447  20182903.4304   20182901.0864
 11  7 30  3  7 30.0000000  0  7G02G29G25G04G12G10G05
  21357198.14548                  16653026.89146  20983603.4064   20983599.1054
  50287677.01647  39194434.56444  23366138.5554                   23366137.5204
  37249263.12948  29035657.13446  21690450.0394   21690449.9344   32255898.24647
                                  25144111.89944  23988781.5634   23988780.4964
                                  26392617.03548                  20575294.35546
  20786978.6724   20786975.4924   30563081.29347  23823782.99845  22066816.9384
  22066813.9454   25476985.23448  19863628.78247  20173398.2274   20173395.5354
 11  7 30  3  8  0.0000000  0  7G02G29G25G04G12G10G05
  21355243.58248                  16651503.87646  20983231.6884   20983227.0044
  50169712.29347  39102514.08444  23343690.8284                   23343689.5274
  37178309.22748  28980368.40746  21676948.0314   21676947.7384   32302626.23847
                                  25180523.27644  23997673.1644   23997671.4654
                                  26389893.61748                  20573172.20946
  20786460.5004   20786457.5204   30612515.32047  23862303.01445  22076223.8984
  22076220.8054   25427610.77748  19825155.20047  20164002.3914   20163999.7854
 11  7 30  3  8 30.0000000  0  7G02G29G25G04G12G10G05
  22928841.81348                  17877684.31446  21282677.6644   21282673.1094
  51627166.09047  40238192.42344  23621035.1724                   23621032.5824
  38683332.82848  30153114.08646  21963344.6024   21963344.4144   33924728.28547
                                  26444498.90043  24306349.1564   24306347.7274
                                  27963144.07048                  21799081.64046
  21085840.0634   21085836.9454   32237743.09847  25128714.28745  22385494.1724
  22385491.4734   26954236.66048  21014733.82647  20454509.6254   20454507.1374
 11  7 30  3  9  0.0000000  0  7G02G29G25G04G12G10G05
  22927154.05948                  17876369.19446  21282355.9924   21282351.6884
  51509193.89147  40146266.06644  23598584.6954                   23598582.9574
  38613492.38748  30098692.96546  21950054.3674   21950054.4964   33971369.30147
                                  26480842.52344  24315224.6644   24315223.3204
                                  27961528.59048                  21797822.81446
  21085532.9224   21085529.4964   32287926.95747  25167818.58845  22395044.0314
  22395041.2464   26906021.86348  20977163.87447  20445334.8054   20445332.2464
 11  7 30  3  9 30.0000000  0  7G02G29G25G04G12G10G05
  22925593.95748                  17875153.52346  21282059.1254   21282054.8834
  51391215.30947  40054334.80944  23576133.9454                   23576133.2194
  38544205.81648  30044703.45346  21936869.2424   21936869.2234   34017961.59846
                                  26517148.18044  24324091.2034   24324089.6684
                                  27960460.09048                  21796990.20546
  21085329.1484   21085325.9964   32338476.80147  25207208.06545  22404663.5004
  22404661.0044   26858382.10548  20940042.00947  20436269.2664   20436266.2234
 11  7 30  3 10  0.0000000  0  7G02G29G25G04G12G10G05
  22924165.00848                  17874040.06746  21281787.6254   21281782.7734
  51273235.61747  39962402.63744  23553683.6484                   23553682.5984
  38475478.34048  29991149.58646  21923791.0084   21923790.9534   34064508.71146
                                  26553418.63644  24332949.2194   24332947.3754
                                  27959941.59448                  21796586.17946
  21085230.2814   21085227.7034   32389393.98447  25246883.77045  22414352.6334
  22414350.1524   26811321.39848  20903371.35547  20427313.9144   20427311.2814
 11  7 30  3 10 30.0000000  0  7G02G29G25G04G12G10G05
  22922865.02048                  17873027.08846  21281540.1174   21281535.6454
  51155254.41847  39870469.32744  23531232.8204                   23531231.7664
  38407309.37548  29938030.92746  21910818.7734   21910819.1604   34111008.77746
                                  26589652.46043  24341796.9614   24341795.8204
                                  27959970.20748                  21796608.45646
  21085236.1564   21085233.7774   32440673.76647  25286842.04645  22424110.7424
  22424108.2464   26764838.27348  20867150.75147  20418468.5394   20418465.5044
 11  7 30  3 11  0.0000000  0  7G02G29G25G04G12G10G05
  22921699.24248                  17872118.69846  21281318.5234   21281313.4924
  51037279.17647  39778540.59245  23508782.7894                   23508782.0984
  38339706.28948  29885353.21046  21897954.2974   21897954.3794   34157467.29346
                                  26625853.85343  24350637.4384   24350636.6994
                                  27960550.67248                  21797060.75446
  21085346.6484   21085343.8094   32492319.59447  25327085.55045  22433938.8834
  22433935.9734   26718938.89848  20831385.02647  20409733.8834   20409731.2894
 11  7 30  3 11 30.0000000  0  7G02G29G25G04G12G10G05
  22920660.54748                  17871309.33046  21281120.0394   21281115.8984
  50919304.19547  39686612.12144  23486332.9844                   23486331.2854
  38272663.37148  29833111.99546  21885196.5704   21885196.3984   34203877.42246
                                  26662017.54043  24359468.9924   24359467.6954
                                  27961675.10248                  21797936.92446
  21085560.6094   21085557.5004   32544321.66047  25367606.63745  22443834.4064
  22443831.8134   26673615.82448  20796068.36947  20401109.3364   20401106.5124
 11  7 30  3 12  0.0000000  0  7G02G29G25G04G12G10G05
  22919749.87548                  17870599.71246  21280947.4384   21280942.9414
  50801332.44147  39594686.12244  23463883.5084                   23463882.0784
  38206183.15248  29781309.23846  21872545.6884   21872545.6914   34250240.04746
                                  26698144.29943  24368292.1094   24368290.1294
                                  27963342.82848                  21799236.44346
  21085877.7894   21085875.0704   32596678.87147  25408404.44445  22453797.9144
  22453795.2234   26628870.98448  20761202.28747  20392594.6174   20392591.7774
 11  7 30  3 12 30.0000000  0  7G02G29G25G04G12G10G05
  22918969.32448                  17869991.50746  21280798.6884   21280794.4184
  50683368.40646  39502766.14245  23441435.5314                   23441434.2734
  38140269.79348  29729948.19346  21860002.9534   21860002.5164   34296557.90646
                                  26734236.01143  24377105.7894   24377104.4844
                                  27965555.78148                  21800960.81146
  21086298.9614   21086296.1764   32649391.25447  25449479.04545  22463828.7504
  22463826.3164   26584707.25448  20726789.00847  20384190.1414   20384187.7894
 11  7 30  3 13  0.0000000  0  7G02G29G25G04G12G10G05
  22918313.33648                  17869480.34546  21280673.9694   21280669.3484
  50565408.03947  39410849.04545  23418988.5944                   23418987.6994
  38074919.21148  29679025.67046  21847567.0164   21847566.7854   34342825.54346
                                  26770288.70043  24385910.5314   24385909.4614
                                  27968307.44948                  21803104.96046
  21086822.7194   21086819.9184   32702450.89147  25490824.21645  22473925.4774
  22473923.2464   26541119.11748  20692824.23747  20375895.9534   20375892.9884
 11  7 30  3 13 30.0000000  0  7G02G29G25G04G12G10G05
  22917783.76248                  17869067.69946  21280573.0394   21280568.6214
  50447455.40246  39318937.95944  23396542.4924                   23396541.6414
  38010134.93048  29628544.41546  21835238.8594   21835238.7704   34389045.19946
                                  26806303.93943  24394706.0394   24394704.8054
                                  27971599.12148                  21805669.89246
  21087449.0704   21087446.4804   32755857.35247  25532439.60845  22484088.6174
  22484085.7074   26498108.99648  20659309.87747  20367711.4534   20367708.6334
 11  7 30  3 14  0.0000000  0  7G02G29G25G04G12G10G05
  22917380.93047                  17868753.81046  21280496.5864   21280491.7934
  50329512.68847  39227034.61944  23374098.8834                   23374097.8164
  37945918.75847  29578505.84946  21823019.3054   21823019.1914   34435217.33646
                                  26842282.23343  24403491.7034   24403490.8984
                                  27975429.96148                  21808654.94746
  21088177.9534   21088175.3874   32809608.91847  25574323.96445  22494317.1644
  22494314.2704   26455677.61748  20626246.48247  20359636.7894   20359634.1094
 11  7 30  3 14 30.0000000  0  7G02G29G25G04G12G10G05
  22917099.16848                  17868534.27146  21280442.7894   21280438.1524
  50211576.07847  39135136.02944  23351656.3364                   23351654.8674
  37882266.46548  29528906.67746  21810906.3674   21810906.4884   34481336.27046
                                  26878219.05643  24412268.5234   24412267.4414
                                  27979793.29348                  21812054.94046
  21089008.5004   21089005.7384   32863697.45347  25616470.89445  22504609.8054
  22504606.9104   26413819.50048  20593629.79047  20351671.5084   20351668.8134
 11  7 30  3 15  0.0000000  0  7G02G29G25G04G12G10G05
  22916941.06647                  17868411.07046  21280412.7894   21280408.1254
  50093650.26647  39043245.85245  23329215.5634                   23329214.3914
  37819182.37948  29479750.25546  21798901.9384   21798901.6054   34527405.36746
                                  26914117.04743  24421035.0704   24421033.1374
                                  27984690.68448                  21815871.07646
  21089940.4304   21089937.3014   32918123.54747  25658880.81945  22514966.6024
  22514963.8164   26372537.99248  20561462.39847  20343815.9224   20343813.2274
 11  7 30  3 15 30.0000000  0  6G02G29G25G12G10G05
  22916906.48447                  17868384.13546  21280406.2664   21280401.3054
  49975736.59847  38951365.12944  23306777.4774                   23306775.6334
  37756667.65248  29431037.50646  21787005.6884   21787005.4774
                                  27990121.32448                  21820102.73846
  21090973.8364   21090971.1414   32972884.34047  25701551.57045  22525386.8594
  22525384.5864   26331832.59448  20529743.92647  20336069.8674   20336067.1884
 11  7 30  3 16  0.0000000  0  6G02G29G25G12G10G05
  22916999.56347                  17868456.66346  21280423.7814   21280419.2464
  49857841.80147  38859499.09944  23284342.7274                   23284340.8674
  37694727.93048  29382772.79946  21775219.0554   21775218.4414
                                  27996087.67248                  21824751.81646
  21092108.8444   21092106.3794   33027981.90247  25744484.72644  22535871.6724
  22535869.3364   26291707.87948  20498477.93347  20328434.7734   20328432.1684
 11  7 30  3 16 30.0000000  0  6G02G29G25G12G10G05
  22917225.38747                  17868632.63546  21280466.8134   21280462.4534
  49739972.82847  38767653.23544  23261912.9144                   23261911.4574
  37633369.68448  29334961.19446  21763542.8834   21763542.8364
                                  28002593.86748                  21829821.56746
  21093347.1254   21093344.4884   33083419.02047  25787682.48744  22546421.3284
  22546418.8364   26252169.19548  20467668.59447  20320910.4064   20320907.6454
 11  7 30  3 17  0.0000000  0  6G02G29G25G12G10G05
  22917580.52347                  17868909.37146  21280534.2974   21280529.8054
  49622128.20347  38675826.30545  23239488.0704                   23239486.3794
  37572591.16048  29287601.31046  21751977.1414   21751976.7424
                                  28009636.13748                  21835309.04646
  21094687.4304   21094684.6604   33139190.10947  25831140.47744  22557033.4534
  22557031.6724   26213213.85248  20437313.80547  20313497.3984   20313494.4614
 11  7 30  3 17 30.0000000  0  6G02G29G25G12G10G05
  22918062.41847                  17869284.88146  21280626.3054   21280621.4414
  49504306.73447  38584017.43045  23217067.0314                   23217065.6564
  37512390.73448  29240691.90746  21740521.1804   21740520.9454
                                  28017210.16448                  21841210.86246
  21096128.6644   21096125.7894   33195289.93047  25874854.62944  22567709.3674
  22567706.6254   26174838.33248  20407410.82047  20306194.9534   20306192.1914
 11  7 30  3 18  0.0000000  0  6G02G29G25G12G10G05
  22918671.87147                  17869759.78746  21280742.0234   21280737.0984
  49386511.89846  38492229.30745  23194651.4384                   23194649.4064
  37452770.67248  29194234.73446  21729176.0704   21729175.9454
                                  28025315.58648                  21847526.77946
  21097670.8134   21097668.0904   33251716.89547  25918823.67344  22578447.7194
  22578444.5824   26137044.34848  20377960.98347  20299002.7114   20299000.0434
 11  7 30  3 18 30.0000000  0  6G02G29G25G12G10G05
  22919402.37947                  17870329.01746  21280880.8984   21280876.4694
  49268738.90647  38400458.22845  23172239.6644                   23172238.5394
  37393725.92247  29148225.84646  21717940.1564   21717940.0634
                                  28033945.18048                  21854251.11746
  21099313.1564   21099310.4184   33308462.55147  25963041.06344  22589245.6884
  22589242.7814   26099825.43448  20348959.25547  20291920.1174   20291917.5664
 11  7 30  3 19  0.0000000  0  6G02G29G25G12G10G05
  22920256.75847                  17870994.77846  21281043.4304   21281038.8484
  49150992.47747  38308707.83445  23149833.3914                   23149832.1914
  37335260.31348  29102668.24846  21706814.1564   21706814.5944
                                  28043100.17648                  21861384.86846
  21101055.4924   21101052.3914   33365527.06347  26007506.91944  22600104.4224
  22600101.7114   26063184.29348  20320407.73447  20284947.6174   20284944.7894
 11  7 30  3 19 30.0000000  0  6G02G29G25G12G10G05
  22921230.06647                  17871753.21046  21281228.8834   21281224.5554
  49033269.77346  38216975.95545  23127431.6174                   23127430.2814
  37277370.33248  29057559.18246  21695798.4304   21695798.4384
                                  28052774.37948                  21868923.19646
  21102896.1884   21102893.6684   33422903.25847  26052215.61845  22611023.1644
  22611020.3134   26027116.30147  20292302.83547  20278084.4454   20278081.4654
 11  7 30  3 20  0.0000000  0  6G02G29G25G12G10G05
  22922321.05547                  17872603.33046  21281436.2894   21281431.7894
  48915571.74246  38125263.27145  23105034.5784                   23105033.3834
  37220056.17648  29012898.81746  21684891.4774   21684891.5984
                                  28062965.79348                  21876864.54746
  21104835.3914   21104832.6844   33480587.95747  26097164.76245  22622000.2274
  22621997.8284   25991620.38347  20264643.68647  20271329.6954   20271327.0944
 11  7 30  3 20 30.0000000  0  6G02G29G25G12G10G05
  22923529.52347                  17873544.99746  21281666.3754   21281661.5984
  48797899.75446  38033570.88345  23082642.3914                   23082640.4264
  37163318.25448  28968687.46046  21674095.0394   21674095.0784
                                  28073672.39548                  21885207.35046
  21106872.7734   21106870.1884   33538578.10947  26142351.88644  22633035.2664
  22633033.0434   25956695.46948  20237429.48647  20264683.3364   20264681.0474
 11  7 30  3 21  0.0000000  0  6G02G29G25G12G10G05
  22924855.13747                  17874577.94246  21281918.7114   21281914.2704
  48680255.62946  37941900.19845  23060254.7974                   23060253.3244
  37107157.62948  28924925.93946  21663407.8444   21663407.7774
                                  28084892.77748                  21893950.48846
  21109008.4144   21109005.2774   33596871.13747  26187775.00245  22644128.1484
  22644126.0554   25922341.73047  20210660.35447  20258146.3524   20258143.5354
 11  7 30  3 21 30.0000000  0  6G02G29G25G12G10G05
  22926299.67647                  17875703.55646  21282193.4304   21282188.8284
  48562642.91446  37850254.02845  23037873.7894                   23037872.5864
  37051577.20748  28881616.52346  21652831.2424   21652831.0944
                                  28096627.86348                  21903094.70846
  21111241.5704   21111238.7504   33655466.55147  26233433.75445  22655278.1724
  22655275.8134   25888560.74247  20184337.52347  20251718.0474   20251715.0474
 11  7 30  3 22  0.0000000  0  6G02G29G25G12G10G05
  22927859.06347                  17876918.67046  21282490.5084   21282486.3484
  48445059.28947  37758630.49645  23015498.3594                   23015496.9024
  36996573.77748  28838756.72146  21642364.4454   21642364.0824
                                  28108870.85548                  21912634.68446
  21113570.9614   21113568.5164   33714357.50846  26279322.82044  22666484.5634
  22666482.4614   25855348.22748  20158457.66447  20245397.6254   20245394.7304
 11  7 30  3 22 30.0000000  0  6G02G29G25G12G10G05
  22929536.45747                  17878225.74846  21282809.5784   21282804.8524
  48327510.90246  37667034.43445  22993129.2424                   22993128.4534
  36942151.95348  28796350.11346  21632008.2274   21632008.3954
                                  28121624.55548                  21922572.62346
  21115998.0234   21115995.2074   33773545.25046  26325443.13544  22677747.6484
  22677745.8244   25822707.55148  20133023.38947  20239186.5004   20239183.4964
 11  7 30  3 23  0.0000000  0  6G02G29G25G12G10G05
  22931331.31347                  17879624.34846  21283150.6564   21283146.6564
  48209998.73846  37575466.61245  22970767.6724                   22970766.5204
  36888311.89548  28754396.82746  21621763.1094   21621762.5474
                                  28134887.02348                  21932907.00946
  21118521.6024   21118519.1134   33833026.68846  26371792.31144  22689066.8054
  22689064.6524   25790637.69148  20108033.91147  20233083.6024   20233080.7504
 11  7 30  3 23 30.0000000  0  6G02G29G25G12G10G05
  22933241.46947                  17881112.77546  21283514.5394   21283509.6994
  48092522.52047  37483926.78945  22948413.0394                   22948411.0554
  36835052.44948  28712895.95846  21611628.3134   21611627.8324
                                  28148653.94548                  21943634.46446
  21121141.6334   21121138.9384   33892797.24246  26418366.74544  22700440.5634
  22700438.8164   25759136.20348  20083487.30547  20227089.2424   20227086.4454
 11  7 30  3 24  0.0000000  0  6G02G29G25G12G10G05
  22935267.18447                  17882691.26146  21283900.1094   21283895.3984
  47975084.57847  37392416.80245  22926064.7974                   22926063.2584
  36782374.88348  28671848.51046  21601604.0164   21601603.7464
                                  28162924.29748                  21954754.20946
  21123857.2734   21123854.6454   33952854.66446  26465164.73345  22711869.5164
  22711866.9494   25728203.36348  20059383.81747  20221202.7894   20221199.9534
 11  7 30  3 24 30.0000000  0  7G02G29G26G25G12G10G05
  22937403.44947                  17884355.87646  21284306.2584   21284301.6884
  47857681.89847  37300934.25745  22903723.8524                   22903721.9804
  58183245.51647  45346031.73953  24374093.3674                   24374091.6094
  36730274.96148  28631251.17046  21591689.6254   21591689.2234
                                  28177692.73848                  21966262.06046
  21126667.6484   21126664.8284   34013191.65646  26512180.55944  22723351.2894
  22723348.5004   25697833.61748  20035719.08447  20215423.5234   20215420.3364
 11  7 30  3 25  0.0000000  0  7G02G29G26G25G12G10G05
  22939654.32047                  17886109.79946  21284734.6954   21284730.1844
  47740320.46147  37209483.86245  22881390.8984                   22881388.7974
  58051939.39147  45243715.29543  24349106.6174                   24349105.2854
  36678757.62548  28591107.80546  21581886.2034   21581885.9964
                                  28192960.29348                  21978158.85946
  21129572.9534   21129570.4184   34073809.82846  26559415.50144  22734886.2664
  22734883.5904   25668030.78948  20012496.12047  20209752.2424   20209749.6094
 11  7 30  3 25 30.0000000  0  7G02G29G26G25G12G10G05
  22942009.71147                  17887945.16446  21285183.2584   21285178.0124
  47622992.38747  37118059.45345  22859064.0864                   22859062.0354
  57920566.82847  45141347.13743  24324106.9304                   24324105.7384
  36627813.80148  28551411.33046  21572191.7424   21572191.5354
                                  28208715.98048                  21990436.00146
  21132571.1024   21132568.3164   34134696.38746  26606859.53944  22746472.1644
  22746470.1054   25638784.46948  19989706.80547  20204186.7814   20204183.9924
 11  7 30  3 26  0.0000000  0  7G02G29G26G25G12G10G05
  22944468.78147                  17889861.32346  21285651.0234   21285646.1804
  47505698.93046  37026662.01345  22836743.5704                   22836741.9534
  57789130.69947  45038929.48243  24299095.4304                   24299094.7424
  36577443.41448  28512161.69346  21562606.5704   21562606.6844
                                  28224957.50848                  22003091.72546
  21135661.6174   21135658.9224   34195848.37946  26654510.42344  22758109.9144
  22758106.9494   25610093.80147  19967350.44947  20198727.4534   20198724.6804
 11  7 30  3 26 30.0000000  0  7G02G29G26G25G12G10G05
  22947034.04347                  17891860.24046  21286138.7194   21286134.4574
  47388444.30146  36935294.87445  22814430.9384                   22814429.1524
  57657636.75046  44936466.69943  24274072.5634                   24274071.4304
  36527649.62148  28473361.34646  21553131.3204   21553131.0314
                                  28241685.46548                  22016126.48246
  21138844.8834   21138842.2854   34257265.79346  26702368.13744  22769796.9144
  22769794.3014   25581960.45348  19945428.38547  20193373.5474   20193371.0634
 11  7 30  3 27  0.0000000  0  7G02G29G26G25G12G10G05
  22949704.28547                  17893940.95746  21286647.5864   21286642.7584
  47271229.44547  36843958.67645  22792125.5314                   22792123.7274
  57526087.64146  44833960.96043  24249040.0234                   24249038.0664
  36478432.18848  28435010.10646  21543765.5004   21543765.5394
                                  28258897.30948                  22029538.28446
  21142120.2814   21142117.8014   34318945.29346  26750430.08844  22781534.0234
  22781531.9024   25554383.17248  19923939.61047  20188125.5784   20188122.8444
 11  7 30  3 27 30.0000000  0  7G02G29G26G25G12G10G05
  22952483.16047                  17896106.32646  21287176.3674   21287171.6414
  47154059.89546  36752657.81245  22769828.5784                   22769827.0904
  57394490.44146  44731417.78743  24223997.7664                   24223995.7584
  36429795.18848  28397111.15346  21534510.1094   21534510.2234
                                  28276594.60248                  22043328.37446
  21145488.0474   21145485.4104   34380887.84046  26798696.99544  22793321.3364
  22793319.0864   25527364.61348  19902886.20047  20182984.4064   20182981.4614
 11  7 30  3 28  0.0000000  0  7G02G29G26G25G12G10G05
  22955372.05148                  17898357.41946  21287726.0784   21287721.3554
  47036939.11746  36661394.94745  22747541.7584                   22747539.8404
  57262850.23846  44628841.07843  24198947.6334                   24198945.3834
  36381740.80948  28359666.19046  21525365.5944   21525365.7774
                                  28294777.45748                  22057496.80146
  21148948.1254   21148945.3794   34443092.23846  26847167.94144  22805158.8754
  22805155.8324   25500905.74247  19882268.90947  20177949.2664   20177946.7194
 11  7 30  3 28 30.0000000  0  7G02G29G26G25G12G10G05
  22958373.13747                  17900695.93846  21288296.9774   21288292.3484
  46919871.64847  36570173.62245  22725264.2034                   22725262.2504
  57131172.76246  44526235.31643  24173890.2114                   24173888.7584
  36334271.91048  28322677.44746  21516332.6954   21516332.4654
                                  28313446.35548                  22072043.97746
  21152500.6024   21152497.8484   34505558.12547  26895842.68144  22817045.3524
  22817043.5474   25475008.79347  19862089.49447  20173021.4774   20173018.5044
 11  7 30  3 29  0.0000000  0  7G02G29G26G25G12G10G05
  22961485.57848                  17903121.23046  21288889.3284   21288884.4924
  46802858.13747  36478994.33645  22702997.0004                   22702995.2424
  56999460.62146  44423602.54443  24148825.6254                   24148824.8834
  36287388.06348  28286144.59446  21507411.1804   21507410.8134
                                  28332598.39148                  22086967.60446
  21156144.9844   21156142.4304   34568281.88347  26944718.31144  22828981.2894
  22828979.0784   25449671.89547  19842346.46547  20168200.3444   20168197.0084
 11  7 30  3 29 30.0000000  0  7G02G29G26G25G12G10G05
  22964705.27748                  17905630.09346  21289501.6564   21289496.9264
  46685896.67647  36387855.62145  22680741.0084                   22680738.5594
  56867713.25446  44320942.32943  24123754.5474                   24123753.8834
  36241085.69148  28250064.83346  21498599.7194   21498599.5164
                                  28352227.32848                  22102262.86446
  21159880.4694   21159877.7934   34631257.30947  26993790.07344  22840964.7664
  22840962.9844   25424890.23848  19823036.09547  20163484.2974   20163481.4804
 11  7 30  3 30  0.0000000  0  7G02G29G26G25G12G10G05
  22968033.68848                  17908223.67446  21290135.2504   21290130.2114
  46568991.30947  36296760.59545  22658493.6804                   22658492.0944
  56735936.25046  44218258.99243  24098679.0164                   24098676.9614
  36195367.33248  28214440.14446  21489900.1024   21489899.9454
                                  28372333.93848                  22117930.32746
  21163706.5634   21163704.3284   34694483.89847  27043057.52944  22852996.7504
  22852994.5864   25400665.35248  19804159.57847  20158874.4064   20158871.3364
 11  7 30  3 30 30.0000000  0  7G02G29G26G25G12G10G05
  22971470.66448                  17910901.84346  21290789.2274   21290784.8134
  46452143.85247  36205710.68545  22636258.2504                   22636256.7034
  56604133.05546  44115555.33943  24073597.7664                   24073595.7304
  36150233.28548  28179270.77246  21481311.1724   21481310.9454
                                  28392915.93048                  22133968.22546
  21167623.0864   21167620.4414   34757958.88347  27092518.55644  22865076.1024
  22865073.9694   25376996.24648  19785716.12747  20154370.0944   20154367.4844
 11  7 30  3 31  0.0000000  0  7G02G29G26G25G12G10G05
  22975017.02748                  17913665.24946  21291463.2894   21291459.4694
  46335356.77747  36114707.83645  22614034.7424                   22614033.2274
  56472307.77346  44012834.38243  24048511.8444                   24048510.1604
  36105684.50448  28144557.44046  21472833.7114   21472833.8554
                                  28413971.82448                  22150375.39346
  21171630.0634   21171627.7974   34821680.30947  27142171.62444  22877201.6254
  22877199.7854   25353882.68448  19767705.57647  20149971.9534   20149968.6644
 11  7 30  3 31 30.0000000  0  7G02G29G26G25G12G10G05
  24554089.46148                  19144111.31446  21591951.4694   21591947.0164
  47794052.53147  37251353.95245  22891614.9454                   22891613.2624
  57915884.95346  45137699.82043  24323215.1804                   24323214.2704
  37637139.43048  29337898.94246  21764260.0314   21764259.7344
                                  30010915.84848                  23394747.32546
  21475518.3754   21475516.0514   36461060.17247  28419610.46344  23189165.0474
  23189162.4144   26906741.32048  20977725.30947  20445471.1484   20445468.2234
 11  7 30  3 32  0.0000000  0  7G02G29G26G25G12G10G05
  24557851.92648                  19147043.11546  21592667.8054   21592662.9574
  47677389.18847  37160447.51945  22869414.1644                   22869412.4224
  57784023.36746  45034950.62843  24298123.0084                   24298121.6914
  37593759.59048  29304096.47446  21756005.2814   21756005.1884
                                  30032911.80148                  23411887.02146
  21479704.0784   21479701.7274   36525264.19946  28469639.56644  23201382.5084
  23201380.3204   26884734.49248  20960577.14147  20441283.1644   20441280.3324
 11  7 30  3 32 30.0000000  0  7G02G29G26G25G12G10G05
  24561720.43848                  19150057.55346  21593403.6024   21593399.0394
  47560789.00447  37069590.31545  22847226.2974                   22847224.3874
  57652146.92246  44932189.83243  24273027.3204                   24273026.1454
  37550962.80948  29270748.33046  21747861.2974   21747861.1564
                                  30055372.53948                  23429388.87246
  21483978.4924   21483975.8754   36589703.58646  28519852.09044  23213644.8524
  23213642.5514   26863277.66048  20943857.54247  20437200.0554   20437197.3094
 11  7 30  3 33  0.0000000  0  7G02G29G26G25G12G10G05
  24565698.35247                  19153157.23046  21594160.6024   21594156.0204
  47444257.61747  36978786.69445  22825051.2734                   22825048.3404
  57520263.14546  44829423.37744  24247930.9144                   24247929.9024
  37508753.11748  29237857.65446  21739829.0234   21739828.7464
                                  30078300.02748                  23447254.43546
  21488341.3204   21488338.8014   36654379.68846  28570249.03344  23225952.8364
  23225949.9184   26842373.74648  20927568.79547  20433222.2114   20433219.4024
 11  7 30  3 33 30.0000000  0  7G02G29G26G25G12G10G05
  24569781.95747                  19156339.26046  21594937.7274   21594932.9024
  47327793.22747  36888035.27645  22802888.8834                   22802886.5514
  57388371.72346  44726650.93844  24222832.3284                   24222831.3554
  37467127.05148  29205421.76246  21731907.7664   21731907.6644
                                  30101688.68447                  23465479.34346
  21492792.0234   21492789.1644   36719286.16446  28620825.47344  23238304.2034
  23238301.6024   26822018.32448  20911707.43847  20429348.7034   20429345.7504
 11  7 30  3 34  0.0000000  0  7G02G29G26G25G12G10G05
  24573973.24647                  19159605.20846  21595735.2424   21595730.3634
  47211400.19547  36797339.48645  22780739.6484                   22780737.7274
  57256478.39546  44623877.00843  24197734.0634                   24197732.6804
  37426086.89848  29173442.42746  21724098.2894   21724097.9104
                                  30125538.20748                  23484063.36846
  21497330.5474   21497327.9574   36784422.87946  28671581.34844  23250698.9304
  23250696.7424   26802212.34448  20896274.21247  20425579.9144   20425576.7504
 11  7 30  3 34 30.0000000  0  7G02G29G26G25G12G10G05
  24578271.32447                  19162954.36446  21596553.3754   21596548.6054
  47095079.09047  36706699.72745  22758604.2274                   22758602.6214
  57124585.53147  44521103.38944  24172635.5554                   24172634.3794
  37385631.50848  29141918.74746  21716399.8054   21716399.3674
                                  30149845.44948                  23503004.06246
  21501955.7584   21501953.6884   36849785.41456  28722513.15254  23263137.0784
  23263135.4924   26782953.56648  20881267.38647  20421914.8204   20421912.3324
 11  7 30  3 35  0.0000000  0  7G02G29G26G25G12G10G05
  24582675.63348                  19166386.28546  21597391.3524   21597386.3914
  46978831.99247  36616117.63345  22736483.4534                   22736481.1954
  56992696.68847  44418332.94844  24147538.2974                   24147537.0354
  37345761.15248  29110850.93246  21708812.5314   21708812.2734
                                  30174608.34048                  23522299.80046
  21506668.2344   21506665.4734   36915371.79746  28773619.41444  23275617.5084
  23275615.0204   26764241.53948  20866686.58947  20418354.1884   20418351.2734
 11  7 30  3 35 30.0000000  0  7G02G29G26G25G12G10G05
  24587183.18848                  19169898.66546  21598249.3834   21598244.2074
  46862657.36747  36525591.99045  22714376.1644                   22714373.8014
  56860812.13747  44315565.85344  24122441.0704                   24122439.8984
  37306472.68048  29080236.54646  21701336.1254   21701335.5984
                                  30199821.48848                  23541946.39646
  21511465.9924   21511463.5824   36981175.73046  28824895.20144  23288139.5394
  23288137.7664   26746071.89148  20852528.43547  20414896.3834   20414893.8794
 11  7 30  3 36  0.0000000  0  7G02G29G26G25G12G10G05
  24591794.61348                  19173491.99646  21599126.6174   21599121.7854
  46746558.30546  36435125.23945  22692282.8204                   22692281.0554
  56728936.33247  44212805.50144  24097345.9454                   24097345.1764
  37267767.10948  29050076.36846  21693970.8054   21693970.2814
                                  30225483.89848                  23561943.06646
  21516349.6484   21516346.7504   37047195.91046  28876339.45044  23300702.7584
  23300700.4884   26728444.42648  20838792.76447  20411542.0784   20411538.9144
 11  7 30  3 36 30.0000000  0  7G02G29G26G25G12G10G05
  24596506.89547                  19177163.91946  21600023.0704   21600018.5944
  46630533.82847  36344716.62545  22670204.2424                   22670202.5274
  56597069.91447  44110052.53444  24072252.6024                   24072250.9964
  37229641.39548  29020368.01646  21686715.9774   21686715.3834
                                  30251590.17647                  23582285.60346
  21521317.2274   21521314.4734   37113426.78546  28927947.95544  23313306.4064
  23313303.9924   26711355.15648  20825476.46747  20408290.5164   20408287.3984
 11  7 30  3 37  0.0000000  0  7G02G29G26G25G12G10G05
  24601324.03947                  19180917.54046  21600939.7974   21600935.0784
  46514590.30147  36254371.09745  22648140.7734                   22648139.1844
  56465220.68447  44007312.95444  24047162.0944                   24047161.1374
  37192099.69948  28991114.74046  21679571.5944   21679571.3634
                                  30278142.77048                  23602975.91846
  21526370.0784   21526367.4574   37179869.78146  28979721.68044  23325950.3364
  23325948.0944   26694806.92648  20812581.75447  20405141.2894   20405138.1414
 11  7 30  3 37 30.0000000  0  7G02G29G26G25G12G10G05
  24606244.48047                  19184751.64846  21601876.2424   21601871.6094
  46398727.75047  36164088.65145  22626092.8914                   22626090.8364
  56333390.21947  43904587.93944  24022076.1024                   24022074.3874
  37155140.12548  28962315.06746  21672538.6254   21672538.1564
                                  30305137.07048                  23624010.41746
  21531506.8834   21531504.4414   37246520.38746  29031657.17544  23338633.2194
  23338631.1684   26678797.10948  20800106.58447  20402094.5314   20402091.7114
 11  7 30  3 38  0.0000000  0  7G02G29G26G25G12G10G05
  24611272.39547                  19188669.50046  21602832.8054   21602827.9104
  46282952.25447  36073874.04845  22604061.7814                   22604059.4104
  56201586.37547  43801883.69044  23996994.6094                   23996993.0704
  37118767.07848  28933972.44346  21665617.0704   21665616.8554
                                  30332575.27748                  23645390.82846
  21536728.0784   21536725.5704   37313380.62546  29083756.08644  23351356.9534
  23351354.8674   26663328.89548  20788053.44547  20399150.8834   20399148.0904
 11  7 30  3 38 30.0000000  0  7G02G29G26G25G12G10G05
  24616401.37947                  19192666.10846  21603809.1484   21603804.1374
  46167259.86347  35983724.18745  22582045.9144                   22582044.1604
  56069806.61747  43699198.21144  23971917.2974                   23971916.3014
  37082974.16448  28906081.86846  21658805.6484   21658805.9144
                                  30360449.06348                  23667110.65346
  21542032.2194   21542030.1564   37380441.34046  29136011.14444  23364117.8984
  23364115.1214   26648394.78148  20776416.48447  20396309.1254   20396306.2424
 11  7 30  3 39  0.0000000  0  7G02G29G26G25G12G10G05
  24621633.60247                  19196743.14146  21604805.0784   21604799.6054
  46051654.57847  35893642.19745  22560046.8834                   22560045.1884
  55938056.80147  43596536.10743  23946846.3834                   23946844.6094
  37047763.43448  28878644.93846  21652105.5234   21652105.4224
                                  30388757.97348                  23689169.53246
  21547419.4224   21547417.2734   37447702.15246  29188422.18044  23376917.2034
  23376914.5514   26633995.82048  20765196.51947  20393569.2664   20393566.3634
 11  7 30  3 39 30.0000000  0  7G02G29G26G25G12G10G05
  24626972.55147                  19200903.37046  21605820.7034   21605815.8364
  45936141.98447  35803632.44446  22538065.7114                   22538063.9304
  55806344.03546  43493902.77843  23921781.8134                   23921780.4654
  37013138.29348  28851664.32446  21645516.4774   21645516.4924
                                  30417503.70748                  23711568.77746
  21552889.4844   21552887.2704   37515164.00046  29240989.84144  23389754.7344
  23389752.0474   26620134.35248  20754395.39847  20390931.5084   20390928.3674
 11  7 30  3 40  0.0000000  0  7G02G29G26G25G12G10G05
  24632414.07847                  19205143.52046  21606856.1724   21606851.2504
  45820720.54747  35713693.72145  22516101.6644                   22516099.6174
  55674668.27346  43391298.36543  23896724.8444                   23896722.3714
  36979094.91848  28825137.03446  21639038.1094   21639038.1844
                                  30446680.12948                  23734303.63846
  21558441.6884   21558439.5124   37582820.78946  29293709.35143  23402629.2194
  23402626.2854   26606805.64848  20744009.40847  20388394.8914   20388391.8714
 11  7 30  3 40 30.0000000  0  7G02G29G26G25G12G10G05
  24637954.18447                  19209460.49146  21607910.2584   21607905.7664
  45705388.00447  35623824.27045  22494154.3674                   22494152.5904
  55543028.40246  43288721.90544  23871674.8594                   23871673.0234
  36945628.45748  28799059.27946  21632669.8674   21632669.6414
                                  30476280.38748                  23757368.76746
  21564074.6414   21564072.1174   37650665.60946  29346575.45743  23415539.1644
  23415536.9534   26594003.64548  20734033.83147  20385958.8984   20385955.8014
 11  7 30  3 41  0.0000000  0  7G02G29G26G25G12G10G05
  24643600.19147                  19213859.98446  21608985.1644   21608980.1804
  45590153.67647  35534031.33145  22472225.6174                   22472223.8484
  55411435.78146  43186182.25343  23846633.9224                   23846632.1174
  36912746.35248  28773436.86446  21626412.7424   21626412.3674
                                  30506309.69148                  23780768.20646
  21569788.9064   21569786.4224   37718703.42246  29399591.93843  23428486.4774
  23428484.3324   26581734.48448  20724473.46147  20383624.1094   20383621.4844
 11  7 30  3 41 30.0000000  0  7G02G29G26G25G12G10G05
  24649342.91847                  19218334.82546  21610077.7664   21610072.8594
  45475010.33647  35444309.29545  22450314.9304                   22450312.8444
  55279884.56346  43083674.82143  23821600.2194                   23821598.5164
  36880439.17248  28748262.45246  21620264.9064   21620264.4064
                                  30536756.79748                  23804493.20546
  21575582.9064   21575580.6294   37786922.24646  29452749.47643  23441467.7424
  23441465.8714   26569988.36348  20715320.65347  20381388.9064   20381385.7424
 11  7 30  3 42  0.0000000  0  7G02G29G26G25G12G10G05
  24655188.60947                  19222889.90746  21611190.2274   21611185.2774
  45359966.44947  35354664.76845  22428423.1254                   22428420.7934
  55148384.77046  42981207.53243  23796575.9694                   23796574.8244
  36848712.60548  28723540.45946  21614227.2734   21614227.4734
                                  30567625.15248                  23828546.45946
  21581456.8054   21581454.6094   37855325.64546  29506050.80343  23454485.1174
  23454482.2154   26558769.98848  20706579.07347  20379254.0554   20379250.8554
 11  7 30  3 42 30.0000000  0  7G02G29G26G25G12G10G05
  24661137.99647                  19227525.78946  21612322.4304   21612317.4384
  45245025.16047  35265100.18745  22406550.0314                   22406548.1954
  55016941.04746  42878783.86844  23771563.1414                   23771561.6024
  36817567.55548  28699271.58846  21608300.5784   21608300.4884
                                  30598913.73848                  23852927.15646
  21587410.8284   21587408.6844   37923912.12146  29559494.72543  23467536.6564
  23467534.1524   26548078.66048  20698248.17447  20377219.5004   20377216.4414
 11  7 30  3 43  0.0000000  0  7G02G29G26G25G12G10G05
  24667187.27347                  19232239.50346  21613473.4384   21613468.6134
  45130184.38347  35175613.92745  22384696.6484                   22384694.5204
  54885553.27346  42776403.80644  23746560.9534                   23746559.3554
  36786999.80948  28675452.57446  21602483.5944   21602483.7774
                                  30630616.09448                  23877630.27946
  21593443.6644   21593441.2154   37992675.56346  29613076.57944  23480622.4924
  23480619.5004   26537909.73848  20690324.35447  20375284.5634   20375281.3634
 11  7 30  3 43 30.0000000  0  7G02G29G26G25G12G10G05
  24673339.18447                  19237033.21346  21614643.9614   21614639.2934
  45015448.94547  35086209.73845  22362862.7974                   22362860.7424
  54754227.75447  42674072.28344  23721571.1724                   23721569.1414
  36757011.54348  28652085.08646  21596776.9534   21596776.9384
                                  30662732.54748                  23902656.06346
  21599555.4384   21599552.8364   38061616.01246  29666796.40443  23493741.6334
  23493738.7704   26528264.15648  20682808.32647  20373448.9064   20373446.0784
 11  7 30  3 44  0.0000000  0  7G02G29G26G25G12G10G05
  24679592.28547                  19241905.75846  21615834.0864   21615829.3634
  44900819.83647  34996888.39845  22341049.6094                   22341047.7854
  54622966.58647  42571790.89344  23696592.4454                   23696590.8244
  36727601.04748  28629167.82546  21591180.3674   21591180.3594
                                  30695259.25048                  23928001.52246
  21605745.2034   21605742.3364   38130729.30146  29720650.88044  23506893.2584
  23506890.7384   26519139.16448  20675697.95747  20371712.6644   20371709.0124
 11  7 30  3 44 30.0000000  0  7G02G29G26G25G12G10G05
  24685946.83247                  19246857.35246  21617043.3364   21617038.3554
  44786299.30147  34907651.65545  22319257.4144                   22319255.3244
  54491773.77747  42469562.77344  23671627.6884                   23671625.9184
  36698768.18048  28606700.65546  21585693.7344   21585693.4694
                                  30728193.96948                  23953664.92546
  21612012.3754   21612009.7624   38200013.19146  29774638.31043  23520076.8364
  23520074.8794   26510533.88748  20668992.55847  20370075.0864   20370071.8094
 11  7 30  3 45  0.0000000  0  7G02G29G26G25G12G10G05
  24692404.87147                  19251889.60446  21618272.2814   21618267.5314
  44671891.21547  34818502.53545  22297485.8284                   22297484.0084
  54360654.99247  42367392.33544  23646676.0164                   23646675.1214
  36670514.34048  28584684.68046  21580317.4534   21580316.9224
                                  30761536.51248                  23979646.10346
  21618357.2274   21618354.4884   38269467.27346  29828758.32244  23533293.6094
  23533292.1804   26502448.48048  20662692.24647  20368536.4614   20368533.5434
 11  7 30  3 45 30.0000000  0  7G02G29G26G25G12G10G05
  24698960.15648                  19256997.61746  21619519.4694   21619514.7424
  44557591.53947  34729437.90245  22275735.7504                   22275733.2584
  54229607.73047  42265277.63044  23621738.8984                   23621736.8914
  36642833.04348  28563114.83246  21575049.5474   21575049.7114
                                  30795277.93447                  24005938.11746
  21624778.2504   21624775.3054   38339082.69546  29883004.09644  23546541.5084
  23546540.1414   26494875.58648  20656791.30647  20367095.4774   20367091.9924
 11  7 30  3 46  0.0000000  0  7G02G29G26G25G12G10G05
  24705619.43447                  19262186.67646  21620786.9304   21620782.0234
  44443408.87547  34640464.43645  22254007.5474                   22254004.9734
  54098642.29747  42163226.67244  23596816.8594                   23596815.2774
  36615730.16447  28541995.70346  21569892.1414   21569892.4224
                                  30829422.63747                  24032544.36446
  21631275.4694   21631272.7624   38408863.41446  29937378.64244  23559820.3914
  23559818.6174   26487820.45348  20651293.81247  20365752.7584   20365749.4964
 11  7 30  3 46 30.0000000  0  7G02G29G26G25G12G10G05
  24712374.78948                  19267450.59246  21622072.6024   21622067.6804
  44329338.07447  34551578.13745  22232300.1334                   22232297.9144
  53967754.62947  42061236.34544  23571909.7274                   23571908.4264
  36589197.66048  28521321.01946  21564842.9694   21564842.9494
                                  30863960.16447                  24059456.71446
  21637847.9454   21637845.4924   38478799.39846  29991874.19044  23573128.4384
  23573126.3794   26481273.92248  20646192.63047  20364507.0784   20364503.9344
 11  7 30  3 47  0.0000000  0  7G02G29G26G25G12G10G05
  24719228.45747                  19272791.11046  21623376.4454   21623371.7384
  44215383.21147  34462782.17145  22210615.6884                   22210613.2774
  53836950.58647  41959311.13144  23547018.7734                   23547016.8134
  36563237.13348  28501092.03646  21559903.2894   21559903.1024
                                  30898890.16047                  24086674.87946
  21644494.7734   21644492.0634   38548890.43046  30046490.53544  23586466.5864
  23586463.6134   26475236.78548  20641488.36847  20363358.3984   20363355.1994
 11  7 30  3 47 30.0000000  0  7G02G29G26G25G12G10G05
  24726185.82447                  19278212.43546  21624700.5164   21624695.7734
  44101551.53547  34374082.22345  22188953.7734                   22188952.1764
  53706239.02347  41857457.99244  23522144.8444                   23522143.6644
  36537852.96948  28481312.17446  21555072.6954   21555072.4804
                                  30934215.53547                  24114201.13146
  21651217.0864   21651213.7704   38619139.14147  30101229.73844  23599835.3284
  23599831.4344   26469712.41448  20637183.67747  20362306.8524   20362303.8164
 11  7 30  3 48  0.0000000  0  7G02G29G26G25G12G10G05
  24733244.59047                  19283712.77946  21626043.5554   21626039.4144
  43987842.88347  34285478.11745  22167316.0004                   22167313.4924
  53575621.26247  41755677.98444  23497289.2734                   23497287.6644
  36513042.40648  28461979.26346  21550351.5704   21550351.2664
                                  30969931.78547                  24142031.96946
  21658013.7114   21658010.9144   38689540.55547  30156087.97644  23613232.0004
  23613228.3324   26464697.04348  20633275.59947  20361352.6724   20361349.4884
 11  7 30  3 48 30.0000000  0  7G02G29G26G25G12G10G05
  24740402.62547                  19289290.47146  21627406.0004   21627400.9264
  43874257.61347  34196970.14745  22145701.0474                   22145698.7424
  53445099.19147  41653972.50744  23472451.7344                   23472449.9804
  36488802.78148  28443091.23646  21545738.5314   21545738.8484
                                  31006034.11347                  24170163.63346
  21664883.5394   21664881.0664   38760090.39846  30211061.82244  23626656.9454
  23626653.9024   26460187.21548  20629761.45647  20360494.2424   20360491.1174
 11  7 30  3 49  0.0000000  0  7G02G29G26G25G12G10G05
  24747660.85247                  19294946.23646  21628787.5554   21628782.5474
  43760798.47347  34108560.46445  22124110.7194                   22124108.3834
  53314677.33647  41552345.10744  23447632.9384                   23447631.4534
  36465134.10248  28424648.09746  21541234.7424   21541234.6914
                                  31042520.22347                  24198594.35246
  21671826.9844   21671824.4384   38830786.75046  30266149.87844  23640109.5084
  23640107.9454   26456182.14148  20626640.63447  20359731.8754   20359728.9024
